<?xml version="1.0" encoding="utf-8"?>
<gpx xmlns:xsi="http://www.w3.org/2001/XMLSchema-instance" xmlns:xsd="http://www.w3.org/2001/XMLSchema" version="1.1" creator="Shapelink.com" xmlns="http://www.topografix.com/GPX/1/1" xmlns:gpxtpx="http://www.garmin.com/xmlschemas/TrackPointExtension/v1">
  <metadata>
    <name>Løping 4.19 km, 2013-05-19</name>
    <desc></desc>
    <author><name>Mikael Blom</name></author> 
    <time>2013-05-19T12:02:46Z</time>
  </metadata>
  <trk>
    <name>Løping 4.19 km, 2013-05-19</name>
    <trkseg>
      <trkpt lat="59.9176674" lon="17.7207674">
        <ele>48.2034</ele>
        <time>2013-05-19T12:02:46Z</time>
      </trkpt>
      <trkpt lat="59.9176784" lon="17.7207508">
        <ele>47.7225</ele>
        <time>2013-05-19T12:02:47Z</time>
      </trkpt>
      <trkpt lat="59.9176958" lon="17.7207273">
        <ele>47.2418</ele>
        <time>2013-05-19T12:02:48Z</time>
      </trkpt>
      <trkpt lat="59.9177178" lon="17.7207042">
        <ele>47.2418</ele>
        <time>2013-05-19T12:02:49Z</time>
      </trkpt>
      <trkpt lat="59.9177524" lon="17.7206861">
        <ele>47.2418</ele>
        <time>2013-05-19T12:02:50Z</time>
      </trkpt>
      <trkpt lat="59.917781" lon="17.7206619">
        <ele>46.7612</ele>
        <time>2013-05-19T12:02:51Z</time>
      </trkpt>
      <trkpt lat="59.9178083" lon="17.7206268">
        <ele>46.2806</ele>
        <time>2013-05-19T12:02:52Z</time>
      </trkpt>
      <trkpt lat="59.9178301" lon="17.7205992">
        <ele>45.7999</ele>
        <time>2013-05-19T12:02:53Z</time>
      </trkpt>
      <trkpt lat="59.9178527" lon="17.7205749">
        <ele>45.7999</ele>
        <time>2013-05-19T12:02:54Z</time>
      </trkpt>
      <trkpt lat="59.9178823" lon="17.7205484">
        <ele>44.8386</ele>
        <time>2013-05-19T12:02:55Z</time>
      </trkpt>
      <trkpt lat="59.9179129" lon="17.7205179">
        <ele>44.8386</ele>
        <time>2013-05-19T12:02:56Z</time>
      </trkpt>
      <trkpt lat="59.9179451" lon="17.7204921">
        <ele>44.358</ele>
        <time>2013-05-19T12:02:57Z</time>
      </trkpt>
      <trkpt lat="59.9179825" lon="17.7204723">
        <ele>43.8773</ele>
        <time>2013-05-19T12:02:58Z</time>
      </trkpt>
      <trkpt lat="59.9180098" lon="17.7204495">
        <ele>42.916</ele>
        <time>2013-05-19T12:02:59Z</time>
      </trkpt>
      <trkpt lat="59.9180317" lon="17.7204215">
        <ele>42.4354</ele>
        <time>2013-05-19T12:03:00Z</time>
      </trkpt>
      <trkpt lat="59.9180564" lon="17.7203908">
        <ele>41.9547</ele>
        <time>2013-05-19T12:03:01Z</time>
      </trkpt>
      <trkpt lat="59.9180808" lon="17.7203546">
        <ele>41.474</ele>
        <time>2013-05-19T12:03:02Z</time>
      </trkpt>
      <trkpt lat="59.9181061" lon="17.7203176">
        <ele>40.5128</ele>
        <time>2013-05-19T12:03:03Z</time>
      </trkpt>
      <trkpt lat="59.9181353" lon="17.720276">
        <ele>40.0321</ele>
        <time>2013-05-19T12:03:04Z</time>
      </trkpt>
      <trkpt lat="59.9181738" lon="17.7202388">
        <ele>39.0707</ele>
        <time>2013-05-19T12:03:05Z</time>
      </trkpt>
      <trkpt lat="59.918207" lon="17.7202086">
        <ele>38.5901</ele>
        <time>2013-05-19T12:03:06Z</time>
      </trkpt>
      <trkpt lat="59.9182306" lon="17.7201753">
        <ele>38.1094</ele>
        <time>2013-05-19T12:03:07Z</time>
      </trkpt>
      <trkpt lat="59.9182522" lon="17.7201371">
        <ele>37.1481</ele>
        <time>2013-05-19T12:03:08Z</time>
      </trkpt>
      <trkpt lat="59.9182712" lon="17.7200935">
        <ele>36.1868</ele>
        <time>2013-05-19T12:03:09Z</time>
      </trkpt>
      <trkpt lat="59.9182911" lon="17.7200502">
        <ele>35.7061</ele>
        <time>2013-05-19T12:03:10Z</time>
      </trkpt>
      <trkpt lat="59.9183138" lon="17.7200057">
        <ele>35.2255</ele>
        <time>2013-05-19T12:03:11Z</time>
      </trkpt>
      <trkpt lat="59.918336" lon="17.719963">
        <ele>35.2255</ele>
        <time>2013-05-19T12:03:12Z</time>
      </trkpt>
      <trkpt lat="59.9183578" lon="17.7199164">
        <ele>35.2255</ele>
        <time>2013-05-19T12:03:13Z</time>
      </trkpt>
      <trkpt lat="59.9183771" lon="17.7198719">
        <ele>35.2255</ele>
        <time>2013-05-19T12:03:14Z</time>
      </trkpt>
      <trkpt lat="59.9183963" lon="17.7198265">
        <ele>34.7449</ele>
        <time>2013-05-19T12:03:15Z</time>
      </trkpt>
      <trkpt lat="59.9184174" lon="17.7197807">
        <ele>34.7449</ele>
        <time>2013-05-19T12:03:16Z</time>
      </trkpt>
      <trkpt lat="59.9184367" lon="17.7197306">
        <ele>34.2642</ele>
        <time>2013-05-19T12:03:17Z</time>
      </trkpt>
      <trkpt lat="59.9184572" lon="17.7196822">
        <ele>34.2642</ele>
        <time>2013-05-19T12:03:18Z</time>
      </trkpt>
      <trkpt lat="59.9184753" lon="17.7196331">
        <ele>33.7834</ele>
        <time>2013-05-19T12:03:19Z</time>
      </trkpt>
      <trkpt lat="59.9184956" lon="17.7195876">
        <ele>34.7449</ele>
        <time>2013-05-19T12:03:20Z</time>
      </trkpt>
      <trkpt lat="59.9185138" lon="17.7195471">
        <ele>35.2255</ele>
        <time>2013-05-19T12:03:21Z</time>
      </trkpt>
      <trkpt lat="59.918533" lon="17.7195091">
        <ele>35.2255</ele>
        <time>2013-05-19T12:03:22Z</time>
      </trkpt>
      <trkpt lat="59.9185548" lon="17.7194673">
        <ele>35.2255</ele>
        <time>2013-05-19T12:03:23Z</time>
      </trkpt>
      <trkpt lat="59.918576" lon="17.719427">
        <ele>35.2255</ele>
        <time>2013-05-19T12:03:24Z</time>
      </trkpt>
      <trkpt lat="59.9185966" lon="17.7193875">
        <ele>35.2255</ele>
        <time>2013-05-19T12:03:25Z</time>
      </trkpt>
      <trkpt lat="59.9186123" lon="17.7193406">
        <ele>35.2255</ele>
        <time>2013-05-19T12:03:26Z</time>
      </trkpt>
      <trkpt lat="59.9186238" lon="17.7192852">
        <ele>34.7449</ele>
        <time>2013-05-19T12:03:27Z</time>
      </trkpt>
      <trkpt lat="59.9186361" lon="17.7192404">
        <ele>34.7449</ele>
        <time>2013-05-19T12:03:28Z</time>
      </trkpt>
      <trkpt lat="59.9186505" lon="17.719196">
        <ele>34.7449</ele>
        <time>2013-05-19T12:03:29Z</time>
      </trkpt>
      <trkpt lat="59.9186702" lon="17.719155">
        <ele>35.2255</ele>
        <time>2013-05-19T12:03:30Z</time>
      </trkpt>
      <trkpt lat="59.9186851" lon="17.7191162">
        <ele>35.2255</ele>
        <time>2013-05-19T12:03:31Z</time>
      </trkpt>
      <trkpt lat="59.9186983" lon="17.71908">
        <ele>35.2255</ele>
        <time>2013-05-19T12:03:32Z</time>
      </trkpt>
      <trkpt lat="59.9187115" lon="17.7190407">
        <ele>34.2642</ele>
        <time>2013-05-19T12:03:33Z</time>
      </trkpt>
      <trkpt lat="59.9187271" lon="17.7190005">
        <ele>34.7449</ele>
        <time>2013-05-19T12:03:34Z</time>
      </trkpt>
      <trkpt lat="59.91874" lon="17.7189659">
        <ele>34.2642</ele>
        <time>2013-05-19T12:03:35Z</time>
      </trkpt>
      <trkpt lat="59.9187533" lon="17.7189281">
        <ele>34.2642</ele>
        <time>2013-05-19T12:03:36Z</time>
      </trkpt>
      <trkpt lat="59.9187692" lon="17.7188858">
        <ele>34.2642</ele>
        <time>2013-05-19T12:03:37Z</time>
      </trkpt>
      <trkpt lat="59.9187842" lon="17.7188411">
        <ele>34.2642</ele>
        <time>2013-05-19T12:03:38Z</time>
      </trkpt>
      <trkpt lat="59.9187976" lon="17.7187928">
        <ele>34.7449</ele>
        <time>2013-05-19T12:03:39Z</time>
      </trkpt>
      <trkpt lat="59.9188097" lon="17.7187482">
        <ele>34.7449</ele>
        <time>2013-05-19T12:03:40Z</time>
      </trkpt>
      <trkpt lat="59.9188211" lon="17.7187055">
        <ele>34.7449</ele>
        <time>2013-05-19T12:03:41Z</time>
      </trkpt>
      <trkpt lat="59.9188392" lon="17.7186675">
        <ele>34.7449</ele>
        <time>2013-05-19T12:03:42Z</time>
      </trkpt>
      <trkpt lat="59.9188496" lon="17.7186278">
        <ele>34.7449</ele>
        <time>2013-05-19T12:03:43Z</time>
      </trkpt>
      <trkpt lat="59.9188619" lon="17.7185993">
        <ele>34.7449</ele>
        <time>2013-05-19T12:03:44Z</time>
      </trkpt>
      <trkpt lat="59.918883" lon="17.7185769">
        <ele>35.2255</ele>
        <time>2013-05-19T12:03:45Z</time>
      </trkpt>
      <trkpt lat="59.918904" lon="17.7185557">
        <ele>34.7449</ele>
        <time>2013-05-19T12:03:46Z</time>
      </trkpt>
      <trkpt lat="59.918926" lon="17.7185389">
        <ele>35.2255</ele>
        <time>2013-05-19T12:03:47Z</time>
      </trkpt>
      <trkpt lat="59.918948" lon="17.7185236">
        <ele>35.2255</ele>
        <time>2013-05-19T12:03:48Z</time>
      </trkpt>
      <trkpt lat="59.9189681" lon="17.7185044">
        <ele>34.7449</ele>
        <time>2013-05-19T12:03:49Z</time>
      </trkpt>
      <trkpt lat="59.9189894" lon="17.7184876">
        <ele>34.7449</ele>
        <time>2013-05-19T12:03:50Z</time>
      </trkpt>
      <trkpt lat="59.9190083" lon="17.71847">
        <ele>34.7449</ele>
        <time>2013-05-19T12:03:51Z</time>
      </trkpt>
      <trkpt lat="59.9190293" lon="17.7184511">
        <ele>34.2642</ele>
        <time>2013-05-19T12:03:52Z</time>
      </trkpt>
      <trkpt lat="59.9190522" lon="17.7184329">
        <ele>34.7449</ele>
        <time>2013-05-19T12:03:53Z</time>
      </trkpt>
      <trkpt lat="59.9190716" lon="17.7184183">
        <ele>34.7449</ele>
        <time>2013-05-19T12:03:54Z</time>
      </trkpt>
      <trkpt lat="59.9190925" lon="17.7184152">
        <ele>34.2642</ele>
        <time>2013-05-19T12:03:55Z</time>
      </trkpt>
      <trkpt lat="59.9191161" lon="17.7184027">
        <ele>34.2642</ele>
        <time>2013-05-19T12:03:56Z</time>
      </trkpt>
      <trkpt lat="59.9191423" lon="17.7183744">
        <ele>35.2255</ele>
        <time>2013-05-19T12:03:57Z</time>
      </trkpt>
      <trkpt lat="59.9191639" lon="17.7183557">
        <ele>35.2255</ele>
        <time>2013-05-19T12:03:58Z</time>
      </trkpt>
      <trkpt lat="59.9191805" lon="17.7183468">
        <ele>34.7449</ele>
        <time>2013-05-19T12:03:59Z</time>
      </trkpt>
      <trkpt lat="59.9192002" lon="17.7183397">
        <ele>34.2642</ele>
        <time>2013-05-19T12:04:00Z</time>
      </trkpt>
      <trkpt lat="59.9192234" lon="17.718336">
        <ele>34.2642</ele>
        <time>2013-05-19T12:04:01Z</time>
      </trkpt>
      <trkpt lat="59.9192463" lon="17.7183293">
        <ele>34.2642</ele>
        <time>2013-05-19T12:04:02Z</time>
      </trkpt>
      <trkpt lat="59.9192656" lon="17.7183189">
        <ele>34.2642</ele>
        <time>2013-05-19T12:04:03Z</time>
      </trkpt>
      <trkpt lat="59.9192871" lon="17.7183122">
        <ele>34.7449</ele>
        <time>2013-05-19T12:04:04Z</time>
      </trkpt>
      <trkpt lat="59.9193085" lon="17.7183018">
        <ele>34.2642</ele>
        <time>2013-05-19T12:04:05Z</time>
      </trkpt>
      <trkpt lat="59.9193323" lon="17.7182853">
        <ele>34.7449</ele>
        <time>2013-05-19T12:04:06Z</time>
      </trkpt>
      <trkpt lat="59.9193575" lon="17.7182682">
        <ele>34.7449</ele>
        <time>2013-05-19T12:04:07Z</time>
      </trkpt>
      <trkpt lat="59.919382" lon="17.7182604">
        <ele>34.7449</ele>
        <time>2013-05-19T12:04:08Z</time>
      </trkpt>
      <trkpt lat="59.9194043" lon="17.7182559">
        <ele>34.7449</ele>
        <time>2013-05-19T12:04:09Z</time>
      </trkpt>
      <trkpt lat="59.9194245" lon="17.7182447">
        <ele>34.7449</ele>
        <time>2013-05-19T12:04:10Z</time>
      </trkpt>
      <trkpt lat="59.9194426" lon="17.7182369">
        <ele>34.7449</ele>
        <time>2013-05-19T12:04:11Z</time>
      </trkpt>
      <trkpt lat="59.9194663" lon="17.7182335">
        <ele>35.2255</ele>
        <time>2013-05-19T12:04:12Z</time>
      </trkpt>
      <trkpt lat="59.9194924" lon="17.7182222">
        <ele>35.2255</ele>
        <time>2013-05-19T12:04:13Z</time>
      </trkpt>
      <trkpt lat="59.9195183" lon="17.7182126">
        <ele>35.2255</ele>
        <time>2013-05-19T12:04:14Z</time>
      </trkpt>
      <trkpt lat="59.9195419" lon="17.7182097">
        <ele>35.7061</ele>
        <time>2013-05-19T12:04:15Z</time>
      </trkpt>
      <trkpt lat="59.9195627" lon="17.7182085">
        <ele>35.7061</ele>
        <time>2013-05-19T12:04:16Z</time>
      </trkpt>
      <trkpt lat="59.9195839" lon="17.7182121">
        <ele>35.2255</ele>
        <time>2013-05-19T12:04:17Z</time>
      </trkpt>
      <trkpt lat="59.9196058" lon="17.71822">
        <ele>35.7061</ele>
        <time>2013-05-19T12:04:18Z</time>
      </trkpt>
      <trkpt lat="59.9196246" lon="17.7182291">
        <ele>35.7061</ele>
        <time>2013-05-19T12:04:19Z</time>
      </trkpt>
      <trkpt lat="59.9196475" lon="17.7182354">
        <ele>35.7061</ele>
        <time>2013-05-19T12:04:20Z</time>
      </trkpt>
      <trkpt lat="59.9196726" lon="17.7182359">
        <ele>35.2255</ele>
        <time>2013-05-19T12:04:21Z</time>
      </trkpt>
      <trkpt lat="59.919699" lon="17.7182299">
        <ele>35.7061</ele>
        <time>2013-05-19T12:04:22Z</time>
      </trkpt>
      <trkpt lat="59.9197239" lon="17.718232">
        <ele>35.2255</ele>
        <time>2013-05-19T12:04:23Z</time>
      </trkpt>
      <trkpt lat="59.9197532" lon="17.7182367">
        <ele>35.7061</ele>
        <time>2013-05-19T12:04:24Z</time>
      </trkpt>
      <trkpt lat="59.9197768" lon="17.7182403">
        <ele>35.2255</ele>
        <time>2013-05-19T12:04:25Z</time>
      </trkpt>
      <trkpt lat="59.9198004" lon="17.718245">
        <ele>35.2255</ele>
        <time>2013-05-19T12:04:26Z</time>
      </trkpt>
      <trkpt lat="59.9198275" lon="17.7182506">
        <ele>35.7061</ele>
        <time>2013-05-19T12:04:27Z</time>
      </trkpt>
      <trkpt lat="59.9198522" lon="17.7182561">
        <ele>35.2255</ele>
        <time>2013-05-19T12:04:28Z</time>
      </trkpt>
      <trkpt lat="59.9198763" lon="17.7182609">
        <ele>34.7449</ele>
        <time>2013-05-19T12:04:29Z</time>
      </trkpt>
      <trkpt lat="59.9199005" lon="17.7182631">
        <ele>34.2642</ele>
        <time>2013-05-19T12:04:30Z</time>
      </trkpt>
      <trkpt lat="59.9199232" lon="17.7182696">
        <ele>34.2642</ele>
        <time>2013-05-19T12:04:31Z</time>
      </trkpt>
      <trkpt lat="59.9199415" lon="17.7182853">
        <ele>34.7449</ele>
        <time>2013-05-19T12:04:32Z</time>
      </trkpt>
      <trkpt lat="59.9199637" lon="17.7182903">
        <ele>34.2642</ele>
        <time>2013-05-19T12:04:33Z</time>
      </trkpt>
      <trkpt lat="59.9199932" lon="17.7182841">
        <ele>34.2642</ele>
        <time>2013-05-19T12:04:34Z</time>
      </trkpt>
      <trkpt lat="59.9200218" lon="17.718279">
        <ele>34.7449</ele>
        <time>2013-05-19T12:04:35Z</time>
      </trkpt>
      <trkpt lat="59.9200444" lon="17.7182815">
        <ele>35.2255</ele>
        <time>2013-05-19T12:04:36Z</time>
      </trkpt>
      <trkpt lat="59.9200643" lon="17.7182972">
        <ele>35.7061</ele>
        <time>2013-05-19T12:04:37Z</time>
      </trkpt>
      <trkpt lat="59.9200891" lon="17.7183015">
        <ele>36.1868</ele>
        <time>2013-05-19T12:04:38Z</time>
      </trkpt>
      <trkpt lat="59.9201181" lon="17.7182999">
        <ele>36.1868</ele>
        <time>2013-05-19T12:04:39Z</time>
      </trkpt>
      <trkpt lat="59.9201428" lon="17.71831">
        <ele>36.1868</ele>
        <time>2013-05-19T12:04:40Z</time>
      </trkpt>
      <trkpt lat="59.9201652" lon="17.7183231">
        <ele>36.6675</ele>
        <time>2013-05-19T12:04:41Z</time>
      </trkpt>
      <trkpt lat="59.9201881" lon="17.7183315">
        <ele>37.1481</ele>
        <time>2013-05-19T12:04:42Z</time>
      </trkpt>
      <trkpt lat="59.9202145" lon="17.71834">
        <ele>37.1481</ele>
        <time>2013-05-19T12:04:43Z</time>
      </trkpt>
      <trkpt lat="59.9202386" lon="17.7183463">
        <ele>37.6287</ele>
        <time>2013-05-19T12:04:44Z</time>
      </trkpt>
      <trkpt lat="59.9202651" lon="17.7183553">
        <ele>38.1094</ele>
        <time>2013-05-19T12:04:45Z</time>
      </trkpt>
      <trkpt lat="59.9202888" lon="17.7183643">
        <ele>38.1094</ele>
        <time>2013-05-19T12:04:46Z</time>
      </trkpt>
      <trkpt lat="59.9203166" lon="17.7183678">
        <ele>38.5901</ele>
        <time>2013-05-19T12:04:47Z</time>
      </trkpt>
      <trkpt lat="59.920344" lon="17.718364">
        <ele>38.5901</ele>
        <time>2013-05-19T12:04:48Z</time>
      </trkpt>
      <trkpt lat="59.9203668" lon="17.7183752">
        <ele>38.5901</ele>
        <time>2013-05-19T12:04:49Z</time>
      </trkpt>
      <trkpt lat="59.9203867" lon="17.7183925">
        <ele>38.5901</ele>
        <time>2013-05-19T12:04:50Z</time>
      </trkpt>
      <trkpt lat="59.9204071" lon="17.7183997">
        <ele>38.5901</ele>
        <time>2013-05-19T12:04:51Z</time>
      </trkpt>
      <trkpt lat="59.9204318" lon="17.7184028">
        <ele>38.5901</ele>
        <time>2013-05-19T12:04:52Z</time>
      </trkpt>
      <trkpt lat="59.9204547" lon="17.7184108">
        <ele>37.6287</ele>
        <time>2013-05-19T12:04:53Z</time>
      </trkpt>
      <trkpt lat="59.920478" lon="17.7184173">
        <ele>37.6287</ele>
        <time>2013-05-19T12:04:54Z</time>
      </trkpt>
      <trkpt lat="59.9205017" lon="17.71842">
        <ele>37.6287</ele>
        <time>2013-05-19T12:04:55Z</time>
      </trkpt>
      <trkpt lat="59.9205254" lon="17.7184267">
        <ele>37.6287</ele>
        <time>2013-05-19T12:04:56Z</time>
      </trkpt>
      <trkpt lat="59.9205451" lon="17.7184364">
        <ele>37.6287</ele>
        <time>2013-05-19T12:04:57Z</time>
      </trkpt>
      <trkpt lat="59.9205619" lon="17.7184426">
        <ele>37.1481</ele>
        <time>2013-05-19T12:04:58Z</time>
      </trkpt>
      <trkpt lat="59.9205796" lon="17.7184526">
        <ele>37.1481</ele>
        <time>2013-05-19T12:04:59Z</time>
      </trkpt>
      <trkpt lat="59.9205994" lon="17.718466">
        <ele>36.6675</ele>
        <time>2013-05-19T12:05:00Z</time>
      </trkpt>
      <trkpt lat="59.9206242" lon="17.7184692">
        <ele>36.6675</ele>
        <time>2013-05-19T12:05:01Z</time>
      </trkpt>
      <trkpt lat="59.9206483" lon="17.7184669">
        <ele>36.6675</ele>
        <time>2013-05-19T12:05:02Z</time>
      </trkpt>
      <trkpt lat="59.920672" lon="17.7184656">
        <ele>36.6675</ele>
        <time>2013-05-19T12:05:03Z</time>
      </trkpt>
      <trkpt lat="59.92069" lon="17.7184574">
        <ele>36.6675</ele>
        <time>2013-05-19T12:05:04Z</time>
      </trkpt>
      <trkpt lat="59.9207053" lon="17.7184495">
        <ele>37.1481</ele>
        <time>2013-05-19T12:05:05Z</time>
      </trkpt>
      <trkpt lat="59.9207252" lon="17.7184542">
        <ele>37.1481</ele>
        <time>2013-05-19T12:05:06Z</time>
      </trkpt>
      <trkpt lat="59.9207494" lon="17.7184583">
        <ele>37.6287</ele>
        <time>2013-05-19T12:05:07Z</time>
      </trkpt>
      <trkpt lat="59.9207732" lon="17.7184582">
        <ele>37.6287</ele>
        <time>2013-05-19T12:05:08Z</time>
      </trkpt>
      <trkpt lat="59.9207989" lon="17.7184626">
        <ele>38.1094</ele>
        <time>2013-05-19T12:05:09Z</time>
      </trkpt>
      <trkpt lat="59.9208278" lon="17.7184724">
        <ele>38.5901</ele>
        <time>2013-05-19T12:05:10Z</time>
      </trkpt>
      <trkpt lat="59.9208525" lon="17.7184765">
        <ele>38.5901</ele>
        <time>2013-05-19T12:05:11Z</time>
      </trkpt>
      <trkpt lat="59.9208756" lon="17.718474">
        <ele>38.5901</ele>
        <time>2013-05-19T12:05:12Z</time>
      </trkpt>
      <trkpt lat="59.9209019" lon="17.7184688">
        <ele>38.5901</ele>
        <time>2013-05-19T12:05:13Z</time>
      </trkpt>
      <trkpt lat="59.9209253" lon="17.7184639">
        <ele>39.0707</ele>
        <time>2013-05-19T12:05:14Z</time>
      </trkpt>
      <trkpt lat="59.9209485" lon="17.718455">
        <ele>39.5513</ele>
        <time>2013-05-19T12:05:15Z</time>
      </trkpt>
      <trkpt lat="59.9209716" lon="17.71845">
        <ele>39.5513</ele>
        <time>2013-05-19T12:05:16Z</time>
      </trkpt>
      <trkpt lat="59.9209951" lon="17.7184436">
        <ele>39.5513</ele>
        <time>2013-05-19T12:05:17Z</time>
      </trkpt>
      <trkpt lat="59.9210194" lon="17.7184332">
        <ele>39.0707</ele>
        <time>2013-05-19T12:05:18Z</time>
      </trkpt>
      <trkpt lat="59.9210458" lon="17.7184241">
        <ele>39.5513</ele>
        <time>2013-05-19T12:05:19Z</time>
      </trkpt>
      <trkpt lat="59.9210644" lon="17.7184152">
        <ele>39.0707</ele>
        <time>2013-05-19T12:05:20Z</time>
      </trkpt>
      <trkpt lat="59.9210852" lon="17.7183997">
        <ele>39.0707</ele>
        <time>2013-05-19T12:05:21Z</time>
      </trkpt>
      <trkpt lat="59.9211106" lon="17.7183853">
        <ele>39.0707</ele>
        <time>2013-05-19T12:05:22Z</time>
      </trkpt>
      <trkpt lat="59.9211412" lon="17.7183661">
        <ele>39.0707</ele>
        <time>2013-05-19T12:05:23Z</time>
      </trkpt>
      <trkpt lat="59.9211711" lon="17.7183402">
        <ele>39.0707</ele>
        <time>2013-05-19T12:05:24Z</time>
      </trkpt>
      <trkpt lat="59.9212023" lon="17.7183142">
        <ele>39.5513</ele>
        <time>2013-05-19T12:05:25Z</time>
      </trkpt>
      <trkpt lat="59.921235" lon="17.7182878">
        <ele>39.5513</ele>
        <time>2013-05-19T12:05:26Z</time>
      </trkpt>
      <trkpt lat="59.921262" lon="17.718263">
        <ele>39.5513</ele>
        <time>2013-05-19T12:05:27Z</time>
      </trkpt>
      <trkpt lat="59.9212855" lon="17.7182465">
        <ele>39.5513</ele>
        <time>2013-05-19T12:05:28Z</time>
      </trkpt>
      <trkpt lat="59.921307" lon="17.7182449">
        <ele>39.0707</ele>
        <time>2013-05-19T12:05:29Z</time>
      </trkpt>
      <trkpt lat="59.9213282" lon="17.7182457">
        <ele>39.0707</ele>
        <time>2013-05-19T12:05:30Z</time>
      </trkpt>
      <trkpt lat="59.9213457" lon="17.7182411">
        <ele>38.5901</ele>
        <time>2013-05-19T12:05:31Z</time>
      </trkpt>
      <trkpt lat="59.9213644" lon="17.7182392">
        <ele>38.1094</ele>
        <time>2013-05-19T12:05:32Z</time>
      </trkpt>
      <trkpt lat="59.9213852" lon="17.7182338">
        <ele>38.5901</ele>
        <time>2013-05-19T12:05:33Z</time>
      </trkpt>
      <trkpt lat="59.9214033" lon="17.7182246">
        <ele>38.5901</ele>
        <time>2013-05-19T12:05:34Z</time>
      </trkpt>
      <trkpt lat="59.9214256" lon="17.7182158">
        <ele>38.5901</ele>
        <time>2013-05-19T12:05:35Z</time>
      </trkpt>
      <trkpt lat="59.9214498" lon="17.7182048">
        <ele>38.5901</ele>
        <time>2013-05-19T12:05:36Z</time>
      </trkpt>
      <trkpt lat="59.9214678" lon="17.718196">
        <ele>38.1094</ele>
        <time>2013-05-19T12:05:37Z</time>
      </trkpt>
      <trkpt lat="59.9214857" lon="17.7181843">
        <ele>38.1094</ele>
        <time>2013-05-19T12:05:38Z</time>
      </trkpt>
      <trkpt lat="59.9215091" lon="17.7181701">
        <ele>38.5901</ele>
        <time>2013-05-19T12:05:39Z</time>
      </trkpt>
      <trkpt lat="59.9215348" lon="17.7181548">
        <ele>38.5901</ele>
        <time>2013-05-19T12:05:40Z</time>
      </trkpt>
      <trkpt lat="59.9215567" lon="17.7181439">
        <ele>39.0707</ele>
        <time>2013-05-19T12:05:41Z</time>
      </trkpt>
      <trkpt lat="59.9215778" lon="17.7181366">
        <ele>39.0707</ele>
        <time>2013-05-19T12:05:42Z</time>
      </trkpt>
      <trkpt lat="59.9216005" lon="17.7181321">
        <ele>39.5513</ele>
        <time>2013-05-19T12:05:43Z</time>
      </trkpt>
      <trkpt lat="59.9216198" lon="17.7181242">
        <ele>39.5513</ele>
        <time>2013-05-19T12:05:44Z</time>
      </trkpt>
      <trkpt lat="59.9216438" lon="17.7181081">
        <ele>40.0321</ele>
        <time>2013-05-19T12:05:45Z</time>
      </trkpt>
      <trkpt lat="59.9216696" lon="17.7180991">
        <ele>40.5128</ele>
        <time>2013-05-19T12:05:46Z</time>
      </trkpt>
      <trkpt lat="59.9216865" lon="17.7180981">
        <ele>39.5513</ele>
        <time>2013-05-19T12:05:47Z</time>
      </trkpt>
      <trkpt lat="59.9217074" lon="17.718094">
        <ele>40.0321</ele>
        <time>2013-05-19T12:05:48Z</time>
      </trkpt>
      <trkpt lat="59.9217313" lon="17.7180874">
        <ele>40.5128</ele>
        <time>2013-05-19T12:05:49Z</time>
      </trkpt>
      <trkpt lat="59.921755" lon="17.7180784">
        <ele>40.0321</ele>
        <time>2013-05-19T12:05:50Z</time>
      </trkpt>
      <trkpt lat="59.9217747" lon="17.7180655">
        <ele>40.0321</ele>
        <time>2013-05-19T12:05:51Z</time>
      </trkpt>
      <trkpt lat="59.9217952" lon="17.7180495">
        <ele>40.0321</ele>
        <time>2013-05-19T12:05:52Z</time>
      </trkpt>
      <trkpt lat="59.9218156" lon="17.7180334">
        <ele>40.0321</ele>
        <time>2013-05-19T12:05:53Z</time>
      </trkpt>
      <trkpt lat="59.9218352" lon="17.7180175">
        <ele>40.0321</ele>
        <time>2013-05-19T12:05:54Z</time>
      </trkpt>
      <trkpt lat="59.921854" lon="17.7180097">
        <ele>40.0321</ele>
        <time>2013-05-19T12:05:55Z</time>
      </trkpt>
      <trkpt lat="59.9218752" lon="17.7179973">
        <ele>39.5513</ele>
        <time>2013-05-19T12:05:56Z</time>
      </trkpt>
      <trkpt lat="59.9218994" lon="17.7179823">
        <ele>40.0321</ele>
        <time>2013-05-19T12:05:57Z</time>
      </trkpt>
      <trkpt lat="59.9219299" lon="17.7179812">
        <ele>40.9934</ele>
        <time>2013-05-19T12:05:58Z</time>
      </trkpt>
      <trkpt lat="59.9219586" lon="17.7179712">
        <ele>40.9934</ele>
        <time>2013-05-19T12:05:59Z</time>
      </trkpt>
      <trkpt lat="59.9219788" lon="17.7179471">
        <ele>40.9934</ele>
        <time>2013-05-19T12:06:00Z</time>
      </trkpt>
      <trkpt lat="59.9219949" lon="17.7179186">
        <ele>40.9934</ele>
        <time>2013-05-19T12:06:01Z</time>
      </trkpt>
      <trkpt lat="59.9220404" lon="17.7178709">
        <ele>40.9934</ele>
        <time>2013-05-19T12:06:03Z</time>
      </trkpt>
      <trkpt lat="59.9220668" lon="17.7178357">
        <ele>41.474</ele>
        <time>2013-05-19T12:06:04Z</time>
      </trkpt>
      <trkpt lat="59.9220877" lon="17.7178135">
        <ele>41.9547</ele>
        <time>2013-05-19T12:06:05Z</time>
      </trkpt>
      <trkpt lat="59.922113" lon="17.717802">
        <ele>42.4354</ele>
        <time>2013-05-19T12:06:06Z</time>
      </trkpt>
      <trkpt lat="59.9221366" lon="17.7177925">
        <ele>42.916</ele>
        <time>2013-05-19T12:06:07Z</time>
      </trkpt>
      <trkpt lat="59.9221584" lon="17.7177765">
        <ele>42.916</ele>
        <time>2013-05-19T12:06:08Z</time>
      </trkpt>
      <trkpt lat="59.9221801" lon="17.7177606">
        <ele>42.4354</ele>
        <time>2013-05-19T12:06:09Z</time>
      </trkpt>
      <trkpt lat="59.9222005" lon="17.7177455">
        <ele>42.4354</ele>
        <time>2013-05-19T12:06:10Z</time>
      </trkpt>
      <trkpt lat="59.9222182" lon="17.7177331">
        <ele>42.4354</ele>
        <time>2013-05-19T12:06:11Z</time>
      </trkpt>
      <trkpt lat="59.9222369" lon="17.7177149">
        <ele>42.916</ele>
        <time>2013-05-19T12:06:12Z</time>
      </trkpt>
      <trkpt lat="59.9222571" lon="17.7176999">
        <ele>42.916</ele>
        <time>2013-05-19T12:06:13Z</time>
      </trkpt>
      <trkpt lat="59.9222746" lon="17.7176875">
        <ele>42.4354</ele>
        <time>2013-05-19T12:06:14Z</time>
      </trkpt>
      <trkpt lat="59.9222921" lon="17.7176664">
        <ele>42.4354</ele>
        <time>2013-05-19T12:06:15Z</time>
      </trkpt>
      <trkpt lat="59.9223146" lon="17.7176319">
        <ele>42.916</ele>
        <time>2013-05-19T12:06:16Z</time>
      </trkpt>
      <trkpt lat="59.9223391" lon="17.7175963">
        <ele>43.3966</ele>
        <time>2013-05-19T12:06:17Z</time>
      </trkpt>
      <trkpt lat="59.922357" lon="17.7175773">
        <ele>43.3966</ele>
        <time>2013-05-19T12:06:18Z</time>
      </trkpt>
      <trkpt lat="59.9223752" lon="17.7175636">
        <ele>43.3966</ele>
        <time>2013-05-19T12:06:19Z</time>
      </trkpt>
      <trkpt lat="59.9223911" lon="17.7175506">
        <ele>43.3966</ele>
        <time>2013-05-19T12:06:20Z</time>
      </trkpt>
      <trkpt lat="59.9224068" lon="17.7175306">
        <ele>43.3966</ele>
        <time>2013-05-19T12:06:21Z</time>
      </trkpt>
      <trkpt lat="59.9224208" lon="17.717512">
        <ele>42.916</ele>
        <time>2013-05-19T12:06:22Z</time>
      </trkpt>
      <trkpt lat="59.9224362" lon="17.7174891">
        <ele>42.916</ele>
        <time>2013-05-19T12:06:23Z</time>
      </trkpt>
      <trkpt lat="59.9224497" lon="17.7174668">
        <ele>42.916</ele>
        <time>2013-05-19T12:06:24Z</time>
      </trkpt>
      <trkpt lat="59.9224689" lon="17.7174407">
        <ele>43.3966</ele>
        <time>2013-05-19T12:06:25Z</time>
      </trkpt>
      <trkpt lat="59.9224876" lon="17.7174031">
        <ele>42.916</ele>
        <time>2013-05-19T12:06:26Z</time>
      </trkpt>
      <trkpt lat="59.9225046" lon="17.717372">
        <ele>42.916</ele>
        <time>2013-05-19T12:06:27Z</time>
      </trkpt>
      <trkpt lat="59.9225205" lon="17.7173524">
        <ele>42.916</ele>
        <time>2013-05-19T12:06:28Z</time>
      </trkpt>
      <trkpt lat="59.9225351" lon="17.7173373">
        <ele>42.916</ele>
        <time>2013-05-19T12:06:29Z</time>
      </trkpt>
      <trkpt lat="59.9225491" lon="17.7173212">
        <ele>42.4354</ele>
        <time>2013-05-19T12:06:30Z</time>
      </trkpt>
      <trkpt lat="59.9225673" lon="17.7173022">
        <ele>42.4354</ele>
        <time>2013-05-19T12:06:31Z</time>
      </trkpt>
      <trkpt lat="59.9225828" lon="17.7172938">
        <ele>42.4354</ele>
        <time>2013-05-19T12:06:32Z</time>
      </trkpt>
      <trkpt lat="59.9225977" lon="17.7172866">
        <ele>42.4354</ele>
        <time>2013-05-19T12:06:33Z</time>
      </trkpt>
      <trkpt lat="59.9226124" lon="17.7172736">
        <ele>42.4354</ele>
        <time>2013-05-19T12:06:34Z</time>
      </trkpt>
      <trkpt lat="59.9226282" lon="17.7172629">
        <ele>42.916</ele>
        <time>2013-05-19T12:06:35Z</time>
      </trkpt>
      <trkpt lat="59.9226481" lon="17.7172565">
        <ele>43.3966</ele>
        <time>2013-05-19T12:06:36Z</time>
      </trkpt>
      <trkpt lat="59.9226666" lon="17.7172561">
        <ele>43.3966</ele>
        <time>2013-05-19T12:06:37Z</time>
      </trkpt>
      <trkpt lat="59.9226853" lon="17.7172489">
        <ele>42.916</ele>
        <time>2013-05-19T12:06:38Z</time>
      </trkpt>
      <trkpt lat="59.9227128" lon="17.7172478">
        <ele>43.3966</ele>
        <time>2013-05-19T12:06:39Z</time>
      </trkpt>
      <trkpt lat="59.9227439" lon="17.7172471">
        <ele>44.358</ele>
        <time>2013-05-19T12:06:40Z</time>
      </trkpt>
      <trkpt lat="59.9227741" lon="17.7172492">
        <ele>45.3192</ele>
        <time>2013-05-19T12:06:41Z</time>
      </trkpt>
      <trkpt lat="59.9227977" lon="17.7172571">
        <ele>45.7999</ele>
        <time>2013-05-19T12:06:42Z</time>
      </trkpt>
      <trkpt lat="59.9228169" lon="17.7172658">
        <ele>45.3192</ele>
        <time>2013-05-19T12:06:43Z</time>
      </trkpt>
      <trkpt lat="59.9228395" lon="17.7172664">
        <ele>45.7999</ele>
        <time>2013-05-19T12:06:44Z</time>
      </trkpt>
      <trkpt lat="59.9228652" lon="17.717269">
        <ele>46.2806</ele>
        <time>2013-05-19T12:06:45Z</time>
      </trkpt>
      <trkpt lat="59.9228843" lon="17.717274">
        <ele>46.7612</ele>
        <time>2013-05-19T12:06:46Z</time>
      </trkpt>
      <trkpt lat="59.9229024" lon="17.7172736">
        <ele>47.2418</ele>
        <time>2013-05-19T12:06:47Z</time>
      </trkpt>
      <trkpt lat="59.9229276" lon="17.7172778">
        <ele>48.2034</ele>
        <time>2013-05-19T12:06:48Z</time>
      </trkpt>
      <trkpt lat="59.9229481" lon="17.7172817">
        <ele>48.684</ele>
        <time>2013-05-19T12:06:49Z</time>
      </trkpt>
      <trkpt lat="59.9229739" lon="17.717288">
        <ele>50.126</ele>
        <time>2013-05-19T12:06:50Z</time>
      </trkpt>
      <trkpt lat="59.9230037" lon="17.7172845">
        <ele>51.5679</ele>
        <time>2013-05-19T12:06:51Z</time>
      </trkpt>
      <trkpt lat="59.9230448" lon="17.7172834">
        <ele>53.4905</ele>
        <time>2013-05-19T12:06:52Z</time>
      </trkpt>
      <trkpt lat="59.9230841" lon="17.7172928">
        <ele>54.4518</ele>
        <time>2013-05-19T12:06:53Z</time>
      </trkpt>
      <trkpt lat="59.9231172" lon="17.7173011">
        <ele>54.9324</ele>
        <time>2013-05-19T12:06:54Z</time>
      </trkpt>
      <trkpt lat="59.9231438" lon="17.7173048">
        <ele>55.4131</ele>
        <time>2013-05-19T12:06:55Z</time>
      </trkpt>
      <trkpt lat="59.923166" lon="17.7173079">
        <ele>55.8938</ele>
        <time>2013-05-19T12:06:56Z</time>
      </trkpt>
      <trkpt lat="59.9231879" lon="17.7173115">
        <ele>55.4131</ele>
        <time>2013-05-19T12:06:57Z</time>
      </trkpt>
      <trkpt lat="59.9232073" lon="17.717315">
        <ele>55.4131</ele>
        <time>2013-05-19T12:06:58Z</time>
      </trkpt>
      <trkpt lat="59.9232355" lon="17.7173172">
        <ele>55.4131</ele>
        <time>2013-05-19T12:06:59Z</time>
      </trkpt>
      <trkpt lat="59.9232537" lon="17.7173237">
        <ele>54.4518</ele>
        <time>2013-05-19T12:07:00Z</time>
      </trkpt>
      <trkpt lat="59.9232723" lon="17.7173332">
        <ele>53.9712</ele>
        <time>2013-05-19T12:07:01Z</time>
      </trkpt>
      <trkpt lat="59.9232988" lon="17.7173389">
        <ele>54.4518</ele>
        <time>2013-05-19T12:07:02Z</time>
      </trkpt>
      <trkpt lat="59.9233204" lon="17.7173364">
        <ele>53.9712</ele>
        <time>2013-05-19T12:07:03Z</time>
      </trkpt>
      <trkpt lat="59.9233438" lon="17.7173399">
        <ele>54.4518</ele>
        <time>2013-05-19T12:07:04Z</time>
      </trkpt>
      <trkpt lat="59.9233655" lon="17.7173437">
        <ele>53.9712</ele>
        <time>2013-05-19T12:07:05Z</time>
      </trkpt>
      <trkpt lat="59.9233938" lon="17.7173586">
        <ele>54.9324</ele>
        <time>2013-05-19T12:07:06Z</time>
      </trkpt>
      <trkpt lat="59.9234169" lon="17.7173724">
        <ele>56.3745</ele>
        <time>2013-05-19T12:07:07Z</time>
      </trkpt>
      <trkpt lat="59.9234383" lon="17.7173768">
        <ele>56.3745</ele>
        <time>2013-05-19T12:07:08Z</time>
      </trkpt>
      <trkpt lat="59.923453" lon="17.7173783">
        <ele>55.8938</ele>
        <time>2013-05-19T12:07:09Z</time>
      </trkpt>
      <trkpt lat="59.9234701" lon="17.7173891">
        <ele>55.8938</ele>
        <time>2013-05-19T12:07:10Z</time>
      </trkpt>
      <trkpt lat="59.9234896" lon="17.7174117">
        <ele>56.3745</ele>
        <time>2013-05-19T12:07:11Z</time>
      </trkpt>
      <trkpt lat="59.9235143" lon="17.7174218">
        <ele>57.8165</ele>
        <time>2013-05-19T12:07:12Z</time>
      </trkpt>
      <trkpt lat="59.9235416" lon="17.7174336">
        <ele>57.8165</ele>
        <time>2013-05-19T12:07:13Z</time>
      </trkpt>
      <trkpt lat="59.9235738" lon="17.7174528">
        <ele>58.2971</ele>
        <time>2013-05-19T12:07:14Z</time>
      </trkpt>
      <trkpt lat="59.9236048" lon="17.7174742">
        <ele>58.2971</ele>
        <time>2013-05-19T12:07:15Z</time>
      </trkpt>
      <trkpt lat="59.923622" lon="17.7175015">
        <ele>57.3358</ele>
        <time>2013-05-19T12:07:16Z</time>
      </trkpt>
      <trkpt lat="59.9236421" lon="17.7175267">
        <ele>56.8551</ele>
        <time>2013-05-19T12:07:17Z</time>
      </trkpt>
      <trkpt lat="59.9236602" lon="17.7175529">
        <ele>56.3745</ele>
        <time>2013-05-19T12:07:18Z</time>
      </trkpt>
      <trkpt lat="59.9236731" lon="17.7175751">
        <ele>55.8938</ele>
        <time>2013-05-19T12:07:19Z</time>
      </trkpt>
      <trkpt lat="59.9236835" lon="17.7175993">
        <ele>54.9324</ele>
        <time>2013-05-19T12:07:20Z</time>
      </trkpt>
      <trkpt lat="59.9236945" lon="17.7176336">
        <ele>54.9324</ele>
        <time>2013-05-19T12:07:21Z</time>
      </trkpt>
      <trkpt lat="59.9236958" lon="17.7176746">
        <ele>53.9712</ele>
        <time>2013-05-19T12:07:22Z</time>
      </trkpt>
      <trkpt lat="59.9236904" lon="17.7177239">
        <ele>53.0098</ele>
        <time>2013-05-19T12:07:23Z</time>
      </trkpt>
      <trkpt lat="59.9237023" lon="17.71776">
        <ele>53.0098</ele>
        <time>2013-05-19T12:07:24Z</time>
      </trkpt>
      <trkpt lat="59.9237119" lon="17.7177881">
        <ele>52.0486</ele>
        <time>2013-05-19T12:07:25Z</time>
      </trkpt>
      <trkpt lat="59.9237177" lon="17.717835">
        <ele>52.0486</ele>
        <time>2013-05-19T12:07:26Z</time>
      </trkpt>
      <trkpt lat="59.9237203" lon="17.7178754">
        <ele>51.5679</ele>
        <time>2013-05-19T12:07:27Z</time>
      </trkpt>
      <trkpt lat="59.9237302" lon="17.7179013">
        <ele>51.5679</ele>
        <time>2013-05-19T12:07:28Z</time>
      </trkpt>
      <trkpt lat="59.9237452" lon="17.7179382">
        <ele>51.0872</ele>
        <time>2013-05-19T12:07:29Z</time>
      </trkpt>
      <trkpt lat="59.9237578" lon="17.7179759">
        <ele>50.6066</ele>
        <time>2013-05-19T12:07:30Z</time>
      </trkpt>
      <trkpt lat="59.9237714" lon="17.7180074">
        <ele>50.6066</ele>
        <time>2013-05-19T12:07:31Z</time>
      </trkpt>
      <trkpt lat="59.9237846" lon="17.7180347">
        <ele>50.126</ele>
        <time>2013-05-19T12:07:32Z</time>
      </trkpt>
      <trkpt lat="59.9237992" lon="17.718059">
        <ele>49.6453</ele>
        <time>2013-05-19T12:07:33Z</time>
      </trkpt>
      <trkpt lat="59.923824" lon="17.7180838">
        <ele>50.6066</ele>
        <time>2013-05-19T12:07:34Z</time>
      </trkpt>
      <trkpt lat="59.9238448" lon="17.7181028">
        <ele>50.6066</ele>
        <time>2013-05-19T12:07:35Z</time>
      </trkpt>
      <trkpt lat="59.9238628" lon="17.7181343">
        <ele>50.126</ele>
        <time>2013-05-19T12:07:36Z</time>
      </trkpt>
      <trkpt lat="59.9238882" lon="17.7181739">
        <ele>51.5679</ele>
        <time>2013-05-19T12:07:37Z</time>
      </trkpt>
      <trkpt lat="59.9239126" lon="17.7182055">
        <ele>53.4905</ele>
        <time>2013-05-19T12:07:38Z</time>
      </trkpt>
      <trkpt lat="59.9239311" lon="17.7182314">
        <ele>54.4518</ele>
        <time>2013-05-19T12:07:39Z</time>
      </trkpt>
      <trkpt lat="59.9239497" lon="17.7182511">
        <ele>54.9324</ele>
        <time>2013-05-19T12:07:40Z</time>
      </trkpt>
      <trkpt lat="59.9239691" lon="17.7182557">
        <ele>55.4131</ele>
        <time>2013-05-19T12:07:41Z</time>
      </trkpt>
      <trkpt lat="59.923987" lon="17.7182587">
        <ele>54.9324</ele>
        <time>2013-05-19T12:07:42Z</time>
      </trkpt>
      <trkpt lat="59.9240076" lon="17.7182484">
        <ele>54.4518</ele>
        <time>2013-05-19T12:07:43Z</time>
      </trkpt>
      <trkpt lat="59.9240213" lon="17.7182319">
        <ele>53.0098</ele>
        <time>2013-05-19T12:07:44Z</time>
      </trkpt>
      <trkpt lat="59.9240399" lon="17.7182186">
        <ele>52.5292</ele>
        <time>2013-05-19T12:07:45Z</time>
      </trkpt>
      <trkpt lat="59.9240655" lon="17.7182029">
        <ele>52.5292</ele>
        <time>2013-05-19T12:07:46Z</time>
      </trkpt>
      <trkpt lat="59.924085" lon="17.7181837">
        <ele>51.0872</ele>
        <time>2013-05-19T12:07:47Z</time>
      </trkpt>
      <trkpt lat="59.9241099" lon="17.7181574">
        <ele>50.6066</ele>
        <time>2013-05-19T12:07:48Z</time>
      </trkpt>
      <trkpt lat="59.9241393" lon="17.7181344">
        <ele>50.6066</ele>
        <time>2013-05-19T12:07:49Z</time>
      </trkpt>
      <trkpt lat="59.924166" lon="17.7181163">
        <ele>51.0872</ele>
        <time>2013-05-19T12:07:50Z</time>
      </trkpt>
      <trkpt lat="59.9241893" lon="17.7180962">
        <ele>50.6066</ele>
        <time>2013-05-19T12:07:51Z</time>
      </trkpt>
      <trkpt lat="59.9242092" lon="17.7180817">
        <ele>50.126</ele>
        <time>2013-05-19T12:07:52Z</time>
      </trkpt>
      <trkpt lat="59.924224" lon="17.7180696">
        <ele>49.6453</ele>
        <time>2013-05-19T12:07:53Z</time>
      </trkpt>
      <trkpt lat="59.9242431" lon="17.718045">
        <ele>49.6453</ele>
        <time>2013-05-19T12:07:54Z</time>
      </trkpt>
      <trkpt lat="59.9242688" lon="17.7180144">
        <ele>50.126</ele>
        <time>2013-05-19T12:07:55Z</time>
      </trkpt>
      <trkpt lat="59.9242872" lon="17.7179786">
        <ele>50.126</ele>
        <time>2013-05-19T12:07:56Z</time>
      </trkpt>
      <trkpt lat="59.9243046" lon="17.7179363">
        <ele>50.126</ele>
        <time>2013-05-19T12:07:57Z</time>
      </trkpt>
      <trkpt lat="59.9243222" lon="17.7179014">
        <ele>49.1646</ele>
        <time>2013-05-19T12:07:58Z</time>
      </trkpt>
      <trkpt lat="59.9243378" lon="17.7178691">
        <ele>49.1646</ele>
        <time>2013-05-19T12:07:59Z</time>
      </trkpt>
      <trkpt lat="59.9243539" lon="17.7178367">
        <ele>49.1646</ele>
        <time>2013-05-19T12:08:00Z</time>
      </trkpt>
      <trkpt lat="59.9243646" lon="17.7177984">
        <ele>48.2034</ele>
        <time>2013-05-19T12:08:01Z</time>
      </trkpt>
      <trkpt lat="59.9243773" lon="17.7177751">
        <ele>47.7225</ele>
        <time>2013-05-19T12:08:02Z</time>
      </trkpt>
      <trkpt lat="59.9244011" lon="17.7177458">
        <ele>48.2034</ele>
        <time>2013-05-19T12:08:03Z</time>
      </trkpt>
      <trkpt lat="59.9244217" lon="17.7177153">
        <ele>48.684</ele>
        <time>2013-05-19T12:08:04Z</time>
      </trkpt>
      <trkpt lat="59.9244369" lon="17.7176933">
        <ele>49.1646</ele>
        <time>2013-05-19T12:08:05Z</time>
      </trkpt>
      <trkpt lat="59.9244491" lon="17.7176736">
        <ele>49.1646</ele>
        <time>2013-05-19T12:08:06Z</time>
      </trkpt>
      <trkpt lat="59.9244626" lon="17.7176471">
        <ele>48.684</ele>
        <time>2013-05-19T12:08:07Z</time>
      </trkpt>
      <trkpt lat="59.924488" lon="17.7176208">
        <ele>49.6453</ele>
        <time>2013-05-19T12:08:08Z</time>
      </trkpt>
      <trkpt lat="59.9245058" lon="17.7175994">
        <ele>48.684</ele>
        <time>2013-05-19T12:08:09Z</time>
      </trkpt>
      <trkpt lat="59.9245274" lon="17.7175771">
        <ele>49.1646</ele>
        <time>2013-05-19T12:08:10Z</time>
      </trkpt>
      <trkpt lat="59.9245476" lon="17.7175466">
        <ele>48.2034</ele>
        <time>2013-05-19T12:08:11Z</time>
      </trkpt>
      <trkpt lat="59.9245645" lon="17.7175243">
        <ele>48.2034</ele>
        <time>2013-05-19T12:08:12Z</time>
      </trkpt>
      <trkpt lat="59.9245778" lon="17.7174968">
        <ele>47.2418</ele>
        <time>2013-05-19T12:08:13Z</time>
      </trkpt>
      <trkpt lat="59.9245949" lon="17.7174732">
        <ele>46.7612</ele>
        <time>2013-05-19T12:08:14Z</time>
      </trkpt>
      <trkpt lat="59.924615" lon="17.7174371">
        <ele>46.2806</ele>
        <time>2013-05-19T12:08:15Z</time>
      </trkpt>
      <trkpt lat="59.9246386" lon="17.7173979">
        <ele>46.2806</ele>
        <time>2013-05-19T12:08:16Z</time>
      </trkpt>
      <trkpt lat="59.9246565" lon="17.7173597">
        <ele>45.7999</ele>
        <time>2013-05-19T12:08:17Z</time>
      </trkpt>
      <trkpt lat="59.9246705" lon="17.7173192">
        <ele>45.3192</ele>
        <time>2013-05-19T12:08:18Z</time>
      </trkpt>
      <trkpt lat="59.9246822" lon="17.7172843">
        <ele>44.8386</ele>
        <time>2013-05-19T12:08:19Z</time>
      </trkpt>
      <trkpt lat="59.9246971" lon="17.7172432">
        <ele>44.8386</ele>
        <time>2013-05-19T12:08:20Z</time>
      </trkpt>
      <trkpt lat="59.9247121" lon="17.7172142">
        <ele>44.8386</ele>
        <time>2013-05-19T12:08:21Z</time>
      </trkpt>
      <trkpt lat="59.9247206" lon="17.7171825">
        <ele>43.8773</ele>
        <time>2013-05-19T12:08:22Z</time>
      </trkpt>
      <trkpt lat="59.9247294" lon="17.7171513">
        <ele>43.3966</ele>
        <time>2013-05-19T12:08:23Z</time>
      </trkpt>
      <trkpt lat="59.9247432" lon="17.717123">
        <ele>42.916</ele>
        <time>2013-05-19T12:08:24Z</time>
      </trkpt>
      <trkpt lat="59.9247611" lon="17.7170975">
        <ele>42.916</ele>
        <time>2013-05-19T12:08:25Z</time>
      </trkpt>
      <trkpt lat="59.9247761" lon="17.7170741">
        <ele>43.3966</ele>
        <time>2013-05-19T12:08:26Z</time>
      </trkpt>
      <trkpt lat="59.9247921" lon="17.7170653">
        <ele>43.8773</ele>
        <time>2013-05-19T12:08:27Z</time>
      </trkpt>
      <trkpt lat="59.9248077" lon="17.7170643">
        <ele>43.3966</ele>
        <time>2013-05-19T12:08:28Z</time>
      </trkpt>
      <trkpt lat="59.9248217" lon="17.7170488">
        <ele>42.4354</ele>
        <time>2013-05-19T12:08:29Z</time>
      </trkpt>
      <trkpt lat="59.924836" lon="17.7170363">
        <ele>42.4354</ele>
        <time>2013-05-19T12:08:30Z</time>
      </trkpt>
      <trkpt lat="59.9248518" lon="17.7170104">
        <ele>42.4354</ele>
        <time>2013-05-19T12:08:31Z</time>
      </trkpt>
      <trkpt lat="59.9248696" lon="17.7169902">
        <ele>42.4354</ele>
        <time>2013-05-19T12:08:32Z</time>
      </trkpt>
      <trkpt lat="59.9248889" lon="17.7169668">
        <ele>42.916</ele>
        <time>2013-05-19T12:08:33Z</time>
      </trkpt>
      <trkpt lat="59.9249061" lon="17.7169466">
        <ele>41.9547</ele>
        <time>2013-05-19T12:08:34Z</time>
      </trkpt>
      <trkpt lat="59.9249264" lon="17.7169328">
        <ele>41.474</ele>
        <time>2013-05-19T12:08:35Z</time>
      </trkpt>
      <trkpt lat="59.9249511" lon="17.7169173">
        <ele>40.5128</ele>
        <time>2013-05-19T12:08:36Z</time>
      </trkpt>
      <trkpt lat="59.9249738" lon="17.7168995">
        <ele>40.0321</ele>
        <time>2013-05-19T12:08:37Z</time>
      </trkpt>
      <trkpt lat="59.9249936" lon="17.7168773">
        <ele>39.5513</ele>
        <time>2013-05-19T12:08:38Z</time>
      </trkpt>
      <trkpt lat="59.9250106" lon="17.7168507">
        <ele>39.0707</ele>
        <time>2013-05-19T12:08:39Z</time>
      </trkpt>
      <trkpt lat="59.9250226" lon="17.7168126">
        <ele>38.1094</ele>
        <time>2013-05-19T12:08:40Z</time>
      </trkpt>
      <trkpt lat="59.9250339" lon="17.7167741">
        <ele>37.1481</ele>
        <time>2013-05-19T12:08:41Z</time>
      </trkpt>
      <trkpt lat="59.9250449" lon="17.7167298">
        <ele>36.6675</ele>
        <time>2013-05-19T12:08:42Z</time>
      </trkpt>
      <trkpt lat="59.9250522" lon="17.7166837">
        <ele>36.1868</ele>
        <time>2013-05-19T12:08:43Z</time>
      </trkpt>
      <trkpt lat="59.9250531" lon="17.7166369">
        <ele>36.1868</ele>
        <time>2013-05-19T12:08:44Z</time>
      </trkpt>
      <trkpt lat="59.9250507" lon="17.7165941">
        <ele>36.1868</ele>
        <time>2013-05-19T12:08:45Z</time>
      </trkpt>
      <trkpt lat="59.9250429" lon="17.7165541">
        <ele>35.7061</ele>
        <time>2013-05-19T12:08:46Z</time>
      </trkpt>
      <trkpt lat="59.9250318" lon="17.7165088">
        <ele>36.1868</ele>
        <time>2013-05-19T12:08:47Z</time>
      </trkpt>
      <trkpt lat="59.9250189" lon="17.7164638">
        <ele>36.1868</ele>
        <time>2013-05-19T12:08:48Z</time>
      </trkpt>
      <trkpt lat="59.925003" lon="17.7164171">
        <ele>36.6675</ele>
        <time>2013-05-19T12:08:49Z</time>
      </trkpt>
      <trkpt lat="59.9249836" lon="17.7163724">
        <ele>36.6675</ele>
        <time>2013-05-19T12:08:50Z</time>
      </trkpt>
      <trkpt lat="59.9249656" lon="17.7163329">
        <ele>37.1481</ele>
        <time>2013-05-19T12:08:51Z</time>
      </trkpt>
      <trkpt lat="59.9249437" lon="17.7163161">
        <ele>36.6675</ele>
        <time>2013-05-19T12:08:52Z</time>
      </trkpt>
      <trkpt lat="59.9249181" lon="17.7163008">
        <ele>35.7061</ele>
        <time>2013-05-19T12:08:53Z</time>
      </trkpt>
      <trkpt lat="59.9248993" lon="17.7162853">
        <ele>35.2255</ele>
        <time>2013-05-19T12:08:54Z</time>
      </trkpt>
      <trkpt lat="59.9248831" lon="17.7162644">
        <ele>34.7449</ele>
        <time>2013-05-19T12:08:55Z</time>
      </trkpt>
      <trkpt lat="59.9248639" lon="17.7162392">
        <ele>34.2642</ele>
        <time>2013-05-19T12:08:56Z</time>
      </trkpt>
      <trkpt lat="59.9248444" lon="17.7162175">
        <ele>33.7834</ele>
        <time>2013-05-19T12:08:57Z</time>
      </trkpt>
      <trkpt lat="59.924828" lon="17.7161976">
        <ele>33.7834</ele>
        <time>2013-05-19T12:08:58Z</time>
      </trkpt>
      <trkpt lat="59.9248134" lon="17.7161866">
        <ele>33.3029</ele>
        <time>2013-05-19T12:08:59Z</time>
      </trkpt>
      <trkpt lat="59.9247998" lon="17.7161598">
        <ele>33.3029</ele>
        <time>2013-05-19T12:09:00Z</time>
      </trkpt>
      <trkpt lat="59.9247807" lon="17.7161283">
        <ele>32.3416</ele>
        <time>2013-05-19T12:09:01Z</time>
      </trkpt>
      <trkpt lat="59.9247611" lon="17.716097">
        <ele>32.3416</ele>
        <time>2013-05-19T12:09:02Z</time>
      </trkpt>
      <trkpt lat="59.9247448" lon="17.7160614">
        <ele>31.8607</ele>
        <time>2013-05-19T12:09:03Z</time>
      </trkpt>
      <trkpt lat="59.9247319" lon="17.7160246">
        <ele>31.3801</ele>
        <time>2013-05-19T12:09:04Z</time>
      </trkpt>
      <trkpt lat="59.9247197" lon="17.7159913">
        <ele>30.8995</ele>
        <time>2013-05-19T12:09:05Z</time>
      </trkpt>
      <trkpt lat="59.924707" lon="17.7159597">
        <ele>30.4188</ele>
        <time>2013-05-19T12:09:06Z</time>
      </trkpt>
      <trkpt lat="59.9246931" lon="17.7159326">
        <ele>30.4188</ele>
        <time>2013-05-19T12:09:07Z</time>
      </trkpt>
      <trkpt lat="59.9246771" lon="17.7159053">
        <ele>29.9381</ele>
        <time>2013-05-19T12:09:08Z</time>
      </trkpt>
      <trkpt lat="59.9246624" lon="17.7158792">
        <ele>29.9381</ele>
        <time>2013-05-19T12:09:09Z</time>
      </trkpt>
      <trkpt lat="59.9246507" lon="17.7158542">
        <ele>28.9769</ele>
        <time>2013-05-19T12:09:10Z</time>
      </trkpt>
      <trkpt lat="59.9246324" lon="17.7158295">
        <ele>28.4962</ele>
        <time>2013-05-19T12:09:11Z</time>
      </trkpt>
      <trkpt lat="59.9246116" lon="17.715806">
        <ele>28.4962</ele>
        <time>2013-05-19T12:09:12Z</time>
      </trkpt>
      <trkpt lat="59.9245914" lon="17.7157874">
        <ele>28.0155</ele>
        <time>2013-05-19T12:09:13Z</time>
      </trkpt>
      <trkpt lat="59.9245668" lon="17.7157651">
        <ele>28.4962</ele>
        <time>2013-05-19T12:09:14Z</time>
      </trkpt>
      <trkpt lat="59.9245427" lon="17.7157527">
        <ele>28.4962</ele>
        <time>2013-05-19T12:09:15Z</time>
      </trkpt>
      <trkpt lat="59.9245216" lon="17.7157346">
        <ele>28.4962</ele>
        <time>2013-05-19T12:09:16Z</time>
      </trkpt>
      <trkpt lat="59.924501" lon="17.7157103">
        <ele>28.9769</ele>
        <time>2013-05-19T12:09:17Z</time>
      </trkpt>
      <trkpt lat="59.9244889" lon="17.7156952">
        <ele>28.9769</ele>
        <time>2013-05-19T12:09:18Z</time>
      </trkpt>
      <trkpt lat="59.9244803" lon="17.7156729">
        <ele>29.4575</ele>
        <time>2013-05-19T12:09:19Z</time>
      </trkpt>
      <trkpt lat="59.9244668" lon="17.7156479">
        <ele>28.9769</ele>
        <time>2013-05-19T12:09:20Z</time>
      </trkpt>
      <trkpt lat="59.9244471" lon="17.7156273">
        <ele>28.9769</ele>
        <time>2013-05-19T12:09:21Z</time>
      </trkpt>
      <trkpt lat="59.9244189" lon="17.715609">
        <ele>28.9769</ele>
        <time>2013-05-19T12:09:22Z</time>
      </trkpt>
      <trkpt lat="59.9243851" lon="17.7155982">
        <ele>29.4575</ele>
        <time>2013-05-19T12:09:23Z</time>
      </trkpt>
      <trkpt lat="59.9243554" lon="17.7155853">
        <ele>29.4575</ele>
        <time>2013-05-19T12:09:24Z</time>
      </trkpt>
      <trkpt lat="59.9243337" lon="17.7155631">
        <ele>29.4575</ele>
        <time>2013-05-19T12:09:25Z</time>
      </trkpt>
      <trkpt lat="59.9243164" lon="17.7155443">
        <ele>28.9769</ele>
        <time>2013-05-19T12:09:26Z</time>
      </trkpt>
      <trkpt lat="59.9242939" lon="17.7155273">
        <ele>28.9769</ele>
        <time>2013-05-19T12:09:27Z</time>
      </trkpt>
      <trkpt lat="59.9242696" lon="17.7155051">
        <ele>28.9769</ele>
        <time>2013-05-19T12:09:28Z</time>
      </trkpt>
      <trkpt lat="59.9242501" lon="17.7154842">
        <ele>29.4575</ele>
        <time>2013-05-19T12:09:29Z</time>
      </trkpt>
      <trkpt lat="59.9242336" lon="17.7154643">
        <ele>29.9381</ele>
        <time>2013-05-19T12:09:30Z</time>
      </trkpt>
      <trkpt lat="59.9242146" lon="17.715436">
        <ele>29.4575</ele>
        <time>2013-05-19T12:09:31Z</time>
      </trkpt>
      <trkpt lat="59.9241908" lon="17.7154181">
        <ele>29.9381</ele>
        <time>2013-05-19T12:09:32Z</time>
      </trkpt>
      <trkpt lat="59.9241643" lon="17.7154109">
        <ele>29.9381</ele>
        <time>2013-05-19T12:09:33Z</time>
      </trkpt>
      <trkpt lat="59.9241389" lon="17.7154119">
        <ele>29.9381</ele>
        <time>2013-05-19T12:09:34Z</time>
      </trkpt>
      <trkpt lat="59.9241177" lon="17.7154139">
        <ele>30.4188</ele>
        <time>2013-05-19T12:09:35Z</time>
      </trkpt>
      <trkpt lat="59.9240983" lon="17.7154055">
        <ele>30.4188</ele>
        <time>2013-05-19T12:09:36Z</time>
      </trkpt>
      <trkpt lat="59.9240799" lon="17.7153879">
        <ele>30.4188</ele>
        <time>2013-05-19T12:09:37Z</time>
      </trkpt>
      <trkpt lat="59.9240673" lon="17.7153708">
        <ele>30.8995</ele>
        <time>2013-05-19T12:09:38Z</time>
      </trkpt>
      <trkpt lat="59.9240514" lon="17.7153531">
        <ele>30.8995</ele>
        <time>2013-05-19T12:09:39Z</time>
      </trkpt>
      <trkpt lat="59.924027" lon="17.7153336">
        <ele>30.4188</ele>
        <time>2013-05-19T12:09:40Z</time>
      </trkpt>
      <trkpt lat="59.9240016" lon="17.7153086">
        <ele>30.8995</ele>
        <time>2013-05-19T12:09:41Z</time>
      </trkpt>
      <trkpt lat="59.9239852" lon="17.7152818">
        <ele>31.3801</ele>
        <time>2013-05-19T12:09:42Z</time>
      </trkpt>
      <trkpt lat="59.9239646" lon="17.7152449">
        <ele>31.8607</ele>
        <time>2013-05-19T12:09:43Z</time>
      </trkpt>
      <trkpt lat="59.9239467" lon="17.7152145">
        <ele>32.8223</ele>
        <time>2013-05-19T12:09:44Z</time>
      </trkpt>
      <trkpt lat="59.9239318" lon="17.7151858">
        <ele>34.2642</ele>
        <time>2013-05-19T12:09:45Z</time>
      </trkpt>
      <trkpt lat="59.9239161" lon="17.7151498">
        <ele>35.2255</ele>
        <time>2013-05-19T12:09:46Z</time>
      </trkpt>
      <trkpt lat="59.9239002" lon="17.7151178">
        <ele>35.7061</ele>
        <time>2013-05-19T12:09:47Z</time>
      </trkpt>
      <trkpt lat="59.9238768" lon="17.7150778">
        <ele>35.7061</ele>
        <time>2013-05-19T12:09:48Z</time>
      </trkpt>
      <trkpt lat="59.9238548" lon="17.7150353">
        <ele>36.1868</ele>
        <time>2013-05-19T12:09:49Z</time>
      </trkpt>
      <trkpt lat="59.9238349" lon="17.715004">
        <ele>36.1868</ele>
        <time>2013-05-19T12:09:50Z</time>
      </trkpt>
      <trkpt lat="59.9238192" lon="17.7149792">
        <ele>36.1868</ele>
        <time>2013-05-19T12:09:51Z</time>
      </trkpt>
      <trkpt lat="59.9238043" lon="17.714955">
        <ele>36.1868</ele>
        <time>2013-05-19T12:09:52Z</time>
      </trkpt>
      <trkpt lat="59.9237919" lon="17.7149254">
        <ele>36.1868</ele>
        <time>2013-05-19T12:09:53Z</time>
      </trkpt>
      <trkpt lat="59.9237805" lon="17.7148966">
        <ele>36.6675</ele>
        <time>2013-05-19T12:09:54Z</time>
      </trkpt>
      <trkpt lat="59.9237659" lon="17.7148622">
        <ele>36.1868</ele>
        <time>2013-05-19T12:09:55Z</time>
      </trkpt>
      <trkpt lat="59.9237462" lon="17.7148215">
        <ele>35.7061</ele>
        <time>2013-05-19T12:09:56Z</time>
      </trkpt>
      <trkpt lat="59.9237338" lon="17.7147842">
        <ele>35.7061</ele>
        <time>2013-05-19T12:09:57Z</time>
      </trkpt>
      <trkpt lat="59.9237261" lon="17.7147495">
        <ele>36.1868</ele>
        <time>2013-05-19T12:09:58Z</time>
      </trkpt>
      <trkpt lat="59.9237171" lon="17.714714">
        <ele>36.1868</ele>
        <time>2013-05-19T12:09:59Z</time>
      </trkpt>
      <trkpt lat="59.9237116" lon="17.7146749">
        <ele>36.6675</ele>
        <time>2013-05-19T12:10:00Z</time>
      </trkpt>
      <trkpt lat="59.9236999" lon="17.7146448">
        <ele>37.1481</ele>
        <time>2013-05-19T12:10:01Z</time>
      </trkpt>
      <trkpt lat="59.9236855" lon="17.7146143">
        <ele>36.6675</ele>
        <time>2013-05-19T12:10:02Z</time>
      </trkpt>
      <trkpt lat="59.9236742" lon="17.7145759">
        <ele>36.6675</ele>
        <time>2013-05-19T12:10:03Z</time>
      </trkpt>
      <trkpt lat="59.9236598" lon="17.7145327">
        <ele>37.1481</ele>
        <time>2013-05-19T12:10:04Z</time>
      </trkpt>
      <trkpt lat="59.9236412" lon="17.7144976">
        <ele>37.1481</ele>
        <time>2013-05-19T12:10:05Z</time>
      </trkpt>
      <trkpt lat="59.9236231" lon="17.7144687">
        <ele>36.6675</ele>
        <time>2013-05-19T12:10:06Z</time>
      </trkpt>
      <trkpt lat="59.9236129" lon="17.7144389">
        <ele>36.6675</ele>
        <time>2013-05-19T12:10:07Z</time>
      </trkpt>
      <trkpt lat="59.9236052" lon="17.7144084">
        <ele>36.6675</ele>
        <time>2013-05-19T12:10:08Z</time>
      </trkpt>
      <trkpt lat="59.9235928" lon="17.714379">
        <ele>36.1868</ele>
        <time>2013-05-19T12:10:09Z</time>
      </trkpt>
      <trkpt lat="59.9235754" lon="17.7143539">
        <ele>36.6675</ele>
        <time>2013-05-19T12:10:10Z</time>
      </trkpt>
      <trkpt lat="59.9235629" lon="17.7143294">
        <ele>36.6675</ele>
        <time>2013-05-19T12:10:11Z</time>
      </trkpt>
      <trkpt lat="59.9235488" lon="17.7143011">
        <ele>36.6675</ele>
        <time>2013-05-19T12:10:12Z</time>
      </trkpt>
      <trkpt lat="59.9235344" lon="17.7142671">
        <ele>37.1481</ele>
        <time>2013-05-19T12:10:13Z</time>
      </trkpt>
      <trkpt lat="59.9235215" lon="17.7142303">
        <ele>37.6287</ele>
        <time>2013-05-19T12:10:14Z</time>
      </trkpt>
      <trkpt lat="59.9235112" lon="17.7141999">
        <ele>37.6287</ele>
        <time>2013-05-19T12:10:15Z</time>
      </trkpt>
      <trkpt lat="59.9235028" lon="17.7141693">
        <ele>37.1481</ele>
        <time>2013-05-19T12:10:16Z</time>
      </trkpt>
      <trkpt lat="59.9234961" lon="17.7141395">
        <ele>36.6675</ele>
        <time>2013-05-19T12:10:17Z</time>
      </trkpt>
      <trkpt lat="59.9234852" lon="17.7141091">
        <ele>37.1481</ele>
        <time>2013-05-19T12:10:18Z</time>
      </trkpt>
      <trkpt lat="59.9234727" lon="17.7140884">
        <ele>37.1481</ele>
        <time>2013-05-19T12:10:19Z</time>
      </trkpt>
      <trkpt lat="59.9234623" lon="17.7140734">
        <ele>36.6675</ele>
        <time>2013-05-19T12:10:20Z</time>
      </trkpt>
      <trkpt lat="59.9234498" lon="17.7140532">
        <ele>36.1868</ele>
        <time>2013-05-19T12:10:21Z</time>
      </trkpt>
      <trkpt lat="59.9234339" lon="17.7140153">
        <ele>36.1868</ele>
        <time>2013-05-19T12:10:22Z</time>
      </trkpt>
      <trkpt lat="59.9234194" lon="17.7139821">
        <ele>35.7061</ele>
        <time>2013-05-19T12:10:23Z</time>
      </trkpt>
      <trkpt lat="59.9234018" lon="17.7139571">
        <ele>34.7449</ele>
        <time>2013-05-19T12:10:24Z</time>
      </trkpt>
      <trkpt lat="59.9233842" lon="17.7139326">
        <ele>34.2642</ele>
        <time>2013-05-19T12:10:25Z</time>
      </trkpt>
      <trkpt lat="59.9233712" lon="17.7139121">
        <ele>33.7834</ele>
        <time>2013-05-19T12:10:26Z</time>
      </trkpt>
      <trkpt lat="59.9233532" lon="17.7138949">
        <ele>32.8223</ele>
        <time>2013-05-19T12:10:27Z</time>
      </trkpt>
      <trkpt lat="59.9233364" lon="17.7138797">
        <ele>31.8607</ele>
        <time>2013-05-19T12:10:28Z</time>
      </trkpt>
      <trkpt lat="59.923322" lon="17.7138599">
        <ele>30.8995</ele>
        <time>2013-05-19T12:10:29Z</time>
      </trkpt>
      <trkpt lat="59.9233055" lon="17.7138413">
        <ele>29.9381</ele>
        <time>2013-05-19T12:10:30Z</time>
      </trkpt>
      <trkpt lat="59.9232909" lon="17.7138304">
        <ele>28.9769</ele>
        <time>2013-05-19T12:10:31Z</time>
      </trkpt>
      <trkpt lat="59.9232743" lon="17.7138117">
        <ele>28.0155</ele>
        <time>2013-05-19T12:10:32Z</time>
      </trkpt>
      <trkpt lat="59.9232566" lon="17.7137886">
        <ele>27.0543</ele>
        <time>2013-05-19T12:10:33Z</time>
      </trkpt>
      <trkpt lat="59.9232402" lon="17.7137631">
        <ele>26.0929</ele>
        <time>2013-05-19T12:10:34Z</time>
      </trkpt>
      <trkpt lat="59.9232239" lon="17.7137289">
        <ele>25.6123</ele>
        <time>2013-05-19T12:10:35Z</time>
      </trkpt>
      <trkpt lat="59.9232123" lon="17.7136953">
        <ele>25.1317</ele>
        <time>2013-05-19T12:10:36Z</time>
      </trkpt>
      <trkpt lat="59.9232019" lon="17.7136599">
        <ele>25.1317</ele>
        <time>2013-05-19T12:10:37Z</time>
      </trkpt>
      <trkpt lat="59.9231893" lon="17.713632">
        <ele>25.6123</ele>
        <time>2013-05-19T12:10:38Z</time>
      </trkpt>
      <trkpt lat="59.9231766" lon="17.7136103">
        <ele>26.0929</ele>
        <time>2013-05-19T12:10:39Z</time>
      </trkpt>
      <trkpt lat="59.923164" lon="17.7135868">
        <ele>26.5736</ele>
        <time>2013-05-19T12:10:40Z</time>
      </trkpt>
      <trkpt lat="59.9231485" lon="17.7135564">
        <ele>28.0155</ele>
        <time>2013-05-19T12:10:41Z</time>
      </trkpt>
      <trkpt lat="59.9231363" lon="17.7135327">
        <ele>28.0155</ele>
        <time>2013-05-19T12:10:42Z</time>
      </trkpt>
      <trkpt lat="59.9231179" lon="17.7135132">
        <ele>28.4962</ele>
        <time>2013-05-19T12:10:43Z</time>
      </trkpt>
      <trkpt lat="59.9230956" lon="17.7134916">
        <ele>29.4575</ele>
        <time>2013-05-19T12:10:44Z</time>
      </trkpt>
      <trkpt lat="59.9230754" lon="17.7134565">
        <ele>29.4575</ele>
        <time>2013-05-19T12:10:45Z</time>
      </trkpt>
      <trkpt lat="59.9230582" lon="17.713431">
        <ele>29.9381</ele>
        <time>2013-05-19T12:10:46Z</time>
      </trkpt>
      <trkpt lat="59.9230375" lon="17.7134062">
        <ele>29.4575</ele>
        <time>2013-05-19T12:10:47Z</time>
      </trkpt>
      <trkpt lat="59.9230164" lon="17.7133826">
        <ele>29.4575</ele>
        <time>2013-05-19T12:10:48Z</time>
      </trkpt>
      <trkpt lat="59.9229946" lon="17.7133652">
        <ele>29.4575</ele>
        <time>2013-05-19T12:10:49Z</time>
      </trkpt>
      <trkpt lat="59.9229729" lon="17.713347">
        <ele>28.9769</ele>
        <time>2013-05-19T12:10:50Z</time>
      </trkpt>
      <trkpt lat="59.9229546" lon="17.7133196">
        <ele>28.9769</ele>
        <time>2013-05-19T12:10:51Z</time>
      </trkpt>
      <trkpt lat="59.92294" lon="17.7132923">
        <ele>28.9769</ele>
        <time>2013-05-19T12:10:52Z</time>
      </trkpt>
      <trkpt lat="59.9229216" lon="17.713272">
        <ele>29.9381</ele>
        <time>2013-05-19T12:10:53Z</time>
      </trkpt>
      <trkpt lat="59.9229051" lon="17.7132455">
        <ele>30.4188</ele>
        <time>2013-05-19T12:10:54Z</time>
      </trkpt>
      <trkpt lat="59.9228903" lon="17.7132233">
        <ele>31.8607</ele>
        <time>2013-05-19T12:10:55Z</time>
      </trkpt>
      <trkpt lat="59.9228765" lon="17.7132">
        <ele>32.8223</ele>
        <time>2013-05-19T12:10:56Z</time>
      </trkpt>
      <trkpt lat="59.922862" lon="17.7131763">
        <ele>34.2642</ele>
        <time>2013-05-19T12:10:57Z</time>
      </trkpt>
      <trkpt lat="59.9228478" lon="17.713144">
        <ele>35.2255</ele>
        <time>2013-05-19T12:10:58Z</time>
      </trkpt>
      <trkpt lat="59.9228299" lon="17.7131114">
        <ele>35.7061</ele>
        <time>2013-05-19T12:10:59Z</time>
      </trkpt>
      <trkpt lat="59.9228112" lon="17.7130845">
        <ele>36.1868</ele>
        <time>2013-05-19T12:11:00Z</time>
      </trkpt>
      <trkpt lat="59.922789" lon="17.7130539">
        <ele>36.1868</ele>
        <time>2013-05-19T12:11:01Z</time>
      </trkpt>
      <trkpt lat="59.922761" lon="17.7130341">
        <ele>36.6675</ele>
        <time>2013-05-19T12:11:02Z</time>
      </trkpt>
      <trkpt lat="59.9227362" lon="17.7130171">
        <ele>37.6287</ele>
        <time>2013-05-19T12:11:03Z</time>
      </trkpt>
      <trkpt lat="59.9227162" lon="17.7129913">
        <ele>37.6287</ele>
        <time>2013-05-19T12:11:04Z</time>
      </trkpt>
      <trkpt lat="59.9226962" lon="17.7129652">
        <ele>37.6287</ele>
        <time>2013-05-19T12:11:05Z</time>
      </trkpt>
      <trkpt lat="59.9226771" lon="17.7129343">
        <ele>38.1094</ele>
        <time>2013-05-19T12:11:06Z</time>
      </trkpt>
      <trkpt lat="59.9226637" lon="17.7129009">
        <ele>38.1094</ele>
        <time>2013-05-19T12:11:07Z</time>
      </trkpt>
      <trkpt lat="59.9226526" lon="17.7128622">
        <ele>38.5901</ele>
        <time>2013-05-19T12:11:08Z</time>
      </trkpt>
      <trkpt lat="59.9226456" lon="17.7128281">
        <ele>38.5901</ele>
        <time>2013-05-19T12:11:09Z</time>
      </trkpt>
      <trkpt lat="59.9226376" lon="17.7127912">
        <ele>38.5901</ele>
        <time>2013-05-19T12:11:10Z</time>
      </trkpt>
      <trkpt lat="59.9226301" lon="17.7127571">
        <ele>39.0707</ele>
        <time>2013-05-19T12:11:11Z</time>
      </trkpt>
      <trkpt lat="59.9226249" lon="17.7127219">
        <ele>39.5513</ele>
        <time>2013-05-19T12:11:12Z</time>
      </trkpt>
      <trkpt lat="59.922624" lon="17.7126898">
        <ele>39.5513</ele>
        <time>2013-05-19T12:11:13Z</time>
      </trkpt>
      <trkpt lat="59.9226209" lon="17.7126545">
        <ele>39.0707</ele>
        <time>2013-05-19T12:11:14Z</time>
      </trkpt>
      <trkpt lat="59.9226258" lon="17.7126176">
        <ele>39.0707</ele>
        <time>2013-05-19T12:11:15Z</time>
      </trkpt>
      <trkpt lat="59.922637" lon="17.7125783">
        <ele>38.5901</ele>
        <time>2013-05-19T12:11:16Z</time>
      </trkpt>
      <trkpt lat="59.9226474" lon="17.7125495">
        <ele>39.0707</ele>
        <time>2013-05-19T12:11:17Z</time>
      </trkpt>
      <trkpt lat="59.9226564" lon="17.7125208">
        <ele>39.0707</ele>
        <time>2013-05-19T12:11:18Z</time>
      </trkpt>
      <trkpt lat="59.9226639" lon="17.7124929">
        <ele>38.1094</ele>
        <time>2013-05-19T12:11:19Z</time>
      </trkpt>
      <trkpt lat="59.9226733" lon="17.7124649">
        <ele>38.1094</ele>
        <time>2013-05-19T12:11:20Z</time>
      </trkpt>
      <trkpt lat="59.9226859" lon="17.7124405">
        <ele>37.6287</ele>
        <time>2013-05-19T12:11:21Z</time>
      </trkpt>
      <trkpt lat="59.9226953" lon="17.7124212">
        <ele>36.6675</ele>
        <time>2013-05-19T12:11:22Z</time>
      </trkpt>
      <trkpt lat="59.9227071" lon="17.7124074">
        <ele>36.6675</ele>
        <time>2013-05-19T12:11:23Z</time>
      </trkpt>
      <trkpt lat="59.9227226" lon="17.7123928">
        <ele>36.1868</ele>
        <time>2013-05-19T12:11:24Z</time>
      </trkpt>
      <trkpt lat="59.9227356" lon="17.7123732">
        <ele>35.7061</ele>
        <time>2013-05-19T12:11:25Z</time>
      </trkpt>
      <trkpt lat="59.9227506" lon="17.7123477">
        <ele>35.7061</ele>
        <time>2013-05-19T12:11:26Z</time>
      </trkpt>
      <trkpt lat="59.9227672" lon="17.7123199">
        <ele>35.7061</ele>
        <time>2013-05-19T12:11:27Z</time>
      </trkpt>
      <trkpt lat="59.9227838" lon="17.7122893">
        <ele>35.7061</ele>
        <time>2013-05-19T12:11:28Z</time>
      </trkpt>
      <trkpt lat="59.9227988" lon="17.7122514">
        <ele>35.7061</ele>
        <time>2013-05-19T12:11:29Z</time>
      </trkpt>
      <trkpt lat="59.9228144" lon="17.7122117">
        <ele>36.1868</ele>
        <time>2013-05-19T12:11:30Z</time>
      </trkpt>
      <trkpt lat="59.9228283" lon="17.712172">
        <ele>36.1868</ele>
        <time>2013-05-19T12:11:31Z</time>
      </trkpt>
      <trkpt lat="59.9228423" lon="17.7121344">
        <ele>36.1868</ele>
        <time>2013-05-19T12:11:32Z</time>
      </trkpt>
      <trkpt lat="59.9228551" lon="17.7120964">
        <ele>36.1868</ele>
        <time>2013-05-19T12:11:33Z</time>
      </trkpt>
      <trkpt lat="59.9228691" lon="17.7120587">
        <ele>36.1868</ele>
        <time>2013-05-19T12:11:34Z</time>
      </trkpt>
      <trkpt lat="59.9228796" lon="17.7120195">
        <ele>35.7061</ele>
        <time>2013-05-19T12:11:35Z</time>
      </trkpt>
      <trkpt lat="59.9228883" lon="17.7119764">
        <ele>35.7061</ele>
        <time>2013-05-19T12:11:36Z</time>
      </trkpt>
      <trkpt lat="59.9228989" lon="17.7119314">
        <ele>36.1868</ele>
        <time>2013-05-19T12:11:37Z</time>
      </trkpt>
      <trkpt lat="59.9229091" lon="17.7118827">
        <ele>35.7061</ele>
        <time>2013-05-19T12:11:38Z</time>
      </trkpt>
      <trkpt lat="59.9229158" lon="17.7118303">
        <ele>35.7061</ele>
        <time>2013-05-19T12:11:39Z</time>
      </trkpt>
      <trkpt lat="59.9229236" lon="17.711779">
        <ele>35.2255</ele>
        <time>2013-05-19T12:11:40Z</time>
      </trkpt>
      <trkpt lat="59.9229349" lon="17.7117299">
        <ele>35.2255</ele>
        <time>2013-05-19T12:11:41Z</time>
      </trkpt>
      <trkpt lat="59.9229454" lon="17.7116976">
        <ele>35.2255</ele>
        <time>2013-05-19T12:11:42Z</time>
      </trkpt>
      <trkpt lat="59.9229512" lon="17.7116558">
        <ele>35.7061</ele>
        <time>2013-05-19T12:11:43Z</time>
      </trkpt>
      <trkpt lat="59.9229573" lon="17.7116079">
        <ele>36.1868</ele>
        <time>2013-05-19T12:11:44Z</time>
      </trkpt>
      <trkpt lat="59.9229604" lon="17.7115651">
        <ele>36.6675</ele>
        <time>2013-05-19T12:11:45Z</time>
      </trkpt>
      <trkpt lat="59.9229656" lon="17.7115253">
        <ele>36.1868</ele>
        <time>2013-05-19T12:11:46Z</time>
      </trkpt>
      <trkpt lat="59.9229691" lon="17.7114823">
        <ele>36.6675</ele>
        <time>2013-05-19T12:11:47Z</time>
      </trkpt>
      <trkpt lat="59.9229688" lon="17.7114396">
        <ele>36.6675</ele>
        <time>2013-05-19T12:11:48Z</time>
      </trkpt>
      <trkpt lat="59.9229748" lon="17.7113936">
        <ele>37.1481</ele>
        <time>2013-05-19T12:11:49Z</time>
      </trkpt>
      <trkpt lat="59.9229823" lon="17.7113539">
        <ele>37.1481</ele>
        <time>2013-05-19T12:11:50Z</time>
      </trkpt>
      <trkpt lat="59.9229894" lon="17.711316">
        <ele>36.6675</ele>
        <time>2013-05-19T12:11:51Z</time>
      </trkpt>
      <trkpt lat="59.9229999" lon="17.7112798">
        <ele>36.6675</ele>
        <time>2013-05-19T12:11:52Z</time>
      </trkpt>
      <trkpt lat="59.9230079" lon="17.7112443">
        <ele>36.6675</ele>
        <time>2013-05-19T12:11:53Z</time>
      </trkpt>
      <trkpt lat="59.9230143" lon="17.7112159">
        <ele>36.6675</ele>
        <time>2013-05-19T12:11:54Z</time>
      </trkpt>
      <trkpt lat="59.923021" lon="17.7111861">
        <ele>36.6675</ele>
        <time>2013-05-19T12:11:55Z</time>
      </trkpt>
      <trkpt lat="59.9230289" lon="17.7111513">
        <ele>36.6675</ele>
        <time>2013-05-19T12:11:56Z</time>
      </trkpt>
      <trkpt lat="59.9230279" lon="17.711113">
        <ele>35.7061</ele>
        <time>2013-05-19T12:11:57Z</time>
      </trkpt>
      <trkpt lat="59.9230148" lon="17.711068">
        <ele>35.2255</ele>
        <time>2013-05-19T12:11:58Z</time>
      </trkpt>
      <trkpt lat="59.9230029" lon="17.7110145">
        <ele>34.7449</ele>
        <time>2013-05-19T12:11:59Z</time>
      </trkpt>
      <trkpt lat="59.9229816" lon="17.7109631">
        <ele>34.2642</ele>
        <time>2013-05-19T12:12:00Z</time>
      </trkpt>
      <trkpt lat="59.9229522" lon="17.7109253">
        <ele>33.7834</ele>
        <time>2013-05-19T12:12:01Z</time>
      </trkpt>
      <trkpt lat="59.922935" lon="17.7108918">
        <ele>33.3029</ele>
        <time>2013-05-19T12:12:02Z</time>
      </trkpt>
      <trkpt lat="59.9229284" lon="17.7108468">
        <ele>32.8223</ele>
        <time>2013-05-19T12:12:03Z</time>
      </trkpt>
      <trkpt lat="59.9229299" lon="17.7108">
        <ele>31.8607</ele>
        <time>2013-05-19T12:12:04Z</time>
      </trkpt>
      <trkpt lat="59.922933" lon="17.7107589">
        <ele>30.8995</ele>
        <time>2013-05-19T12:12:05Z</time>
      </trkpt>
      <trkpt lat="59.9229302" lon="17.7107287">
        <ele>30.8995</ele>
        <time>2013-05-19T12:12:06Z</time>
      </trkpt>
      <trkpt lat="59.9229349" lon="17.7106911">
        <ele>30.4188</ele>
        <time>2013-05-19T12:12:07Z</time>
      </trkpt>
      <trkpt lat="59.9229409" lon="17.7106437">
        <ele>29.9381</ele>
        <time>2013-05-19T12:12:08Z</time>
      </trkpt>
      <trkpt lat="59.9229454" lon="17.7105897">
        <ele>29.9381</ele>
        <time>2013-05-19T12:12:09Z</time>
      </trkpt>
      <trkpt lat="59.9229484" lon="17.7105455">
        <ele>28.9769</ele>
        <time>2013-05-19T12:12:10Z</time>
      </trkpt>
      <trkpt lat="59.9229583" lon="17.7105067">
        <ele>28.4962</ele>
        <time>2013-05-19T12:12:11Z</time>
      </trkpt>
      <trkpt lat="59.9229635" lon="17.710467">
        <ele>28.0155</ele>
        <time>2013-05-19T12:12:12Z</time>
      </trkpt>
      <trkpt lat="59.9229641" lon="17.7104312">
        <ele>27.5349</ele>
        <time>2013-05-19T12:12:13Z</time>
      </trkpt>
      <trkpt lat="59.922965" lon="17.7103844">
        <ele>27.0543</ele>
        <time>2013-05-19T12:12:14Z</time>
      </trkpt>
      <trkpt lat="59.9229578" lon="17.710337">
        <ele>26.5736</ele>
        <time>2013-05-19T12:12:15Z</time>
      </trkpt>
      <trkpt lat="59.922951" lon="17.7102889">
        <ele>26.0929</ele>
        <time>2013-05-19T12:12:16Z</time>
      </trkpt>
      <trkpt lat="59.9229442" lon="17.7102297">
        <ele>26.0929</ele>
        <time>2013-05-19T12:12:17Z</time>
      </trkpt>
      <trkpt lat="59.9229323" lon="17.7101582">
        <ele>27.0543</ele>
        <time>2013-05-19T12:12:18Z</time>
      </trkpt>
      <trkpt lat="59.9229321" lon="17.7100992">
        <ele>28.0155</ele>
        <time>2013-05-19T12:12:19Z</time>
      </trkpt>
      <trkpt lat="59.9229349" lon="17.7100339">
        <ele>28.9769</ele>
        <time>2013-05-19T12:12:20Z</time>
      </trkpt>
      <trkpt lat="59.9229255" lon="17.7099728">
        <ele>29.9381</ele>
        <time>2013-05-19T12:12:21Z</time>
      </trkpt>
      <trkpt lat="59.9229159" lon="17.7099185">
        <ele>30.4188</ele>
        <time>2013-05-19T12:12:22Z</time>
      </trkpt>
      <trkpt lat="59.9229067" lon="17.7098677">
        <ele>30.8995</ele>
        <time>2013-05-19T12:12:23Z</time>
      </trkpt>
      <trkpt lat="59.9228953" lon="17.7098218">
        <ele>31.8607</ele>
        <time>2013-05-19T12:12:24Z</time>
      </trkpt>
      <trkpt lat="59.9228739" lon="17.7097794">
        <ele>32.3416</ele>
        <time>2013-05-19T12:12:25Z</time>
      </trkpt>
      <trkpt lat="59.9228518" lon="17.7097331">
        <ele>33.3029</ele>
        <time>2013-05-19T12:12:26Z</time>
      </trkpt>
      <trkpt lat="59.9228414" lon="17.7096873">
        <ele>33.7834</ele>
        <time>2013-05-19T12:12:27Z</time>
      </trkpt>
      <trkpt lat="59.9228419" lon="17.7096484">
        <ele>34.2642</ele>
        <time>2013-05-19T12:12:28Z</time>
      </trkpt>
      <trkpt lat="59.9228464" lon="17.7096148">
        <ele>34.7449</ele>
        <time>2013-05-19T12:12:29Z</time>
      </trkpt>
      <trkpt lat="59.9228365" lon="17.709573">
        <ele>34.7449</ele>
        <time>2013-05-19T12:12:30Z</time>
      </trkpt>
      <trkpt lat="59.9228226" lon="17.7095267">
        <ele>34.7449</ele>
        <time>2013-05-19T12:12:31Z</time>
      </trkpt>
      <trkpt lat="59.9228129" lon="17.709475">
        <ele>34.7449</ele>
        <time>2013-05-19T12:12:32Z</time>
      </trkpt>
      <trkpt lat="59.9228097" lon="17.7094232">
        <ele>34.7449</ele>
        <time>2013-05-19T12:12:33Z</time>
      </trkpt>
      <trkpt lat="59.9228067" lon="17.7093904">
        <ele>34.2642</ele>
        <time>2013-05-19T12:12:34Z</time>
      </trkpt>
      <trkpt lat="59.9228041" lon="17.7093615">
        <ele>33.3029</ele>
        <time>2013-05-19T12:12:35Z</time>
      </trkpt>
      <trkpt lat="59.9227996" lon="17.7093242">
        <ele>33.3029</ele>
        <time>2013-05-19T12:12:36Z</time>
      </trkpt>
      <trkpt lat="59.9227895" lon="17.7092781">
        <ele>32.3416</ele>
        <time>2013-05-19T12:12:37Z</time>
      </trkpt>
      <trkpt lat="59.9227829" lon="17.7092243">
        <ele>32.8223</ele>
        <time>2013-05-19T12:12:38Z</time>
      </trkpt>
      <trkpt lat="59.9227812" lon="17.7091671">
        <ele>32.8223</ele>
        <time>2013-05-19T12:12:39Z</time>
      </trkpt>
      <trkpt lat="59.9227766" lon="17.7091065">
        <ele>32.3416</ele>
        <time>2013-05-19T12:12:40Z</time>
      </trkpt>
      <trkpt lat="59.9227667" lon="17.7090455">
        <ele>31.8607</ele>
        <time>2013-05-19T12:12:41Z</time>
      </trkpt>
      <trkpt lat="59.9227603" lon="17.7089948">
        <ele>31.8607</ele>
        <time>2013-05-19T12:12:42Z</time>
      </trkpt>
      <trkpt lat="59.9227449" lon="17.7089502">
        <ele>31.8607</ele>
        <time>2013-05-19T12:12:43Z</time>
      </trkpt>
      <trkpt lat="59.9227323" lon="17.7089192">
        <ele>31.3801</ele>
        <time>2013-05-19T12:12:44Z</time>
      </trkpt>
      <trkpt lat="59.9227155" lon="17.708885">
        <ele>30.4188</ele>
        <time>2013-05-19T12:12:45Z</time>
      </trkpt>
      <trkpt lat="59.9226946" lon="17.7088585">
        <ele>29.4575</ele>
        <time>2013-05-19T12:12:46Z</time>
      </trkpt>
      <trkpt lat="59.9226714" lon="17.7088213">
        <ele>28.9769</ele>
        <time>2013-05-19T12:12:47Z</time>
      </trkpt>
      <trkpt lat="59.9226548" lon="17.7087959">
        <ele>28.4962</ele>
        <time>2013-05-19T12:12:48Z</time>
      </trkpt>
      <trkpt lat="59.9226407" lon="17.7087646">
        <ele>28.0155</ele>
        <time>2013-05-19T12:12:49Z</time>
      </trkpt>
      <trkpt lat="59.9226201" lon="17.7087341">
        <ele>27.5349</ele>
        <time>2013-05-19T12:12:50Z</time>
      </trkpt>
      <trkpt lat="59.922602" lon="17.708704">
        <ele>26.5736</ele>
        <time>2013-05-19T12:12:51Z</time>
      </trkpt>
      <trkpt lat="59.9225833" lon="17.708677">
        <ele>25.6123</ele>
        <time>2013-05-19T12:12:52Z</time>
      </trkpt>
      <trkpt lat="59.922566" lon="17.708641">
        <ele>25.6123</ele>
        <time>2013-05-19T12:12:53Z</time>
      </trkpt>
      <trkpt lat="59.9225543" lon="17.7086052">
        <ele>25.1317</ele>
        <time>2013-05-19T12:12:54Z</time>
      </trkpt>
      <trkpt lat="59.9225378" lon="17.7085659">
        <ele>24.651</ele>
        <time>2013-05-19T12:12:55Z</time>
      </trkpt>
      <trkpt lat="59.9225213" lon="17.7085192">
        <ele>23.209</ele>
        <time>2013-05-19T12:12:56Z</time>
      </trkpt>
      <trkpt lat="59.9225003" lon="17.7084788">
        <ele>23.209</ele>
        <time>2013-05-19T12:12:57Z</time>
      </trkpt>
      <trkpt lat="59.9224755" lon="17.7084131">
        <ele>23.6896</ele>
        <time>2013-05-19T12:12:58Z</time>
      </trkpt>
      <trkpt lat="59.9224562" lon="17.7083554">
        <ele>25.1317</ele>
        <time>2013-05-19T12:12:59Z</time>
      </trkpt>
      <trkpt lat="59.9224398" lon="17.7083234">
        <ele>24.651</ele>
        <time>2013-05-19T12:13:00Z</time>
      </trkpt>
      <trkpt lat="59.9224225" lon="17.7082659">
        <ele>25.6123</ele>
        <time>2013-05-19T12:13:01Z</time>
      </trkpt>
      <trkpt lat="59.9224082" lon="17.7082152">
        <ele>26.5736</ele>
        <time>2013-05-19T12:13:02Z</time>
      </trkpt>
      <trkpt lat="59.9224005" lon="17.7081694">
        <ele>27.0543</ele>
        <time>2013-05-19T12:13:03Z</time>
      </trkpt>
      <trkpt lat="59.9223942" lon="17.7081311">
        <ele>27.0543</ele>
        <time>2013-05-19T12:13:04Z</time>
      </trkpt>
      <trkpt lat="59.9223896" lon="17.708081">
        <ele>27.0543</ele>
        <time>2013-05-19T12:13:05Z</time>
      </trkpt>
      <trkpt lat="59.9223828" lon="17.7080447">
        <ele>28.0155</ele>
        <time>2013-05-19T12:13:06Z</time>
      </trkpt>
      <trkpt lat="59.9223708" lon="17.707991">
        <ele>29.4575</ele>
        <time>2013-05-19T12:13:07Z</time>
      </trkpt>
      <trkpt lat="59.9223616" lon="17.7079401">
        <ele>28.9769</ele>
        <time>2013-05-19T12:13:08Z</time>
      </trkpt>
      <trkpt lat="59.9223539" lon="17.707876">
        <ele>29.4575</ele>
        <time>2013-05-19T12:13:09Z</time>
      </trkpt>
      <trkpt lat="59.9223526" lon="17.7078236">
        <ele>29.9381</ele>
        <time>2013-05-19T12:13:10Z</time>
      </trkpt>
      <trkpt lat="59.9223487" lon="17.7077759">
        <ele>29.9381</ele>
        <time>2013-05-19T12:13:11Z</time>
      </trkpt>
      <trkpt lat="59.9223388" lon="17.7077346">
        <ele>30.8995</ele>
        <time>2013-05-19T12:13:12Z</time>
      </trkpt>
      <trkpt lat="59.922332" lon="17.7076954">
        <ele>30.8995</ele>
        <time>2013-05-19T12:13:13Z</time>
      </trkpt>
      <trkpt lat="59.9223226" lon="17.7076488">
        <ele>31.8607</ele>
        <time>2013-05-19T12:13:14Z</time>
      </trkpt>
      <trkpt lat="59.9223149" lon="17.7076108">
        <ele>31.3801</ele>
        <time>2013-05-19T12:13:15Z</time>
      </trkpt>
      <trkpt lat="59.9223083" lon="17.7075688">
        <ele>33.3029</ele>
        <time>2013-05-19T12:13:16Z</time>
      </trkpt>
      <trkpt lat="59.922312" lon="17.7075355">
        <ele>34.7449</ele>
        <time>2013-05-19T12:13:17Z</time>
      </trkpt>
      <trkpt lat="59.9223143" lon="17.7074967">
        <ele>34.7449</ele>
        <time>2013-05-19T12:13:18Z</time>
      </trkpt>
      <trkpt lat="59.9223186" lon="17.7074433">
        <ele>33.7834</ele>
        <time>2013-05-19T12:13:19Z</time>
      </trkpt>
      <trkpt lat="59.9223195" lon="17.7073941">
        <ele>33.3029</ele>
        <time>2013-05-19T12:13:20Z</time>
      </trkpt>
      <trkpt lat="59.9223197" lon="17.7073484">
        <ele>33.3029</ele>
        <time>2013-05-19T12:13:21Z</time>
      </trkpt>
      <trkpt lat="59.9223164" lon="17.707309">
        <ele>33.3029</ele>
        <time>2013-05-19T12:13:22Z</time>
      </trkpt>
      <trkpt lat="59.922315" lon="17.7072609">
        <ele>32.8223</ele>
        <time>2013-05-19T12:13:23Z</time>
      </trkpt>
      <trkpt lat="59.922317" lon="17.7072083">
        <ele>33.3029</ele>
        <time>2013-05-19T12:13:24Z</time>
      </trkpt>
      <trkpt lat="59.9223129" lon="17.7071662">
        <ele>33.7834</ele>
        <time>2013-05-19T12:13:25Z</time>
      </trkpt>
      <trkpt lat="59.9223075" lon="17.7071293">
        <ele>33.7834</ele>
        <time>2013-05-19T12:13:26Z</time>
      </trkpt>
      <trkpt lat="59.9223084" lon="17.7070951">
        <ele>32.8223</ele>
        <time>2013-05-19T12:13:27Z</time>
      </trkpt>
      <trkpt lat="59.9223112" lon="17.7070574">
        <ele>32.3416</ele>
        <time>2013-05-19T12:13:28Z</time>
      </trkpt>
      <trkpt lat="59.9223117" lon="17.7070127">
        <ele>31.3801</ele>
        <time>2013-05-19T12:13:29Z</time>
      </trkpt>
      <trkpt lat="59.9223087" lon="17.7069719">
        <ele>30.4188</ele>
        <time>2013-05-19T12:13:30Z</time>
      </trkpt>
      <trkpt lat="59.9223052" lon="17.706931">
        <ele>29.9381</ele>
        <time>2013-05-19T12:13:31Z</time>
      </trkpt>
      <trkpt lat="59.9223041" lon="17.7068854">
        <ele>29.4575</ele>
        <time>2013-05-19T12:13:32Z</time>
      </trkpt>
      <trkpt lat="59.9222967" lon="17.706817">
        <ele>30.8995</ele>
        <time>2013-05-19T12:13:33Z</time>
      </trkpt>
      <trkpt lat="59.9223" lon="17.7067685">
        <ele>30.8995</ele>
        <time>2013-05-19T12:13:34Z</time>
      </trkpt>
      <trkpt lat="59.9222989" lon="17.7067215">
        <ele>30.8995</ele>
        <time>2013-05-19T12:13:35Z</time>
      </trkpt>
      <trkpt lat="59.9222917" lon="17.7066794">
        <ele>30.8995</ele>
        <time>2013-05-19T12:13:36Z</time>
      </trkpt>
      <trkpt lat="59.9222922" lon="17.7066466">
        <ele>30.4188</ele>
        <time>2013-05-19T12:13:37Z</time>
      </trkpt>
      <trkpt lat="59.9222996" lon="17.7066166">
        <ele>29.9381</ele>
        <time>2013-05-19T12:13:38Z</time>
      </trkpt>
      <trkpt lat="59.9223171" lon="17.7065822">
        <ele>29.9381</ele>
        <time>2013-05-19T12:13:39Z</time>
      </trkpt>
      <trkpt lat="59.9223279" lon="17.7065462">
        <ele>29.4575</ele>
        <time>2013-05-19T12:13:40Z</time>
      </trkpt>
      <trkpt lat="59.9223326" lon="17.7065147">
        <ele>28.9769</ele>
        <time>2013-05-19T12:13:41Z</time>
      </trkpt>
      <trkpt lat="59.9223393" lon="17.7064845">
        <ele>28.0155</ele>
        <time>2013-05-19T12:13:42Z</time>
      </trkpt>
      <trkpt lat="59.9223413" lon="17.7064537">
        <ele>27.0543</ele>
        <time>2013-05-19T12:13:43Z</time>
      </trkpt>
      <trkpt lat="59.9223425" lon="17.7064185">
        <ele>26.0929</ele>
        <time>2013-05-19T12:13:44Z</time>
      </trkpt>
      <trkpt lat="59.9223466" lon="17.7063758">
        <ele>25.6123</ele>
        <time>2013-05-19T12:13:45Z</time>
      </trkpt>
      <trkpt lat="59.9223545" lon="17.7063395">
        <ele>24.651</ele>
        <time>2013-05-19T12:13:46Z</time>
      </trkpt>
      <trkpt lat="59.9223617" lon="17.7063022">
        <ele>24.651</ele>
        <time>2013-05-19T12:13:47Z</time>
      </trkpt>
      <trkpt lat="59.9223653" lon="17.7062624">
        <ele>24.1703</ele>
        <time>2013-05-19T12:13:48Z</time>
      </trkpt>
      <trkpt lat="59.9223688" lon="17.7062184">
        <ele>23.6896</ele>
        <time>2013-05-19T12:13:49Z</time>
      </trkpt>
      <trkpt lat="59.9223688" lon="17.7061745">
        <ele>23.209</ele>
        <time>2013-05-19T12:13:50Z</time>
      </trkpt>
      <trkpt lat="59.9223647" lon="17.7061363">
        <ele>23.209</ele>
        <time>2013-05-19T12:13:51Z</time>
      </trkpt>
      <trkpt lat="59.922356" lon="17.7060991">
        <ele>22.7283</ele>
        <time>2013-05-19T12:13:52Z</time>
      </trkpt>
      <trkpt lat="59.9223482" lon="17.7060542">
        <ele>22.2476</ele>
        <time>2013-05-19T12:13:53Z</time>
      </trkpt>
      <trkpt lat="59.9223434" lon="17.7060069">
        <ele>21.767</ele>
        <time>2013-05-19T12:13:54Z</time>
      </trkpt>
      <trkpt lat="59.9223365" lon="17.705954">
        <ele>21.2864</ele>
        <time>2013-05-19T12:13:55Z</time>
      </trkpt>
      <trkpt lat="59.9223322" lon="17.7059034">
        <ele>20.8057</ele>
        <time>2013-05-19T12:13:56Z</time>
      </trkpt>
      <trkpt lat="59.9223308" lon="17.705854">
        <ele>20.8057</ele>
        <time>2013-05-19T12:13:57Z</time>
      </trkpt>
      <trkpt lat="59.9223291" lon="17.7058021">
        <ele>20.8057</ele>
        <time>2013-05-19T12:13:58Z</time>
      </trkpt>
      <trkpt lat="59.9223264" lon="17.7057495">
        <ele>20.8057</ele>
        <time>2013-05-19T12:13:59Z</time>
      </trkpt>
      <trkpt lat="59.9223167" lon="17.7056992">
        <ele>21.767</ele>
        <time>2013-05-19T12:14:00Z</time>
      </trkpt>
      <trkpt lat="59.9223036" lon="17.705652">
        <ele>22.7283</ele>
        <time>2013-05-19T12:14:01Z</time>
      </trkpt>
      <trkpt lat="59.9222944" lon="17.7056027">
        <ele>23.209</ele>
        <time>2013-05-19T12:14:02Z</time>
      </trkpt>
      <trkpt lat="59.9222881" lon="17.705553">
        <ele>23.6896</ele>
        <time>2013-05-19T12:14:03Z</time>
      </trkpt>
      <trkpt lat="59.9222869" lon="17.705508">
        <ele>23.6896</ele>
        <time>2013-05-19T12:14:04Z</time>
      </trkpt>
      <trkpt lat="59.9222832" lon="17.7054593">
        <ele>23.6896</ele>
        <time>2013-05-19T12:14:05Z</time>
      </trkpt>
      <trkpt lat="59.9222773" lon="17.7054097">
        <ele>24.1703</ele>
        <time>2013-05-19T12:14:06Z</time>
      </trkpt>
      <trkpt lat="59.9222684" lon="17.7053709">
        <ele>25.6123</ele>
        <time>2013-05-19T12:14:07Z</time>
      </trkpt>
      <trkpt lat="59.922261" lon="17.7053302">
        <ele>26.0929</ele>
        <time>2013-05-19T12:14:08Z</time>
      </trkpt>
      <trkpt lat="59.9222523" lon="17.7052743">
        <ele>27.0543</ele>
        <time>2013-05-19T12:14:09Z</time>
      </trkpt>
      <trkpt lat="59.9222433" lon="17.7052246">
        <ele>27.5349</ele>
        <time>2013-05-19T12:14:10Z</time>
      </trkpt>
      <trkpt lat="59.9222351" lon="17.7051754">
        <ele>28.0155</ele>
        <time>2013-05-19T12:14:11Z</time>
      </trkpt>
      <trkpt lat="59.9222289" lon="17.7051288">
        <ele>28.0155</ele>
        <time>2013-05-19T12:14:12Z</time>
      </trkpt>
      <trkpt lat="59.9222249" lon="17.7050828">
        <ele>28.4962</ele>
        <time>2013-05-19T12:14:13Z</time>
      </trkpt>
      <trkpt lat="59.9222223" lon="17.7050363">
        <ele>28.9769</ele>
        <time>2013-05-19T12:14:14Z</time>
      </trkpt>
      <trkpt lat="59.9222151" lon="17.7049857">
        <ele>28.9769</ele>
        <time>2013-05-19T12:14:15Z</time>
      </trkpt>
      <trkpt lat="59.9222031" lon="17.704915">
        <ele>30.8995</ele>
        <time>2013-05-19T12:14:16Z</time>
      </trkpt>
      <trkpt lat="59.9221928" lon="17.7048627">
        <ele>31.3801</ele>
        <time>2013-05-19T12:14:17Z</time>
      </trkpt>
      <trkpt lat="59.9221818" lon="17.704803">
        <ele>32.8223</ele>
        <time>2013-05-19T12:14:18Z</time>
      </trkpt>
      <trkpt lat="59.9221741" lon="17.7047513">
        <ele>32.8223</ele>
        <time>2013-05-19T12:14:19Z</time>
      </trkpt>
      <trkpt lat="59.9221648" lon="17.7046992">
        <ele>32.8223</ele>
        <time>2013-05-19T12:14:20Z</time>
      </trkpt>
      <trkpt lat="59.9221559" lon="17.7046529">
        <ele>33.3029</ele>
        <time>2013-05-19T12:14:21Z</time>
      </trkpt>
      <trkpt lat="59.9221527" lon="17.7046124">
        <ele>33.7834</ele>
        <time>2013-05-19T12:14:22Z</time>
      </trkpt>
      <trkpt lat="59.9221457" lon="17.7045647">
        <ele>33.7834</ele>
        <time>2013-05-19T12:14:23Z</time>
      </trkpt>
      <trkpt lat="59.9221356" lon="17.7045234">
        <ele>33.7834</ele>
        <time>2013-05-19T12:14:24Z</time>
      </trkpt>
      <trkpt lat="59.9221263" lon="17.7044838">
        <ele>33.7834</ele>
        <time>2013-05-19T12:14:25Z</time>
      </trkpt>
      <trkpt lat="59.9221212" lon="17.7044353">
        <ele>33.7834</ele>
        <time>2013-05-19T12:14:26Z</time>
      </trkpt>
      <trkpt lat="59.9221136" lon="17.7043891">
        <ele>34.2642</ele>
        <time>2013-05-19T12:14:27Z</time>
      </trkpt>
      <trkpt lat="59.9221056" lon="17.7043503">
        <ele>34.7449</ele>
        <time>2013-05-19T12:14:28Z</time>
      </trkpt>
      <trkpt lat="59.9220895" lon="17.7043197">
        <ele>35.2255</ele>
        <time>2013-05-19T12:14:29Z</time>
      </trkpt>
      <trkpt lat="59.9220779" lon="17.7042829">
        <ele>35.2255</ele>
        <time>2013-05-19T12:14:30Z</time>
      </trkpt>
      <trkpt lat="59.9220755" lon="17.7042446">
        <ele>35.7061</ele>
        <time>2013-05-19T12:14:31Z</time>
      </trkpt>
      <trkpt lat="59.9220734" lon="17.7042104">
        <ele>35.7061</ele>
        <time>2013-05-19T12:14:32Z</time>
      </trkpt>
      <trkpt lat="59.9220678" lon="17.7041737">
        <ele>35.2255</ele>
        <time>2013-05-19T12:14:33Z</time>
      </trkpt>
      <trkpt lat="59.9220602" lon="17.7041343">
        <ele>35.7061</ele>
        <time>2013-05-19T12:14:34Z</time>
      </trkpt>
      <trkpt lat="59.9220519" lon="17.7040975">
        <ele>35.7061</ele>
        <time>2013-05-19T12:14:35Z</time>
      </trkpt>
      <trkpt lat="59.9220498" lon="17.7040638">
        <ele>35.2255</ele>
        <time>2013-05-19T12:14:36Z</time>
      </trkpt>
      <trkpt lat="59.9220516" lon="17.7040333">
        <ele>35.2255</ele>
        <time>2013-05-19T12:14:37Z</time>
      </trkpt>
      <trkpt lat="59.9220561" lon="17.7040028">
        <ele>35.2255</ele>
        <time>2013-05-19T12:14:38Z</time>
      </trkpt>
      <trkpt lat="59.9220502" lon="17.7039618">
        <ele>35.2255</ele>
        <time>2013-05-19T12:14:39Z</time>
      </trkpt>
      <trkpt lat="59.9220393" lon="17.7039147">
        <ele>34.7449</ele>
        <time>2013-05-19T12:14:40Z</time>
      </trkpt>
      <trkpt lat="59.9220312" lon="17.7038697">
        <ele>34.2642</ele>
        <time>2013-05-19T12:14:41Z</time>
      </trkpt>
      <trkpt lat="59.9220286" lon="17.7038261">
        <ele>34.7449</ele>
        <time>2013-05-19T12:14:42Z</time>
      </trkpt>
      <trkpt lat="59.9220202" lon="17.703765">
        <ele>36.6675</ele>
        <time>2013-05-19T12:14:43Z</time>
      </trkpt>
      <trkpt lat="59.9220147" lon="17.7037202">
        <ele>37.1481</ele>
        <time>2013-05-19T12:14:44Z</time>
      </trkpt>
      <trkpt lat="59.9220086" lon="17.7036739">
        <ele>37.1481</ele>
        <time>2013-05-19T12:14:45Z</time>
      </trkpt>
      <trkpt lat="59.921998" lon="17.7036203">
        <ele>38.5901</ele>
        <time>2013-05-19T12:14:46Z</time>
      </trkpt>
      <trkpt lat="59.9219851" lon="17.7035691">
        <ele>39.5513</ele>
        <time>2013-05-19T12:14:47Z</time>
      </trkpt>
      <trkpt lat="59.9219747" lon="17.7035277">
        <ele>40.5128</ele>
        <time>2013-05-19T12:14:48Z</time>
      </trkpt>
      <trkpt lat="59.9219699" lon="17.7034825">
        <ele>41.474</ele>
        <time>2013-05-19T12:14:49Z</time>
      </trkpt>
      <trkpt lat="59.9219633" lon="17.7034337">
        <ele>42.4354</ele>
        <time>2013-05-19T12:14:50Z</time>
      </trkpt>
      <trkpt lat="59.921955" lon="17.7033908">
        <ele>42.4354</ele>
        <time>2013-05-19T12:14:51Z</time>
      </trkpt>
      <trkpt lat="59.9219416" lon="17.7033417">
        <ele>43.3966</ele>
        <time>2013-05-19T12:14:52Z</time>
      </trkpt>
      <trkpt lat="59.9219237" lon="17.7032885">
        <ele>44.358</ele>
        <time>2013-05-19T12:14:53Z</time>
      </trkpt>
      <trkpt lat="59.9219089" lon="17.703248">
        <ele>44.358</ele>
        <time>2013-05-19T12:14:54Z</time>
      </trkpt>
      <trkpt lat="59.9218913" lon="17.7031984">
        <ele>45.3192</ele>
        <time>2013-05-19T12:14:55Z</time>
      </trkpt>
      <trkpt lat="59.9218746" lon="17.7031483">
        <ele>45.7999</ele>
        <time>2013-05-19T12:14:56Z</time>
      </trkpt>
      <trkpt lat="59.9218641" lon="17.7031066">
        <ele>45.3192</ele>
        <time>2013-05-19T12:14:57Z</time>
      </trkpt>
      <trkpt lat="59.921853" lon="17.7030616">
        <ele>43.8773</ele>
        <time>2013-05-19T12:14:58Z</time>
      </trkpt>
      <trkpt lat="59.92184" lon="17.703019">
        <ele>42.916</ele>
        <time>2013-05-19T12:14:59Z</time>
      </trkpt>
      <trkpt lat="59.9218275" lon="17.7029827">
        <ele>42.4354</ele>
        <time>2013-05-19T12:15:00Z</time>
      </trkpt>
      <trkpt lat="59.9218151" lon="17.7029522">
        <ele>41.474</ele>
        <time>2013-05-19T12:15:01Z</time>
      </trkpt>
      <trkpt lat="59.9218032" lon="17.7029191">
        <ele>41.474</ele>
        <time>2013-05-19T12:15:02Z</time>
      </trkpt>
      <trkpt lat="59.9217904" lon="17.7028885">
        <ele>40.5128</ele>
        <time>2013-05-19T12:15:03Z</time>
      </trkpt>
      <trkpt lat="59.9217762" lon="17.7028601">
        <ele>39.5513</ele>
        <time>2013-05-19T12:15:04Z</time>
      </trkpt>
      <trkpt lat="59.9217624" lon="17.7028269">
        <ele>38.5901</ele>
        <time>2013-05-19T12:15:05Z</time>
      </trkpt>
      <trkpt lat="59.9217509" lon="17.7027957">
        <ele>38.1094</ele>
        <time>2013-05-19T12:15:06Z</time>
      </trkpt>
      <trkpt lat="59.9217343" lon="17.7027677">
        <ele>38.1094</ele>
        <time>2013-05-19T12:15:07Z</time>
      </trkpt>
      <trkpt lat="59.921717" lon="17.7027371">
        <ele>37.6287</ele>
        <time>2013-05-19T12:15:08Z</time>
      </trkpt>
      <trkpt lat="59.9217022" lon="17.7027061">
        <ele>37.1481</ele>
        <time>2013-05-19T12:15:09Z</time>
      </trkpt>
      <trkpt lat="59.9216892" lon="17.7026769">
        <ele>36.6675</ele>
        <time>2013-05-19T12:15:10Z</time>
      </trkpt>
      <trkpt lat="59.9216737" lon="17.7026423">
        <ele>36.1868</ele>
        <time>2013-05-19T12:15:11Z</time>
      </trkpt>
      <trkpt lat="59.9216499" lon="17.702602">
        <ele>36.6675</ele>
        <time>2013-05-19T12:15:12Z</time>
      </trkpt>
      <trkpt lat="59.9216276" lon="17.7025709">
        <ele>36.6675</ele>
        <time>2013-05-19T12:15:13Z</time>
      </trkpt>
      <trkpt lat="59.9216043" lon="17.7025536">
        <ele>36.6675</ele>
        <time>2013-05-19T12:15:14Z</time>
      </trkpt>
      <trkpt lat="59.9215802" lon="17.7025348">
        <ele>35.7061</ele>
        <time>2013-05-19T12:15:15Z</time>
      </trkpt>
      <trkpt lat="59.9215628" lon="17.702511">
        <ele>35.7061</ele>
        <time>2013-05-19T12:15:16Z</time>
      </trkpt>
      <trkpt lat="59.9215467" lon="17.7024864">
        <ele>35.2255</ele>
        <time>2013-05-19T12:15:17Z</time>
      </trkpt>
      <trkpt lat="59.9215276" lon="17.7024623">
        <ele>35.2255</ele>
        <time>2013-05-19T12:15:18Z</time>
      </trkpt>
      <trkpt lat="59.9215059" lon="17.7024414">
        <ele>35.2255</ele>
        <time>2013-05-19T12:15:19Z</time>
      </trkpt>
      <trkpt lat="59.9214882" lon="17.7024259">
        <ele>34.7449</ele>
        <time>2013-05-19T12:15:20Z</time>
      </trkpt>
      <trkpt lat="59.9214726" lon="17.7024092">
        <ele>34.2642</ele>
        <time>2013-05-19T12:15:21Z</time>
      </trkpt>
      <trkpt lat="59.9214525" lon="17.7023875">
        <ele>33.7834</ele>
        <time>2013-05-19T12:15:22Z</time>
      </trkpt>
      <trkpt lat="59.9214333" lon="17.7023659">
        <ele>33.7834</ele>
        <time>2013-05-19T12:15:23Z</time>
      </trkpt>
      <trkpt lat="59.9214168" lon="17.7023399">
        <ele>33.3029</ele>
        <time>2013-05-19T12:15:24Z</time>
      </trkpt>
      <trkpt lat="59.9213992" lon="17.702316">
        <ele>32.8223</ele>
        <time>2013-05-19T12:15:25Z</time>
      </trkpt>
      <trkpt lat="59.9213879" lon="17.7022915">
        <ele>31.8607</ele>
        <time>2013-05-19T12:15:26Z</time>
      </trkpt>
      <trkpt lat="59.9213757" lon="17.7022701">
        <ele>31.3801</ele>
        <time>2013-05-19T12:15:27Z</time>
      </trkpt>
      <trkpt lat="59.9213583" lon="17.7022432">
        <ele>30.8995</ele>
        <time>2013-05-19T12:15:28Z</time>
      </trkpt>
      <trkpt lat="59.9213397" lon="17.7022156">
        <ele>30.8995</ele>
        <time>2013-05-19T12:15:29Z</time>
      </trkpt>
      <trkpt lat="59.9213173" lon="17.702191">
        <ele>30.8995</ele>
        <time>2013-05-19T12:15:30Z</time>
      </trkpt>
      <trkpt lat="59.9212995" lon="17.7021665">
        <ele>30.4188</ele>
        <time>2013-05-19T12:15:31Z</time>
      </trkpt>
      <trkpt lat="59.9212796" lon="17.7021373">
        <ele>29.9381</ele>
        <time>2013-05-19T12:15:32Z</time>
      </trkpt>
      <trkpt lat="59.9212603" lon="17.702113">
        <ele>29.4575</ele>
        <time>2013-05-19T12:15:33Z</time>
      </trkpt>
      <trkpt lat="59.9212452" lon="17.7020923">
        <ele>28.9769</ele>
        <time>2013-05-19T12:15:34Z</time>
      </trkpt>
      <trkpt lat="59.9212266" lon="17.7020668">
        <ele>28.9769</ele>
        <time>2013-05-19T12:15:35Z</time>
      </trkpt>
      <trkpt lat="59.9212075" lon="17.7020415">
        <ele>28.4962</ele>
        <time>2013-05-19T12:15:36Z</time>
      </trkpt>
      <trkpt lat="59.9211938" lon="17.7020098">
        <ele>28.4962</ele>
        <time>2013-05-19T12:15:37Z</time>
      </trkpt>
      <trkpt lat="59.92118" lon="17.7019781">
        <ele>28.4962</ele>
        <time>2013-05-19T12:15:38Z</time>
      </trkpt>
      <trkpt lat="59.9211589" lon="17.7019611">
        <ele>28.4962</ele>
        <time>2013-05-19T12:15:39Z</time>
      </trkpt>
      <trkpt lat="59.9211307" lon="17.7019477">
        <ele>28.9769</ele>
        <time>2013-05-19T12:15:40Z</time>
      </trkpt>
      <trkpt lat="59.921105" lon="17.7019484">
        <ele>29.4575</ele>
        <time>2013-05-19T12:15:41Z</time>
      </trkpt>
      <trkpt lat="59.921084" lon="17.7019364">
        <ele>30.4188</ele>
        <time>2013-05-19T12:15:42Z</time>
      </trkpt>
      <trkpt lat="59.9210656" lon="17.7019372">
        <ele>31.3801</ele>
        <time>2013-05-19T12:15:43Z</time>
      </trkpt>
      <trkpt lat="59.9210417" lon="17.7019457">
        <ele>32.3416</ele>
        <time>2013-05-19T12:15:44Z</time>
      </trkpt>
      <trkpt lat="59.9210174" lon="17.7019483">
        <ele>33.3029</ele>
        <time>2013-05-19T12:15:45Z</time>
      </trkpt>
      <trkpt lat="59.9209934" lon="17.7019478">
        <ele>33.7834</ele>
        <time>2013-05-19T12:15:46Z</time>
      </trkpt>
      <trkpt lat="59.9209685" lon="17.7019447">
        <ele>34.2642</ele>
        <time>2013-05-19T12:15:47Z</time>
      </trkpt>
      <trkpt lat="59.920948" lon="17.7019357">
        <ele>34.2642</ele>
        <time>2013-05-19T12:15:48Z</time>
      </trkpt>
      <trkpt lat="59.9209288" lon="17.7019269">
        <ele>34.7449</ele>
        <time>2013-05-19T12:15:49Z</time>
      </trkpt>
      <trkpt lat="59.9209105" lon="17.7019166">
        <ele>35.2255</ele>
        <time>2013-05-19T12:15:50Z</time>
      </trkpt>
      <trkpt lat="59.9208888" lon="17.7019114">
        <ele>34.7449</ele>
        <time>2013-05-19T12:15:51Z</time>
      </trkpt>
      <trkpt lat="59.9208651" lon="17.7019051">
        <ele>34.2642</ele>
        <time>2013-05-19T12:15:52Z</time>
      </trkpt>
      <trkpt lat="59.9208414" lon="17.7018923">
        <ele>33.7834</ele>
        <time>2013-05-19T12:15:53Z</time>
      </trkpt>
      <trkpt lat="59.9208169" lon="17.7018758">
        <ele>33.7834</ele>
        <time>2013-05-19T12:15:54Z</time>
      </trkpt>
      <trkpt lat="59.9207936" lon="17.7018608">
        <ele>33.3029</ele>
        <time>2013-05-19T12:15:55Z</time>
      </trkpt>
      <trkpt lat="59.9207708" lon="17.7018463">
        <ele>33.3029</ele>
        <time>2013-05-19T12:15:56Z</time>
      </trkpt>
      <trkpt lat="59.9207476" lon="17.7018327">
        <ele>33.7834</ele>
        <time>2013-05-19T12:15:57Z</time>
      </trkpt>
      <trkpt lat="59.9207246" lon="17.7018215">
        <ele>33.3029</ele>
        <time>2013-05-19T12:15:58Z</time>
      </trkpt>
      <trkpt lat="59.9207034" lon="17.7018167">
        <ele>33.3029</ele>
        <time>2013-05-19T12:15:59Z</time>
      </trkpt>
      <trkpt lat="59.9206803" lon="17.7018162">
        <ele>32.8223</ele>
        <time>2013-05-19T12:16:00Z</time>
      </trkpt>
      <trkpt lat="59.9206597" lon="17.701816">
        <ele>31.8607</ele>
        <time>2013-05-19T12:16:01Z</time>
      </trkpt>
      <trkpt lat="59.9206403" lon="17.7018196">
        <ele>31.3801</ele>
        <time>2013-05-19T12:16:02Z</time>
      </trkpt>
      <trkpt lat="59.9206179" lon="17.7018228">
        <ele>30.8995</ele>
        <time>2013-05-19T12:16:03Z</time>
      </trkpt>
      <trkpt lat="59.9205983" lon="17.7018215">
        <ele>30.8995</ele>
        <time>2013-05-19T12:16:04Z</time>
      </trkpt>
      <trkpt lat="59.9205812" lon="17.7018248">
        <ele>29.9381</ele>
        <time>2013-05-19T12:16:05Z</time>
      </trkpt>
      <trkpt lat="59.920562" lon="17.7018292">
        <ele>29.9381</ele>
        <time>2013-05-19T12:16:06Z</time>
      </trkpt>
      <trkpt lat="59.9205424" lon="17.7018267">
        <ele>29.9381</ele>
        <time>2013-05-19T12:16:07Z</time>
      </trkpt>
      <trkpt lat="59.9205192" lon="17.7018121">
        <ele>29.4575</ele>
        <time>2013-05-19T12:16:08Z</time>
      </trkpt>
      <trkpt lat="59.9204984" lon="17.7017882">
        <ele>28.4962</ele>
        <time>2013-05-19T12:16:09Z</time>
      </trkpt>
      <trkpt lat="59.9204826" lon="17.701753">
        <ele>28.0155</ele>
        <time>2013-05-19T12:16:10Z</time>
      </trkpt>
      <trkpt lat="59.9204643" lon="17.7017125">
        <ele>28.4962</ele>
        <time>2013-05-19T12:16:11Z</time>
      </trkpt>
      <trkpt lat="59.9204507" lon="17.7016694">
        <ele>28.4962</ele>
        <time>2013-05-19T12:16:12Z</time>
      </trkpt>
      <trkpt lat="59.9204297" lon="17.7016287">
        <ele>28.4962</ele>
        <time>2013-05-19T12:16:13Z</time>
      </trkpt>
      <trkpt lat="59.9204134" lon="17.7015966">
        <ele>28.9769</ele>
        <time>2013-05-19T12:16:14Z</time>
      </trkpt>
      <trkpt lat="59.9204082" lon="17.7015582">
        <ele>28.9769</ele>
        <time>2013-05-19T12:16:15Z</time>
      </trkpt>
      <trkpt lat="59.9204064" lon="17.7015167">
        <ele>28.4962</ele>
        <time>2013-05-19T12:16:16Z</time>
      </trkpt>
      <trkpt lat="59.9204059" lon="17.7014789">
        <ele>28.4962</ele>
        <time>2013-05-19T12:16:17Z</time>
      </trkpt>
      <trkpt lat="59.920417" lon="17.7014314">
        <ele>28.4962</ele>
        <time>2013-05-19T12:16:18Z</time>
      </trkpt>
      <trkpt lat="59.9204278" lon="17.7013727">
        <ele>28.0155</ele>
        <time>2013-05-19T12:16:19Z</time>
      </trkpt>
      <trkpt lat="59.9204258" lon="17.7013298">
        <ele>27.5349</ele>
        <time>2013-05-19T12:16:20Z</time>
      </trkpt>
      <trkpt lat="59.9204243" lon="17.7012874">
        <ele>27.5349</ele>
        <time>2013-05-19T12:16:21Z</time>
      </trkpt>
      <trkpt lat="59.9204222" lon="17.701249">
        <ele>28.0155</ele>
        <time>2013-05-19T12:16:22Z</time>
      </trkpt>
      <trkpt lat="59.9204186" lon="17.7012051">
        <ele>28.9769</ele>
        <time>2013-05-19T12:16:23Z</time>
      </trkpt>
      <trkpt lat="59.920418" lon="17.7011666">
        <ele>29.4575</ele>
        <time>2013-05-19T12:16:24Z</time>
      </trkpt>
      <trkpt lat="59.9204134" lon="17.7011329">
        <ele>28.9769</ele>
        <time>2013-05-19T12:16:25Z</time>
      </trkpt>
      <trkpt lat="59.9204119" lon="17.7010905">
        <ele>28.9769</ele>
        <time>2013-05-19T12:16:26Z</time>
      </trkpt>
      <trkpt lat="59.9204158" lon="17.7010432">
        <ele>28.9769</ele>
        <time>2013-05-19T12:16:27Z</time>
      </trkpt>
      <trkpt lat="59.9204144" lon="17.7009931">
        <ele>28.9769</ele>
        <time>2013-05-19T12:16:28Z</time>
      </trkpt>
      <trkpt lat="59.9204154" lon="17.7009453">
        <ele>28.4962</ele>
        <time>2013-05-19T12:16:29Z</time>
      </trkpt>
      <trkpt lat="59.920414" lon="17.7008927">
        <ele>28.4962</ele>
        <time>2013-05-19T12:16:30Z</time>
      </trkpt>
      <trkpt lat="59.9204186" lon="17.7008428">
        <ele>27.5349</ele>
        <time>2013-05-19T12:16:31Z</time>
      </trkpt>
      <trkpt lat="59.9204178" lon="17.700788">
        <ele>26.5736</ele>
        <time>2013-05-19T12:16:32Z</time>
      </trkpt>
      <trkpt lat="59.9204147" lon="17.7007359">
        <ele>26.0929</ele>
        <time>2013-05-19T12:16:33Z</time>
      </trkpt>
      <trkpt lat="59.9204025" lon="17.7006824">
        <ele>26.0929</ele>
        <time>2013-05-19T12:16:34Z</time>
      </trkpt>
      <trkpt lat="59.9203895" lon="17.7006273">
        <ele>25.6123</ele>
        <time>2013-05-19T12:16:35Z</time>
      </trkpt>
      <trkpt lat="59.920388" lon="17.700565">
        <ele>24.651</ele>
        <time>2013-05-19T12:16:36Z</time>
      </trkpt>
      <trkpt lat="59.9203865" lon="17.7005113">
        <ele>25.1317</ele>
        <time>2013-05-19T12:16:37Z</time>
      </trkpt>
      <trkpt lat="59.9203792" lon="17.7004648">
        <ele>24.651</ele>
        <time>2013-05-19T12:16:38Z</time>
      </trkpt>
      <trkpt lat="59.9203642" lon="17.7004196">
        <ele>24.1703</ele>
        <time>2013-05-19T12:16:39Z</time>
      </trkpt>
      <trkpt lat="59.9203524" lon="17.7003751">
        <ele>24.1703</ele>
        <time>2013-05-19T12:16:40Z</time>
      </trkpt>
      <trkpt lat="59.920343" lon="17.7003414">
        <ele>25.1317</ele>
        <time>2013-05-19T12:16:41Z</time>
      </trkpt>
      <trkpt lat="59.9203356" lon="17.7003055">
        <ele>26.5736</ele>
        <time>2013-05-19T12:16:42Z</time>
      </trkpt>
      <trkpt lat="59.9203227" lon="17.7002766">
        <ele>27.5349</ele>
        <time>2013-05-19T12:16:43Z</time>
      </trkpt>
      <trkpt lat="59.9203156" lon="17.7002454">
        <ele>28.0155</ele>
        <time>2013-05-19T12:16:44Z</time>
      </trkpt>
      <trkpt lat="59.9203133" lon="17.7002042">
        <ele>28.9769</ele>
        <time>2013-05-19T12:16:45Z</time>
      </trkpt>
      <trkpt lat="59.9203103" lon="17.7001599">
        <ele>28.4962</ele>
        <time>2013-05-19T12:16:46Z</time>
      </trkpt>
      <trkpt lat="59.9203029" lon="17.7001181">
        <ele>28.9769</ele>
        <time>2013-05-19T12:16:47Z</time>
      </trkpt>
      <trkpt lat="59.9202834" lon="17.7000677">
        <ele>29.4575</ele>
        <time>2013-05-19T12:16:48Z</time>
      </trkpt>
      <trkpt lat="59.920273" lon="17.7000244">
        <ele>29.4575</ele>
        <time>2013-05-19T12:16:49Z</time>
      </trkpt>
      <trkpt lat="59.9202771" lon="17.6999789">
        <ele>29.9381</ele>
        <time>2013-05-19T12:16:50Z</time>
      </trkpt>
      <trkpt lat="59.920277" lon="17.699938">
        <ele>28.9769</ele>
        <time>2013-05-19T12:16:51Z</time>
      </trkpt>
      <trkpt lat="59.9202693" lon="17.699904">
        <ele>28.9769</ele>
        <time>2013-05-19T12:16:52Z</time>
      </trkpt>
      <trkpt lat="59.9202621" lon="17.6998663">
        <ele>29.4575</ele>
        <time>2013-05-19T12:16:53Z</time>
      </trkpt>
      <trkpt lat="59.9202528" lon="17.699824">
        <ele>29.4575</ele>
        <time>2013-05-19T12:16:54Z</time>
      </trkpt>
      <trkpt lat="59.9202408" lon="17.6997781">
        <ele>28.9769</ele>
        <time>2013-05-19T12:16:55Z</time>
      </trkpt>
      <trkpt lat="59.9202342" lon="17.6997321">
        <ele>28.9769</ele>
        <time>2013-05-19T12:16:56Z</time>
      </trkpt>
      <trkpt lat="59.9202202" lon="17.6996937">
        <ele>28.9769</ele>
        <time>2013-05-19T12:16:57Z</time>
      </trkpt>
      <trkpt lat="59.920201" lon="17.6996596">
        <ele>29.4575</ele>
        <time>2013-05-19T12:16:58Z</time>
      </trkpt>
      <trkpt lat="59.9201886" lon="17.6996261">
        <ele>28.9769</ele>
        <time>2013-05-19T12:16:59Z</time>
      </trkpt>
      <trkpt lat="59.9201822" lon="17.6995873">
        <ele>28.9769</ele>
        <time>2013-05-19T12:17:00Z</time>
      </trkpt>
      <trkpt lat="59.9201832" lon="17.6995438">
        <ele>29.4575</ele>
        <time>2013-05-19T12:17:01Z</time>
      </trkpt>
      <trkpt lat="59.9201834" lon="17.6995027">
        <ele>29.4575</ele>
        <time>2013-05-19T12:17:02Z</time>
      </trkpt>
      <trkpt lat="59.9201756" lon="17.6994624">
        <ele>29.4575</ele>
        <time>2013-05-19T12:17:03Z</time>
      </trkpt>
      <trkpt lat="59.9201725" lon="17.6994212">
        <ele>28.9769</ele>
        <time>2013-05-19T12:17:04Z</time>
      </trkpt>
      <trkpt lat="59.920172" lon="17.6993759">
        <ele>28.4962</ele>
        <time>2013-05-19T12:17:05Z</time>
      </trkpt>
      <trkpt lat="59.9201637" lon="17.6993322">
        <ele>28.4962</ele>
        <time>2013-05-19T12:17:06Z</time>
      </trkpt>
      <trkpt lat="59.9201477" lon="17.6992935">
        <ele>28.4962</ele>
        <time>2013-05-19T12:17:07Z</time>
      </trkpt>
      <trkpt lat="59.9201412" lon="17.699251">
        <ele>28.4962</ele>
        <time>2013-05-19T12:17:08Z</time>
      </trkpt>
      <trkpt lat="59.9201362" lon="17.6992049">
        <ele>28.4962</ele>
        <time>2013-05-19T12:17:09Z</time>
      </trkpt>
      <trkpt lat="59.9201321" lon="17.6991733">
        <ele>28.9769</ele>
        <time>2013-05-19T12:17:10Z</time>
      </trkpt>
      <trkpt lat="59.9201248" lon="17.6991381">
        <ele>29.4575</ele>
        <time>2013-05-19T12:17:11Z</time>
      </trkpt>
      <trkpt lat="59.9201193" lon="17.6990873">
        <ele>30.8995</ele>
        <time>2013-05-19T12:17:12Z</time>
      </trkpt>
      <trkpt lat="59.9201252" lon="17.6990484">
        <ele>30.8995</ele>
        <time>2013-05-19T12:17:13Z</time>
      </trkpt>
      <trkpt lat="59.9201405" lon="17.6990044">
        <ele>30.8995</ele>
        <time>2013-05-19T12:17:14Z</time>
      </trkpt>
      <trkpt lat="59.9201496" lon="17.6989563">
        <ele>30.4188</ele>
        <time>2013-05-19T12:17:15Z</time>
      </trkpt>
      <trkpt lat="59.9201466" lon="17.6989143">
        <ele>30.4188</ele>
        <time>2013-05-19T12:17:16Z</time>
      </trkpt>
      <trkpt lat="59.9201378" lon="17.6988687">
        <ele>30.4188</ele>
        <time>2013-05-19T12:17:17Z</time>
      </trkpt>
      <trkpt lat="59.9201263" lon="17.6988183">
        <ele>29.4575</ele>
        <time>2013-05-19T12:17:18Z</time>
      </trkpt>
      <trkpt lat="59.9201167" lon="17.698775">
        <ele>29.4575</ele>
        <time>2013-05-19T12:17:19Z</time>
      </trkpt>
      <trkpt lat="59.9201077" lon="17.6987273">
        <ele>29.4575</ele>
        <time>2013-05-19T12:17:20Z</time>
      </trkpt>
      <trkpt lat="59.9200942" lon="17.698681">
        <ele>28.4962</ele>
        <time>2013-05-19T12:17:21Z</time>
      </trkpt>
      <trkpt lat="59.9200729" lon="17.6986346">
        <ele>28.9769</ele>
        <time>2013-05-19T12:17:22Z</time>
      </trkpt>
      <trkpt lat="59.9200529" lon="17.6986056">
        <ele>28.9769</ele>
        <time>2013-05-19T12:17:23Z</time>
      </trkpt>
      <trkpt lat="59.9200363" lon="17.6985962">
        <ele>28.9769</ele>
        <time>2013-05-19T12:17:24Z</time>
      </trkpt>
      <trkpt lat="59.9200175" lon="17.6985964">
        <ele>28.9769</ele>
        <time>2013-05-19T12:17:25Z</time>
      </trkpt>
      <trkpt lat="59.9199993" lon="17.6986081">
        <ele>28.9769</ele>
        <time>2013-05-19T12:17:26Z</time>
      </trkpt>
      <trkpt lat="59.9199864" lon="17.6986361">
        <ele>28.9769</ele>
        <time>2013-05-19T12:17:27Z</time>
      </trkpt>
      <trkpt lat="59.9199726" lon="17.6986641">
        <ele>29.4575</ele>
        <time>2013-05-19T12:17:28Z</time>
      </trkpt>
      <trkpt lat="59.9199638" lon="17.6986931">
        <ele>29.9381</ele>
        <time>2013-05-19T12:17:29Z</time>
      </trkpt>
      <trkpt lat="59.9199552" lon="17.6987273">
        <ele>29.4575</ele>
        <time>2013-05-19T12:17:30Z</time>
      </trkpt>
      <trkpt lat="59.9199467" lon="17.6987599">
        <ele>29.4575</ele>
        <time>2013-05-19T12:17:31Z</time>
      </trkpt>
      <trkpt lat="59.9199404" lon="17.6987973">
        <ele>29.9381</ele>
        <time>2013-05-19T12:17:32Z</time>
      </trkpt>
      <trkpt lat="59.919939" lon="17.6988369">
        <ele>29.4575</ele>
        <time>2013-05-19T12:17:33Z</time>
      </trkpt>
      <trkpt lat="59.9199368" lon="17.6988801">
        <ele>29.4575</ele>
        <time>2013-05-19T12:17:34Z</time>
      </trkpt>
      <trkpt lat="59.9199286" lon="17.6989194">
        <ele>29.4575</ele>
        <time>2013-05-19T12:17:35Z</time>
      </trkpt>
      <trkpt lat="59.9199218" lon="17.6989555">
        <ele>29.9381</ele>
        <time>2013-05-19T12:17:36Z</time>
      </trkpt>
      <trkpt lat="59.9199125" lon="17.6989941">
        <ele>29.4575</ele>
        <time>2013-05-19T12:17:37Z</time>
      </trkpt>
      <trkpt lat="59.9199007" lon="17.6990297">
        <ele>28.9769</ele>
        <time>2013-05-19T12:17:38Z</time>
      </trkpt>
      <trkpt lat="59.9198885" lon="17.6990639">
        <ele>28.4962</ele>
        <time>2013-05-19T12:17:39Z</time>
      </trkpt>
      <trkpt lat="59.9198736" lon="17.6991012">
        <ele>28.0155</ele>
        <time>2013-05-19T12:17:40Z</time>
      </trkpt>
      <trkpt lat="59.9198586" lon="17.699133">
        <ele>28.0155</ele>
        <time>2013-05-19T12:17:41Z</time>
      </trkpt>
      <trkpt lat="59.9198452" lon="17.6991759">
        <ele>28.9769</ele>
        <time>2013-05-19T12:17:42Z</time>
      </trkpt>
      <trkpt lat="59.9198304" lon="17.6992229">
        <ele>30.8995</ele>
        <time>2013-05-19T12:17:43Z</time>
      </trkpt>
      <trkpt lat="59.9198161" lon="17.6992459">
        <ele>29.9381</ele>
        <time>2013-05-19T12:17:44Z</time>
      </trkpt>
      <trkpt lat="59.9198031" lon="17.6992713">
        <ele>29.4575</ele>
        <time>2013-05-19T12:17:45Z</time>
      </trkpt>
      <trkpt lat="59.9197888" lon="17.6993039">
        <ele>28.4962</ele>
        <time>2013-05-19T12:17:46Z</time>
      </trkpt>
      <trkpt lat="59.9197726" lon="17.6993347">
        <ele>28.0155</ele>
        <time>2013-05-19T12:17:47Z</time>
      </trkpt>
      <trkpt lat="59.9197559" lon="17.6993578">
        <ele>27.5349</ele>
        <time>2013-05-19T12:17:48Z</time>
      </trkpt>
      <trkpt lat="59.919741" lon="17.6993814">
        <ele>26.5736</ele>
        <time>2013-05-19T12:17:49Z</time>
      </trkpt>
      <trkpt lat="59.919727" lon="17.6994088">
        <ele>26.0929</ele>
        <time>2013-05-19T12:17:50Z</time>
      </trkpt>
      <trkpt lat="59.9197142" lon="17.6994381">
        <ele>25.6123</ele>
        <time>2013-05-19T12:17:51Z</time>
      </trkpt>
      <trkpt lat="59.9196994" lon="17.6994727">
        <ele>25.6123</ele>
        <time>2013-05-19T12:17:52Z</time>
      </trkpt>
      <trkpt lat="59.919687" lon="17.6995064">
        <ele>25.6123</ele>
        <time>2013-05-19T12:17:53Z</time>
      </trkpt>
      <trkpt lat="59.9196788" lon="17.699543">
        <ele>25.1317</ele>
        <time>2013-05-19T12:17:54Z</time>
      </trkpt>
      <trkpt lat="59.9196693" lon="17.6995823">
        <ele>24.651</ele>
        <time>2013-05-19T12:17:55Z</time>
      </trkpt>
      <trkpt lat="59.9196581" lon="17.6996084">
        <ele>24.1703</ele>
        <time>2013-05-19T12:17:56Z</time>
      </trkpt>
      <trkpt lat="59.9196451" lon="17.6996321">
        <ele>24.1703</ele>
        <time>2013-05-19T12:17:57Z</time>
      </trkpt>
      <trkpt lat="59.9196294" lon="17.6996593">
        <ele>23.209</ele>
        <time>2013-05-19T12:17:58Z</time>
      </trkpt>
      <trkpt lat="59.9196166" lon="17.6996976">
        <ele>24.1703</ele>
        <time>2013-05-19T12:17:59Z</time>
      </trkpt>
      <trkpt lat="59.9196014" lon="17.6997359">
        <ele>24.651</ele>
        <time>2013-05-19T12:18:00Z</time>
      </trkpt>
      <trkpt lat="59.9195882" lon="17.6997774">
        <ele>25.6123</ele>
        <time>2013-05-19T12:18:01Z</time>
      </trkpt>
      <trkpt lat="59.9195752" lon="17.6998213">
        <ele>26.5736</ele>
        <time>2013-05-19T12:18:02Z</time>
      </trkpt>
      <trkpt lat="59.9195618" lon="17.6998618">
        <ele>26.5736</ele>
        <time>2013-05-19T12:18:03Z</time>
      </trkpt>
      <trkpt lat="59.9195479" lon="17.6999014">
        <ele>27.0543</ele>
        <time>2013-05-19T12:18:04Z</time>
      </trkpt>
      <trkpt lat="59.9195354" lon="17.6999338">
        <ele>28.0155</ele>
        <time>2013-05-19T12:18:05Z</time>
      </trkpt>
      <trkpt lat="59.919524" lon="17.699955">
        <ele>28.0155</ele>
        <time>2013-05-19T12:18:06Z</time>
      </trkpt>
      <trkpt lat="59.9195135" lon="17.6999869">
        <ele>28.9769</ele>
        <time>2013-05-19T12:18:07Z</time>
      </trkpt>
      <trkpt lat="59.9195021" lon="17.7000248">
        <ele>28.9769</ele>
        <time>2013-05-19T12:18:08Z</time>
      </trkpt>
      <trkpt lat="59.9194912" lon="17.7000576">
        <ele>28.9769</ele>
        <time>2013-05-19T12:18:09Z</time>
      </trkpt>
      <trkpt lat="59.9194813" lon="17.7000817">
        <ele>28.4962</ele>
        <time>2013-05-19T12:18:10Z</time>
      </trkpt>
      <trkpt lat="59.9194738" lon="17.7001128">
        <ele>28.9769</ele>
        <time>2013-05-19T12:18:11Z</time>
      </trkpt>
      <trkpt lat="59.9194551" lon="17.7001547">
        <ele>29.9381</ele>
        <time>2013-05-19T12:18:12Z</time>
      </trkpt>
      <trkpt lat="59.9194406" lon="17.7001848">
        <ele>29.4575</ele>
        <time>2013-05-19T12:18:13Z</time>
      </trkpt>
      <trkpt lat="59.919429" lon="17.7002263">
        <ele>29.4575</ele>
        <time>2013-05-19T12:18:14Z</time>
      </trkpt>
      <trkpt lat="59.9194147" lon="17.7002578">
        <ele>28.9769</ele>
        <time>2013-05-19T12:18:15Z</time>
      </trkpt>
      <trkpt lat="59.9194033" lon="17.7002861">
        <ele>28.4962</ele>
        <time>2013-05-19T12:18:16Z</time>
      </trkpt>
      <trkpt lat="59.919393" lon="17.7003073">
        <ele>28.9769</ele>
        <time>2013-05-19T12:18:17Z</time>
      </trkpt>
      <trkpt lat="59.9193753" lon="17.7003331">
        <ele>28.0155</ele>
        <time>2013-05-19T12:18:18Z</time>
      </trkpt>
      <trkpt lat="59.9193564" lon="17.7003702">
        <ele>27.5349</ele>
        <time>2013-05-19T12:18:19Z</time>
      </trkpt>
      <trkpt lat="59.9193448" lon="17.7004072">
        <ele>27.5349</ele>
        <time>2013-05-19T12:18:20Z</time>
      </trkpt>
      <trkpt lat="59.9193336" lon="17.7004481">
        <ele>26.5736</ele>
        <time>2013-05-19T12:18:21Z</time>
      </trkpt>
      <trkpt lat="59.9193188" lon="17.7004875">
        <ele>25.6123</ele>
        <time>2013-05-19T12:18:22Z</time>
      </trkpt>
      <trkpt lat="59.9192924" lon="17.7005668">
        <ele>24.651</ele>
        <time>2013-05-19T12:18:24Z</time>
      </trkpt>
      <trkpt lat="59.919287" lon="17.7006098">
        <ele>24.1703</ele>
        <time>2013-05-19T12:18:25Z</time>
      </trkpt>
      <trkpt lat="59.9192889" lon="17.7006538">
        <ele>23.209</ele>
        <time>2013-05-19T12:18:26Z</time>
      </trkpt>
      <trkpt lat="59.9192897" lon="17.70069">
        <ele>23.209</ele>
        <time>2013-05-19T12:18:27Z</time>
      </trkpt>
      <trkpt lat="59.9192876" lon="17.7007345">
        <ele>22.7283</ele>
        <time>2013-05-19T12:18:28Z</time>
      </trkpt>
      <trkpt lat="59.9192824" lon="17.700776">
        <ele>22.2476</ele>
        <time>2013-05-19T12:18:29Z</time>
      </trkpt>
      <trkpt lat="59.9192691" lon="17.7008224">
        <ele>21.767</ele>
        <time>2013-05-19T12:18:30Z</time>
      </trkpt>
      <trkpt lat="59.9192593" lon="17.7008655">
        <ele>21.2864</ele>
        <time>2013-05-19T12:18:31Z</time>
      </trkpt>
      <trkpt lat="59.919248" lon="17.7009113">
        <ele>20.325</ele>
        <time>2013-05-19T12:18:32Z</time>
      </trkpt>
      <trkpt lat="59.9192432" lon="17.7009506">
        <ele>20.325</ele>
        <time>2013-05-19T12:18:33Z</time>
      </trkpt>
      <trkpt lat="59.9192406" lon="17.700992">
        <ele>20.325</ele>
        <time>2013-05-19T12:18:34Z</time>
      </trkpt>
      <trkpt lat="59.919239" lon="17.7010408">
        <ele>20.8057</ele>
        <time>2013-05-19T12:18:35Z</time>
      </trkpt>
      <trkpt lat="59.9192256" lon="17.701084">
        <ele>20.8057</ele>
        <time>2013-05-19T12:18:36Z</time>
      </trkpt>
      <trkpt lat="59.9192179" lon="17.7011329">
        <ele>22.2476</ele>
        <time>2013-05-19T12:18:37Z</time>
      </trkpt>
      <trkpt lat="59.9192006" lon="17.7011615">
        <ele>21.767</ele>
        <time>2013-05-19T12:18:38Z</time>
      </trkpt>
      <trkpt lat="59.9191883" lon="17.7011967">
        <ele>22.7283</ele>
        <time>2013-05-19T12:18:39Z</time>
      </trkpt>
      <trkpt lat="59.9191767" lon="17.701226">
        <ele>23.6896</ele>
        <time>2013-05-19T12:18:40Z</time>
      </trkpt>
      <trkpt lat="59.9191566" lon="17.7012434">
        <ele>23.6896</ele>
        <time>2013-05-19T12:18:41Z</time>
      </trkpt>
      <trkpt lat="59.9191347" lon="17.7012542">
        <ele>24.1703</ele>
        <time>2013-05-19T12:18:42Z</time>
      </trkpt>
      <trkpt lat="59.9191164" lon="17.7012654">
        <ele>24.1703</ele>
        <time>2013-05-19T12:18:43Z</time>
      </trkpt>
      <trkpt lat="59.9191028" lon="17.7012696">
        <ele>24.1703</ele>
        <time>2013-05-19T12:18:44Z</time>
      </trkpt>
      <trkpt lat="59.9190944" lon="17.7012744">
        <ele>24.651</ele>
        <time>2013-05-19T12:18:45Z</time>
      </trkpt>
      <trkpt lat="59.9190762" lon="17.7012852">
        <ele>24.651</ele>
        <time>2013-05-19T12:18:46Z</time>
      </trkpt>
      <trkpt lat="59.9190619" lon="17.7012868">
        <ele>25.1317</ele>
        <time>2013-05-19T12:18:47Z</time>
      </trkpt>
      <trkpt lat="59.9190483" lon="17.7012852">
        <ele>25.1317</ele>
        <time>2013-05-19T12:18:48Z</time>
      </trkpt>
      <trkpt lat="59.9190356" lon="17.7012749">
        <ele>25.1317</ele>
        <time>2013-05-19T12:18:49Z</time>
      </trkpt>
      <trkpt lat="59.9190214" lon="17.701263">
        <ele>24.1703</ele>
        <time>2013-05-19T12:18:50Z</time>
      </trkpt>
      <trkpt lat="59.9190083" lon="17.7012622">
        <ele>24.1703</ele>
        <time>2013-05-19T12:18:51Z</time>
      </trkpt>
      <trkpt lat="59.918997" lon="17.7012633">
        <ele>24.1703</ele>
        <time>2013-05-19T12:18:52Z</time>
      </trkpt>
      <trkpt lat="59.918983" lon="17.7012651">
        <ele>23.6896</ele>
        <time>2013-05-19T12:18:53Z</time>
      </trkpt>
      <trkpt lat="59.9189674" lon="17.7012578">
        <ele>22.7283</ele>
        <time>2013-05-19T12:18:54Z</time>
      </trkpt>
      <trkpt lat="59.918953" lon="17.7012457">
        <ele>22.7283</ele>
        <time>2013-05-19T12:18:55Z</time>
      </trkpt>
      <trkpt lat="59.9189387" lon="17.7012402">
        <ele>21.767</ele>
        <time>2013-05-19T12:18:56Z</time>
      </trkpt>
      <trkpt lat="59.9189246" lon="17.7012318">
        <ele>21.2864</ele>
        <time>2013-05-19T12:18:57Z</time>
      </trkpt>
      <trkpt lat="59.9189076" lon="17.7012246">
        <ele>19.8444</ele>
        <time>2013-05-19T12:18:58Z</time>
      </trkpt>
      <trkpt lat="59.9188868" lon="17.7012286">
        <ele>18.4023</ele>
        <time>2013-05-19T12:18:59Z</time>
      </trkpt>
      <trkpt lat="59.9188671" lon="17.701219">
        <ele>17.9218</ele>
        <time>2013-05-19T12:19:00Z</time>
      </trkpt>
      <trkpt lat="59.918848" lon="17.7012178">
        <ele>16.4797</ele>
        <time>2013-05-19T12:19:01Z</time>
      </trkpt>
      <trkpt lat="59.9188298" lon="17.7012252">
        <ele>14.557</ele>
        <time>2013-05-19T12:19:02Z</time>
      </trkpt>
      <trkpt lat="59.9188153" lon="17.70122">
        <ele>13.5958</ele>
        <time>2013-05-19T12:19:03Z</time>
      </trkpt>
      <trkpt lat="59.9187993" lon="17.7012169">
        <ele>11.1925</ele>
        <time>2013-05-19T12:19:04Z</time>
      </trkpt>
      <trkpt lat="59.9187838" lon="17.7012178">
        <ele>9.75061</ele>
        <time>2013-05-19T12:19:05Z</time>
      </trkpt>
      <trkpt lat="59.9187675" lon="17.7012188">
        <ele>8.30859</ele>
        <time>2013-05-19T12:19:06Z</time>
      </trkpt>
      <trkpt lat="59.9187545" lon="17.701206">
        <ele>7.34717</ele>
        <time>2013-05-19T12:19:07Z</time>
      </trkpt>
      <trkpt lat="59.9187422" lon="17.7011996">
        <ele>6.38586</ele>
        <time>2013-05-19T12:19:08Z</time>
      </trkpt>
      <trkpt lat="59.9187272" lon="17.7011944">
        <ele>4.94385</ele>
        <time>2013-05-19T12:19:09Z</time>
      </trkpt>
      <trkpt lat="59.9187128" lon="17.7011988">
        <ele>3.50195</ele>
        <time>2013-05-19T12:19:10Z</time>
      </trkpt>
      <trkpt lat="59.9186987" lon="17.7011915">
        <ele>2.06006</ele>
        <time>2013-05-19T12:19:11Z</time>
      </trkpt>
      <trkpt lat="59.9186807" lon="17.7011887">
        <ele>0</ele>
        <time>2013-05-19T12:19:12Z</time>
      </trkpt>
      <trkpt lat="59.9186625" lon="17.7011836">
        <ele>0</ele>
        <time>2013-05-19T12:19:13Z</time>
      </trkpt>
      <trkpt lat="59.9186454" lon="17.7011781">
        <ele>0</ele>
        <time>2013-05-19T12:19:14Z</time>
      </trkpt>
      <trkpt lat="59.9186299" lon="17.7011692">
        <ele>0</ele>
        <time>2013-05-19T12:19:15Z</time>
      </trkpt>
      <trkpt lat="59.9186172" lon="17.7011578">
        <ele>0</ele>
        <time>2013-05-19T12:19:16Z</time>
      </trkpt>
      <trkpt lat="59.9186053" lon="17.7011432">
        <ele>0</ele>
        <time>2013-05-19T12:19:17Z</time>
      </trkpt>
      <trkpt lat="59.9185921" lon="17.7011388">
        <ele>0</ele>
        <time>2013-05-19T12:19:18Z</time>
      </trkpt>
      <trkpt lat="59.9185758" lon="17.7011284">
        <ele>0</ele>
        <time>2013-05-19T12:19:19Z</time>
      </trkpt>
      <trkpt lat="59.918559" lon="17.7011138">
        <ele>0</ele>
        <time>2013-05-19T12:19:20Z</time>
      </trkpt>
      <trkpt lat="59.9185416" lon="17.7011064">
        <ele>0</ele>
        <time>2013-05-19T12:19:21Z</time>
      </trkpt>
      <trkpt lat="59.9185242" lon="17.701117">
        <ele>0</ele>
        <time>2013-05-19T12:19:22Z</time>
      </trkpt>
      <trkpt lat="59.9185088" lon="17.7011246">
        <ele>0</ele>
        <time>2013-05-19T12:19:23Z</time>
      </trkpt>
      <trkpt lat="59.9184922" lon="17.7011335">
        <ele>0</ele>
        <time>2013-05-19T12:19:24Z</time>
      </trkpt>
      <trkpt lat="59.9184755" lon="17.7011454">
        <ele>0</ele>
        <time>2013-05-19T12:19:25Z</time>
      </trkpt>
      <trkpt lat="59.918461" lon="17.7011529">
        <ele>0</ele>
        <time>2013-05-19T12:19:26Z</time>
      </trkpt>
      <trkpt lat="59.9184479" lon="17.7011587">
        <ele>0</ele>
        <time>2013-05-19T12:19:27Z</time>
      </trkpt>
      <trkpt lat="59.9184328" lon="17.7011681">
        <ele>0</ele>
        <time>2013-05-19T12:19:28Z</time>
      </trkpt>
      <trkpt lat="59.9184098" lon="17.7011749">
        <ele>0</ele>
        <time>2013-05-19T12:19:29Z</time>
      </trkpt>
      <trkpt lat="59.9183868" lon="17.7011882">
        <ele>0</ele>
        <time>2013-05-19T12:19:30Z</time>
      </trkpt>
      <trkpt lat="59.9183652" lon="17.7012012">
        <ele>0</ele>
        <time>2013-05-19T12:19:31Z</time>
      </trkpt>
      <trkpt lat="59.9183423" lon="17.7012187">
        <ele>0</ele>
        <time>2013-05-19T12:19:32Z</time>
      </trkpt>
      <trkpt lat="59.9183241" lon="17.7012314">
        <ele>0</ele>
        <time>2013-05-19T12:19:33Z</time>
      </trkpt>
      <trkpt lat="59.9183066" lon="17.7012483">
        <ele>0</ele>
        <time>2013-05-19T12:19:34Z</time>
      </trkpt>
      <trkpt lat="59.9182893" lon="17.7012556">
        <ele>0</ele>
        <time>2013-05-19T12:19:35Z</time>
      </trkpt>
      <trkpt lat="59.9182745" lon="17.7012562">
        <ele>0</ele>
        <time>2013-05-19T12:19:36Z</time>
      </trkpt>
      <trkpt lat="59.9182579" lon="17.7012529">
        <ele>0</ele>
        <time>2013-05-19T12:19:37Z</time>
      </trkpt>
      <trkpt lat="59.9182372" lon="17.7012604">
        <ele>0</ele>
        <time>2013-05-19T12:19:38Z</time>
      </trkpt>
      <trkpt lat="59.91822" lon="17.701254">
        <ele>0</ele>
        <time>2013-05-19T12:19:39Z</time>
      </trkpt>
      <trkpt lat="59.9182015" lon="17.7012424">
        <ele>0</ele>
        <time>2013-05-19T12:19:40Z</time>
      </trkpt>
      <trkpt lat="59.9181853" lon="17.7012314">
        <ele>0</ele>
        <time>2013-05-19T12:19:41Z</time>
      </trkpt>
      <trkpt lat="59.9181688" lon="17.7012237">
        <ele>0</ele>
        <time>2013-05-19T12:19:42Z</time>
      </trkpt>
      <trkpt lat="59.9181512" lon="17.7012121">
        <ele>0</ele>
        <time>2013-05-19T12:19:43Z</time>
      </trkpt>
      <trkpt lat="59.9181342" lon="17.7011967">
        <ele>0</ele>
        <time>2013-05-19T12:19:44Z</time>
      </trkpt>
      <trkpt lat="59.9181191" lon="17.7011796">
        <ele>0</ele>
        <time>2013-05-19T12:19:45Z</time>
      </trkpt>
      <trkpt lat="59.9181096" lon="17.7011537">
        <ele>0</ele>
        <time>2013-05-19T12:19:46Z</time>
      </trkpt>
      <trkpt lat="59.9180982" lon="17.7011291">
        <ele>0</ele>
        <time>2013-05-19T12:19:47Z</time>
      </trkpt>
      <trkpt lat="59.9180853" lon="17.7011039">
        <ele>0</ele>
        <time>2013-05-19T12:19:48Z</time>
      </trkpt>
      <trkpt lat="59.9180739" lon="17.7010802">
        <ele>0</ele>
        <time>2013-05-19T12:19:49Z</time>
      </trkpt>
      <trkpt lat="59.918059" lon="17.7010528">
        <ele>0</ele>
        <time>2013-05-19T12:19:50Z</time>
      </trkpt>
      <trkpt lat="59.9180466" lon="17.7010271">
        <ele>0</ele>
        <time>2013-05-19T12:19:51Z</time>
      </trkpt>
      <trkpt lat="59.9180365" lon="17.7009961">
        <ele>0</ele>
        <time>2013-05-19T12:19:52Z</time>
      </trkpt>
      <trkpt lat="59.9180227" lon="17.7009646">
        <ele>0</ele>
        <time>2013-05-19T12:19:53Z</time>
      </trkpt>
      <trkpt lat="59.9180051" lon="17.7009377">
        <ele>0</ele>
        <time>2013-05-19T12:19:54Z</time>
      </trkpt>
      <trkpt lat="59.9179876" lon="17.7009159">
        <ele>0</ele>
        <time>2013-05-19T12:19:55Z</time>
      </trkpt>
      <trkpt lat="59.9179663" lon="17.7008974">
        <ele>0</ele>
        <time>2013-05-19T12:19:56Z</time>
      </trkpt>
      <trkpt lat="59.9179336" lon="17.7008905">
        <ele>0</ele>
        <time>2013-05-19T12:19:57Z</time>
      </trkpt>
      <trkpt lat="59.9179009" lon="17.7008732">
        <ele>0</ele>
        <time>2013-05-19T12:19:58Z</time>
      </trkpt>
      <trkpt lat="59.9178663" lon="17.7008558">
        <ele>0</ele>
        <time>2013-05-19T12:19:59Z</time>
      </trkpt>
      <trkpt lat="59.9178283" lon="17.7008423">
        <ele>0</ele>
        <time>2013-05-19T12:20:00Z</time>
      </trkpt>
      <trkpt lat="59.9177943" lon="17.7008224">
        <ele>0</ele>
        <time>2013-05-19T12:20:01Z</time>
      </trkpt>
      <trkpt lat="59.9177635" lon="17.7007988">
        <ele>0</ele>
        <time>2013-05-19T12:20:02Z</time>
      </trkpt>
      <trkpt lat="59.9177363" lon="17.7007765">
        <ele>0</ele>
        <time>2013-05-19T12:20:03Z</time>
      </trkpt>
      <trkpt lat="59.9177104" lon="17.7007482">
        <ele>0.137451</ele>
        <time>2013-05-19T12:20:04Z</time>
      </trkpt>
      <trkpt lat="59.9176814" lon="17.7007222">
        <ele>3.02124</ele>
        <time>2013-05-19T12:20:05Z</time>
      </trkpt>
      <trkpt lat="59.917656" lon="17.7006862">
        <ele>5.90527</ele>
        <time>2013-05-19T12:20:06Z</time>
      </trkpt>
      <trkpt lat="59.9176343" lon="17.7006498">
        <ele>8.30859</ele>
        <time>2013-05-19T12:20:07Z</time>
      </trkpt>
      <trkpt lat="59.9176119" lon="17.700607">
        <ele>10.7118</ele>
        <time>2013-05-19T12:20:08Z</time>
      </trkpt>
      <trkpt lat="59.9175927" lon="17.7005693">
        <ele>12.6344</ele>
        <time>2013-05-19T12:20:09Z</time>
      </trkpt>
      <trkpt lat="59.9175747" lon="17.7005272">
        <ele>14.557</ele>
        <time>2013-05-19T12:20:10Z</time>
      </trkpt>
      <trkpt lat="59.9175586" lon="17.7004885">
        <ele>16.4797</ele>
        <time>2013-05-19T12:20:11Z</time>
      </trkpt>
      <trkpt lat="59.917544" lon="17.7004513">
        <ele>18.4023</ele>
        <time>2013-05-19T12:20:12Z</time>
      </trkpt>
      <trkpt lat="59.9175306" lon="17.7004122">
        <ele>19.3638</ele>
        <time>2013-05-19T12:20:13Z</time>
      </trkpt>
      <trkpt lat="59.9175187" lon="17.7003723">
        <ele>20.325</ele>
        <time>2013-05-19T12:20:14Z</time>
      </trkpt>
      <trkpt lat="59.9175069" lon="17.7003342">
        <ele>21.2864</ele>
        <time>2013-05-19T12:20:15Z</time>
      </trkpt>
      <trkpt lat="59.9174981" lon="17.7002956">
        <ele>22.2476</ele>
        <time>2013-05-19T12:20:16Z</time>
      </trkpt>
      <trkpt lat="59.9174902" lon="17.7002498">
        <ele>23.209</ele>
        <time>2013-05-19T12:20:17Z</time>
      </trkpt>
      <trkpt lat="59.9174835" lon="17.7002069">
        <ele>23.6896</ele>
        <time>2013-05-19T12:20:18Z</time>
      </trkpt>
      <trkpt lat="59.9174743" lon="17.7001705">
        <ele>24.651</ele>
        <time>2013-05-19T12:20:19Z</time>
      </trkpt>
      <trkpt lat="59.917459" lon="17.7001316">
        <ele>25.1317</ele>
        <time>2013-05-19T12:20:20Z</time>
      </trkpt>
      <trkpt lat="59.9174367" lon="17.7000943">
        <ele>26.5736</ele>
        <time>2013-05-19T12:20:21Z</time>
      </trkpt>
      <trkpt lat="59.9174135" lon="17.7000705">
        <ele>28.0155</ele>
        <time>2013-05-19T12:20:22Z</time>
      </trkpt>
      <trkpt lat="59.9173891" lon="17.7000515">
        <ele>28.9769</ele>
        <time>2013-05-19T12:20:23Z</time>
      </trkpt>
      <trkpt lat="59.9173633" lon="17.7000421">
        <ele>29.9381</ele>
        <time>2013-05-19T12:20:24Z</time>
      </trkpt>
      <trkpt lat="59.9173395" lon="17.7000285">
        <ele>30.4188</ele>
        <time>2013-05-19T12:20:25Z</time>
      </trkpt>
      <trkpt lat="59.9173144" lon="17.7000207">
        <ele>31.3801</ele>
        <time>2013-05-19T12:20:26Z</time>
      </trkpt>
      <trkpt lat="59.9172878" lon="17.700013">
        <ele>32.8223</ele>
        <time>2013-05-19T12:20:27Z</time>
      </trkpt>
      <trkpt lat="59.9172629" lon="17.7000026">
        <ele>33.7834</ele>
        <time>2013-05-19T12:20:28Z</time>
      </trkpt>
      <trkpt lat="59.9172393" lon="17.699991">
        <ele>34.2642</ele>
        <time>2013-05-19T12:20:29Z</time>
      </trkpt>
      <trkpt lat="59.9172177" lon="17.6999688">
        <ele>34.7449</ele>
        <time>2013-05-19T12:20:30Z</time>
      </trkpt>
      <trkpt lat="59.9171986" lon="17.6999452">
        <ele>35.7061</ele>
        <time>2013-05-19T12:20:31Z</time>
      </trkpt>
      <trkpt lat="59.9171753" lon="17.6999261">
        <ele>35.7061</ele>
        <time>2013-05-19T12:20:32Z</time>
      </trkpt>
      <trkpt lat="59.9171561" lon="17.6999102">
        <ele>36.6675</ele>
        <time>2013-05-19T12:20:33Z</time>
      </trkpt>
      <trkpt lat="59.9171358" lon="17.6999136">
        <ele>37.6287</ele>
        <time>2013-05-19T12:20:34Z</time>
      </trkpt>
      <trkpt lat="59.9171176" lon="17.6999118">
        <ele>37.6287</ele>
        <time>2013-05-19T12:20:35Z</time>
      </trkpt>
      <trkpt lat="59.9170949" lon="17.6998992">
        <ele>37.6287</ele>
        <time>2013-05-19T12:20:36Z</time>
      </trkpt>
      <trkpt lat="59.9170739" lon="17.6999041">
        <ele>38.5901</ele>
        <time>2013-05-19T12:20:37Z</time>
      </trkpt>
      <trkpt lat="59.9170557" lon="17.6999118">
        <ele>39.0707</ele>
        <time>2013-05-19T12:20:38Z</time>
      </trkpt>
      <trkpt lat="59.9170407" lon="17.6999094">
        <ele>39.0707</ele>
        <time>2013-05-19T12:20:39Z</time>
      </trkpt>
      <trkpt lat="59.9170202" lon="17.6999095">
        <ele>39.0707</ele>
        <time>2013-05-19T12:20:40Z</time>
      </trkpt>
      <trkpt lat="59.9169987" lon="17.6999006">
        <ele>39.5513</ele>
        <time>2013-05-19T12:20:41Z</time>
      </trkpt>
      <trkpt lat="59.9169821" lon="17.6998927">
        <ele>38.5901</ele>
        <time>2013-05-19T12:20:42Z</time>
      </trkpt>
      <trkpt lat="59.9169661" lon="17.6998757">
        <ele>38.5901</ele>
        <time>2013-05-19T12:20:43Z</time>
      </trkpt>
      <trkpt lat="59.9169478" lon="17.6998636">
        <ele>37.6287</ele>
        <time>2013-05-19T12:20:44Z</time>
      </trkpt>
      <trkpt lat="59.9169292" lon="17.6998548">
        <ele>37.6287</ele>
        <time>2013-05-19T12:20:45Z</time>
      </trkpt>
      <trkpt lat="59.9169126" lon="17.6998444">
        <ele>38.1094</ele>
        <time>2013-05-19T12:20:46Z</time>
      </trkpt>
      <trkpt lat="59.9169" lon="17.69984">
        <ele>37.1481</ele>
        <time>2013-05-19T12:20:47Z</time>
      </trkpt>
      <trkpt lat="59.9168852" lon="17.6998395">
        <ele>36.6675</ele>
        <time>2013-05-19T12:20:48Z</time>
      </trkpt>
      <trkpt lat="59.9168712" lon="17.6998442">
        <ele>35.7061</ele>
        <time>2013-05-19T12:20:49Z</time>
      </trkpt>
      <trkpt lat="59.9168526" lon="17.6998497">
        <ele>35.7061</ele>
        <time>2013-05-19T12:20:50Z</time>
      </trkpt>
      <trkpt lat="59.9168283" lon="17.6998603">
        <ele>35.7061</ele>
        <time>2013-05-19T12:20:51Z</time>
      </trkpt>
      <trkpt lat="59.9167966" lon="17.6998818">
        <ele>36.1868</ele>
        <time>2013-05-19T12:20:52Z</time>
      </trkpt>
      <trkpt lat="59.9167672" lon="17.6999026">
        <ele>37.1481</ele>
        <time>2013-05-19T12:20:53Z</time>
      </trkpt>
      <trkpt lat="59.9167407" lon="17.6999187">
        <ele>37.1481</ele>
        <time>2013-05-19T12:20:54Z</time>
      </trkpt>
      <trkpt lat="59.9167177" lon="17.6999383">
        <ele>37.1481</ele>
        <time>2013-05-19T12:20:55Z</time>
      </trkpt>
      <trkpt lat="59.9166998" lon="17.699952">
        <ele>37.1481</ele>
        <time>2013-05-19T12:20:56Z</time>
      </trkpt>
      <trkpt lat="59.9166811" lon="17.6999571">
        <ele>37.1481</ele>
        <time>2013-05-19T12:20:57Z</time>
      </trkpt>
      <trkpt lat="59.9166589" lon="17.6999689">
        <ele>36.1868</ele>
        <time>2013-05-19T12:20:58Z</time>
      </trkpt>
      <trkpt lat="59.9166355" lon="17.6999891">
        <ele>36.1868</ele>
        <time>2013-05-19T12:20:59Z</time>
      </trkpt>
      <trkpt lat="59.9166141" lon="17.7000121">
        <ele>36.6675</ele>
        <time>2013-05-19T12:21:00Z</time>
      </trkpt>
      <trkpt lat="59.9165937" lon="17.7000368">
        <ele>36.6675</ele>
        <time>2013-05-19T12:21:01Z</time>
      </trkpt>
      <trkpt lat="59.9165697" lon="17.700062">
        <ele>37.6287</ele>
        <time>2013-05-19T12:21:02Z</time>
      </trkpt>
      <trkpt lat="59.9165445" lon="17.7000793">
        <ele>37.1481</ele>
        <time>2013-05-19T12:21:03Z</time>
      </trkpt>
      <trkpt lat="59.9165235" lon="17.7000845">
        <ele>37.6287</ele>
        <time>2013-05-19T12:21:04Z</time>
      </trkpt>
      <trkpt lat="59.9164991" lon="17.7000954">
        <ele>37.6287</ele>
        <time>2013-05-19T12:21:05Z</time>
      </trkpt>
      <trkpt lat="59.9164779" lon="17.7001117">
        <ele>37.6287</ele>
        <time>2013-05-19T12:21:06Z</time>
      </trkpt>
      <trkpt lat="59.9164615" lon="17.7001301">
        <ele>37.1481</ele>
        <time>2013-05-19T12:21:07Z</time>
      </trkpt>
      <trkpt lat="59.9164432" lon="17.7001468">
        <ele>36.6675</ele>
        <time>2013-05-19T12:21:08Z</time>
      </trkpt>
      <trkpt lat="59.9164245" lon="17.7001684">
        <ele>37.6287</ele>
        <time>2013-05-19T12:21:09Z</time>
      </trkpt>
      <trkpt lat="59.9164097" lon="17.7001964">
        <ele>37.1481</ele>
        <time>2013-05-19T12:21:10Z</time>
      </trkpt>
      <trkpt lat="59.9163961" lon="17.7002233">
        <ele>37.1481</ele>
        <time>2013-05-19T12:21:11Z</time>
      </trkpt>
      <trkpt lat="59.9163849" lon="17.7002584">
        <ele>37.6287</ele>
        <time>2013-05-19T12:21:12Z</time>
      </trkpt>
      <trkpt lat="59.9163797" lon="17.7002932">
        <ele>37.6287</ele>
        <time>2013-05-19T12:21:13Z</time>
      </trkpt>
      <trkpt lat="59.9163745" lon="17.7003259">
        <ele>37.6287</ele>
        <time>2013-05-19T12:21:14Z</time>
      </trkpt>
      <trkpt lat="59.9163677" lon="17.7003632">
        <ele>38.5901</ele>
        <time>2013-05-19T12:21:15Z</time>
      </trkpt>
      <trkpt lat="59.9163522" lon="17.7004098">
        <ele>39.0707</ele>
        <time>2013-05-19T12:21:16Z</time>
      </trkpt>
      <trkpt lat="59.9163377" lon="17.7004591">
        <ele>40.5128</ele>
        <time>2013-05-19T12:21:17Z</time>
      </trkpt>
      <trkpt lat="59.9163216" lon="17.7005085">
        <ele>41.474</ele>
        <time>2013-05-19T12:21:18Z</time>
      </trkpt>
      <trkpt lat="59.9163051" lon="17.7005616">
        <ele>41.9547</ele>
        <time>2013-05-19T12:21:19Z</time>
      </trkpt>
      <trkpt lat="59.91629" lon="17.7006087">
        <ele>41.9547</ele>
        <time>2013-05-19T12:21:20Z</time>
      </trkpt>
      <trkpt lat="59.9162767" lon="17.700661">
        <ele>42.916</ele>
        <time>2013-05-19T12:21:21Z</time>
      </trkpt>
      <trkpt lat="59.9162698" lon="17.70071">
        <ele>43.3966</ele>
        <time>2013-05-19T12:21:22Z</time>
      </trkpt>
      <trkpt lat="59.9162649" lon="17.700757">
        <ele>43.8773</ele>
        <time>2013-05-19T12:21:23Z</time>
      </trkpt>
      <trkpt lat="59.9162636" lon="17.7007953">
        <ele>43.3966</ele>
        <time>2013-05-19T12:21:24Z</time>
      </trkpt>
      <trkpt lat="59.9162588" lon="17.7008271">
        <ele>42.916</ele>
        <time>2013-05-19T12:21:25Z</time>
      </trkpt>
      <trkpt lat="59.9162494" lon="17.7008568">
        <ele>42.4354</ele>
        <time>2013-05-19T12:21:26Z</time>
      </trkpt>
      <trkpt lat="59.9162406" lon="17.7008909">
        <ele>42.916</ele>
        <time>2013-05-19T12:21:27Z</time>
      </trkpt>
      <trkpt lat="59.9162294" lon="17.7009247">
        <ele>42.916</ele>
        <time>2013-05-19T12:21:28Z</time>
      </trkpt>
      <trkpt lat="59.916218" lon="17.7009552">
        <ele>42.916</ele>
        <time>2013-05-19T12:21:29Z</time>
      </trkpt>
      <trkpt lat="59.916206" lon="17.700983">
        <ele>42.916</ele>
        <time>2013-05-19T12:21:30Z</time>
      </trkpt>
      <trkpt lat="59.9161937" lon="17.7010056">
        <ele>41.9547</ele>
        <time>2013-05-19T12:21:31Z</time>
      </trkpt>
      <trkpt lat="59.9161819" lon="17.7010236">
        <ele>41.474</ele>
        <time>2013-05-19T12:21:32Z</time>
      </trkpt>
      <trkpt lat="59.9161723" lon="17.7010454">
        <ele>40.5128</ele>
        <time>2013-05-19T12:21:33Z</time>
      </trkpt>
      <trkpt lat="59.9161622" lon="17.7010712">
        <ele>40.0321</ele>
        <time>2013-05-19T12:21:34Z</time>
      </trkpt>
      <trkpt lat="59.916147" lon="17.701095">
        <ele>39.5513</ele>
        <time>2013-05-19T12:21:35Z</time>
      </trkpt>
      <trkpt lat="59.91613" lon="17.7011165">
        <ele>39.5513</ele>
        <time>2013-05-19T12:21:36Z</time>
      </trkpt>
      <trkpt lat="59.9161155" lon="17.701135">
        <ele>39.0707</ele>
        <time>2013-05-19T12:21:37Z</time>
      </trkpt>
      <trkpt lat="59.9161016" lon="17.7011609">
        <ele>39.0707</ele>
        <time>2013-05-19T12:21:38Z</time>
      </trkpt>
      <trkpt lat="59.916086" lon="17.7011873">
        <ele>39.0707</ele>
        <time>2013-05-19T12:21:39Z</time>
      </trkpt>
      <trkpt lat="59.9160651" lon="17.7012143">
        <ele>38.1094</ele>
        <time>2013-05-19T12:21:40Z</time>
      </trkpt>
      <trkpt lat="59.9160459" lon="17.7012442">
        <ele>37.6287</ele>
        <time>2013-05-19T12:21:41Z</time>
      </trkpt>
      <trkpt lat="59.9160283" lon="17.701277">
        <ele>37.6287</ele>
        <time>2013-05-19T12:21:42Z</time>
      </trkpt>
      <trkpt lat="59.9160124" lon="17.7013045">
        <ele>37.6287</ele>
        <time>2013-05-19T12:21:43Z</time>
      </trkpt>
      <trkpt lat="59.9159997" lon="17.7013292">
        <ele>37.1481</ele>
        <time>2013-05-19T12:21:44Z</time>
      </trkpt>
      <trkpt lat="59.9159829" lon="17.7013597">
        <ele>37.1481</ele>
        <time>2013-05-19T12:21:45Z</time>
      </trkpt>
      <trkpt lat="59.9159655" lon="17.7013853">
        <ele>37.1481</ele>
        <time>2013-05-19T12:21:46Z</time>
      </trkpt>
      <trkpt lat="59.9159507" lon="17.7014096">
        <ele>36.1868</ele>
        <time>2013-05-19T12:21:47Z</time>
      </trkpt>
      <trkpt lat="59.915934" lon="17.7014277">
        <ele>35.2255</ele>
        <time>2013-05-19T12:21:48Z</time>
      </trkpt>
      <trkpt lat="59.9159174" lon="17.701449">
        <ele>34.7449</ele>
        <time>2013-05-19T12:21:49Z</time>
      </trkpt>
      <trkpt lat="59.9158983" lon="17.7014737">
        <ele>34.2642</ele>
        <time>2013-05-19T12:21:50Z</time>
      </trkpt>
      <trkpt lat="59.9158797" lon="17.7014938">
        <ele>33.7834</ele>
        <time>2013-05-19T12:21:51Z</time>
      </trkpt>
      <trkpt lat="59.915862" lon="17.701514">
        <ele>34.2642</ele>
        <time>2013-05-19T12:21:52Z</time>
      </trkpt>
      <trkpt lat="59.9158426" lon="17.7015368">
        <ele>34.2642</ele>
        <time>2013-05-19T12:21:53Z</time>
      </trkpt>
      <trkpt lat="59.9158243" lon="17.7015576">
        <ele>33.7834</ele>
        <time>2013-05-19T12:21:54Z</time>
      </trkpt>
      <trkpt lat="59.9158103" lon="17.7015794">
        <ele>33.7834</ele>
        <time>2013-05-19T12:21:55Z</time>
      </trkpt>
      <trkpt lat="59.9157951" lon="17.7015966">
        <ele>33.3029</ele>
        <time>2013-05-19T12:21:56Z</time>
      </trkpt>
      <trkpt lat="59.9157775" lon="17.7016122">
        <ele>32.8223</ele>
        <time>2013-05-19T12:21:57Z</time>
      </trkpt>
      <trkpt lat="59.9157584" lon="17.7016287">
        <ele>32.8223</ele>
        <time>2013-05-19T12:21:58Z</time>
      </trkpt>
      <trkpt lat="59.9157392" lon="17.7016503">
        <ele>32.8223</ele>
        <time>2013-05-19T12:21:59Z</time>
      </trkpt>
      <trkpt lat="59.9157151" lon="17.7016756">
        <ele>33.7834</ele>
        <time>2013-05-19T12:22:00Z</time>
      </trkpt>
      <trkpt lat="59.9156921" lon="17.7017069">
        <ele>34.2642</ele>
        <time>2013-05-19T12:22:01Z</time>
      </trkpt>
      <trkpt lat="59.91567" lon="17.7017354">
        <ele>33.7834</ele>
        <time>2013-05-19T12:22:02Z</time>
      </trkpt>
      <trkpt lat="59.9156525" lon="17.7017507">
        <ele>32.8223</ele>
        <time>2013-05-19T12:22:03Z</time>
      </trkpt>
      <trkpt lat="59.9156395" lon="17.7017658">
        <ele>32.3416</ele>
        <time>2013-05-19T12:22:04Z</time>
      </trkpt>
      <trkpt lat="59.9156253" lon="17.7017805">
        <ele>32.3416</ele>
        <time>2013-05-19T12:22:05Z</time>
      </trkpt>
      <trkpt lat="59.915606" lon="17.7017922">
        <ele>31.8607</ele>
        <time>2013-05-19T12:22:06Z</time>
      </trkpt>
      <trkpt lat="59.9155859" lon="17.7018012">
        <ele>30.8995</ele>
        <time>2013-05-19T12:22:07Z</time>
      </trkpt>
      <trkpt lat="59.9155647" lon="17.7018199">
        <ele>30.8995</ele>
        <time>2013-05-19T12:22:08Z</time>
      </trkpt>
      <trkpt lat="59.9155419" lon="17.70184">
        <ele>30.8995</ele>
        <time>2013-05-19T12:22:09Z</time>
      </trkpt>
      <trkpt lat="59.9155191" lon="17.7018421">
        <ele>29.9381</ele>
        <time>2013-05-19T12:22:10Z</time>
      </trkpt>
      <trkpt lat="59.9154995" lon="17.7018414">
        <ele>29.4575</ele>
        <time>2013-05-19T12:22:11Z</time>
      </trkpt>
      <trkpt lat="59.9154814" lon="17.7018347">
        <ele>28.9769</ele>
        <time>2013-05-19T12:22:12Z</time>
      </trkpt>
      <trkpt lat="59.9154669" lon="17.7018213">
        <ele>28.4962</ele>
        <time>2013-05-19T12:22:13Z</time>
      </trkpt>
      <trkpt lat="59.9154476" lon="17.70181">
        <ele>28.4962</ele>
        <time>2013-05-19T12:22:14Z</time>
      </trkpt>
      <trkpt lat="59.9154279" lon="17.7017929">
        <ele>28.4962</ele>
        <time>2013-05-19T12:22:15Z</time>
      </trkpt>
      <trkpt lat="59.9154088" lon="17.7017751">
        <ele>28.4962</ele>
        <time>2013-05-19T12:22:16Z</time>
      </trkpt>
      <trkpt lat="59.9153902" lon="17.7017603">
        <ele>28.4962</ele>
        <time>2013-05-19T12:22:17Z</time>
      </trkpt>
      <trkpt lat="59.9153701" lon="17.701751">
        <ele>28.4962</ele>
        <time>2013-05-19T12:22:18Z</time>
      </trkpt>
      <trkpt lat="59.9153515" lon="17.7017417">
        <ele>28.0155</ele>
        <time>2013-05-19T12:22:19Z</time>
      </trkpt>
      <trkpt lat="59.9153291" lon="17.7017296">
        <ele>28.0155</ele>
        <time>2013-05-19T12:22:20Z</time>
      </trkpt>
      <trkpt lat="59.9153064" lon="17.7017147">
        <ele>28.4962</ele>
        <time>2013-05-19T12:22:21Z</time>
      </trkpt>
      <trkpt lat="59.9152793" lon="17.7017075">
        <ele>29.9381</ele>
        <time>2013-05-19T12:22:22Z</time>
      </trkpt>
      <trkpt lat="59.9152583" lon="17.7016981">
        <ele>30.4188</ele>
        <time>2013-05-19T12:22:23Z</time>
      </trkpt>
      <trkpt lat="59.9152403" lon="17.7016915">
        <ele>30.4188</ele>
        <time>2013-05-19T12:22:24Z</time>
      </trkpt>
      <trkpt lat="59.9152212" lon="17.7016852">
        <ele>30.4188</ele>
        <time>2013-05-19T12:22:25Z</time>
      </trkpt>
      <trkpt lat="59.9151996" lon="17.7016764">
        <ele>30.4188</ele>
        <time>2013-05-19T12:22:26Z</time>
      </trkpt>
      <trkpt lat="59.9151772" lon="17.7016743">
        <ele>30.8995</ele>
        <time>2013-05-19T12:22:27Z</time>
      </trkpt>
      <trkpt lat="59.9151549" lon="17.7016778">
        <ele>30.8995</ele>
        <time>2013-05-19T12:22:28Z</time>
      </trkpt>
      <trkpt lat="59.9151312" lon="17.7016821">
        <ele>31.3801</ele>
        <time>2013-05-19T12:22:29Z</time>
      </trkpt>
      <trkpt lat="59.9151074" lon="17.7016836">
        <ele>31.3801</ele>
        <time>2013-05-19T12:22:30Z</time>
      </trkpt>
      <trkpt lat="59.9150856" lon="17.7016824">
        <ele>30.8995</ele>
        <time>2013-05-19T12:22:31Z</time>
      </trkpt>
      <trkpt lat="59.9150622" lon="17.7016808">
        <ele>30.8995</ele>
        <time>2013-05-19T12:22:32Z</time>
      </trkpt>
      <trkpt lat="59.9150376" lon="17.7016777">
        <ele>30.4188</ele>
        <time>2013-05-19T12:22:33Z</time>
      </trkpt>
      <trkpt lat="59.9150146" lon="17.7016739">
        <ele>30.8995</ele>
        <time>2013-05-19T12:22:34Z</time>
      </trkpt>
      <trkpt lat="59.9149917" lon="17.7016706">
        <ele>30.4188</ele>
        <time>2013-05-19T12:22:35Z</time>
      </trkpt>
      <trkpt lat="59.9149673" lon="17.7016618">
        <ele>30.4188</ele>
        <time>2013-05-19T12:22:36Z</time>
      </trkpt>
      <trkpt lat="59.9149447" lon="17.7016536">
        <ele>30.4188</ele>
        <time>2013-05-19T12:22:37Z</time>
      </trkpt>
      <trkpt lat="59.914922" lon="17.7016521">
        <ele>30.4188</ele>
        <time>2013-05-19T12:22:38Z</time>
      </trkpt>
      <trkpt lat="59.9148976" lon="17.7016571">
        <ele>30.8995</ele>
        <time>2013-05-19T12:22:39Z</time>
      </trkpt>
      <trkpt lat="59.9148728" lon="17.7016587">
        <ele>30.8995</ele>
        <time>2013-05-19T12:22:40Z</time>
      </trkpt>
      <trkpt lat="59.9148536" lon="17.7016468">
        <ele>30.8995</ele>
        <time>2013-05-19T12:22:41Z</time>
      </trkpt>
      <trkpt lat="59.9148354" lon="17.7016321">
        <ele>30.8995</ele>
        <time>2013-05-19T12:22:42Z</time>
      </trkpt>
      <trkpt lat="59.9148147" lon="17.701627">
        <ele>30.4188</ele>
        <time>2013-05-19T12:22:43Z</time>
      </trkpt>
      <trkpt lat="59.9147923" lon="17.7016233">
        <ele>30.4188</ele>
        <time>2013-05-19T12:22:44Z</time>
      </trkpt>
      <trkpt lat="59.9147685" lon="17.7016207">
        <ele>30.8995</ele>
        <time>2013-05-19T12:22:45Z</time>
      </trkpt>
      <trkpt lat="59.9147472" lon="17.7016204">
        <ele>30.4188</ele>
        <time>2013-05-19T12:22:46Z</time>
      </trkpt>
      <trkpt lat="59.9147267" lon="17.7016214">
        <ele>30.4188</ele>
        <time>2013-05-19T12:22:47Z</time>
      </trkpt>
      <trkpt lat="59.9147035" lon="17.7016305">
        <ele>30.8995</ele>
        <time>2013-05-19T12:22:48Z</time>
      </trkpt>
      <trkpt lat="59.9146769" lon="17.7016395">
        <ele>31.3801</ele>
        <time>2013-05-19T12:22:49Z</time>
      </trkpt>
      <trkpt lat="59.9146547" lon="17.7016437">
        <ele>31.8607</ele>
        <time>2013-05-19T12:22:50Z</time>
      </trkpt>
      <trkpt lat="59.9146325" lon="17.7016547">
        <ele>32.3416</ele>
        <time>2013-05-19T12:22:51Z</time>
      </trkpt>
      <trkpt lat="59.9146086" lon="17.7016669">
        <ele>32.8223</ele>
        <time>2013-05-19T12:22:52Z</time>
      </trkpt>
      <trkpt lat="59.9145815" lon="17.7016778">
        <ele>32.8223</ele>
        <time>2013-05-19T12:22:53Z</time>
      </trkpt>
      <trkpt lat="59.9145562" lon="17.7016858">
        <ele>33.3029</ele>
        <time>2013-05-19T12:22:54Z</time>
      </trkpt>
      <trkpt lat="59.9145333" lon="17.7016919">
        <ele>33.3029</ele>
        <time>2013-05-19T12:22:55Z</time>
      </trkpt>
      <trkpt lat="59.9145092" lon="17.7016943">
        <ele>33.7834</ele>
        <time>2013-05-19T12:22:56Z</time>
      </trkpt>
      <trkpt lat="59.9144873" lon="17.7016938">
        <ele>33.7834</ele>
        <time>2013-05-19T12:22:57Z</time>
      </trkpt>
      <trkpt lat="59.9144688" lon="17.7016953">
        <ele>33.3029</ele>
        <time>2013-05-19T12:22:58Z</time>
      </trkpt>
      <trkpt lat="59.9144505" lon="17.7017002">
        <ele>33.3029</ele>
        <time>2013-05-19T12:22:59Z</time>
      </trkpt>
      <trkpt lat="59.9144283" lon="17.7017063">
        <ele>33.3029</ele>
        <time>2013-05-19T12:23:00Z</time>
      </trkpt>
      <trkpt lat="59.9144024" lon="17.7017202">
        <ele>32.8223</ele>
        <time>2013-05-19T12:23:01Z</time>
      </trkpt>
      <trkpt lat="59.914377" lon="17.7017375">
        <ele>32.8223</ele>
        <time>2013-05-19T12:23:02Z</time>
      </trkpt>
      <trkpt lat="59.9143554" lon="17.7017582">
        <ele>33.3029</ele>
        <time>2013-05-19T12:23:03Z</time>
      </trkpt>
      <trkpt lat="59.9143329" lon="17.7017834">
        <ele>33.3029</ele>
        <time>2013-05-19T12:23:04Z</time>
      </trkpt>
      <trkpt lat="59.9143093" lon="17.7018017">
        <ele>33.3029</ele>
        <time>2013-05-19T12:23:05Z</time>
      </trkpt>
      <trkpt lat="59.9142887" lon="17.7018155">
        <ele>33.3029</ele>
        <time>2013-05-19T12:23:06Z</time>
      </trkpt>
      <trkpt lat="59.9142646" lon="17.7018391">
        <ele>33.7834</ele>
        <time>2013-05-19T12:23:07Z</time>
      </trkpt>
      <trkpt lat="59.9142426" lon="17.701869">
        <ele>34.2642</ele>
        <time>2013-05-19T12:23:08Z</time>
      </trkpt>
      <trkpt lat="59.9142272" lon="17.7019043">
        <ele>35.2255</ele>
        <time>2013-05-19T12:23:09Z</time>
      </trkpt>
      <trkpt lat="59.9142184" lon="17.7019467">
        <ele>35.7061</ele>
        <time>2013-05-19T12:23:10Z</time>
      </trkpt>
      <trkpt lat="59.914208" lon="17.7019945">
        <ele>36.1868</ele>
        <time>2013-05-19T12:23:11Z</time>
      </trkpt>
      <trkpt lat="59.9141983" lon="17.7020424">
        <ele>36.6675</ele>
        <time>2013-05-19T12:23:12Z</time>
      </trkpt>
      <trkpt lat="59.9141914" lon="17.7020876">
        <ele>37.6287</ele>
        <time>2013-05-19T12:23:13Z</time>
      </trkpt>
      <trkpt lat="59.9141828" lon="17.7021357">
        <ele>38.1094</ele>
        <time>2013-05-19T12:23:14Z</time>
      </trkpt>
      <trkpt lat="59.9141759" lon="17.7021836">
        <ele>39.5513</ele>
        <time>2013-05-19T12:23:15Z</time>
      </trkpt>
      <trkpt lat="59.9141663" lon="17.7022264">
        <ele>39.5513</ele>
        <time>2013-05-19T12:23:16Z</time>
      </trkpt>
      <trkpt lat="59.9141566" lon="17.7022665">
        <ele>40.5128</ele>
        <time>2013-05-19T12:23:17Z</time>
      </trkpt>
      <trkpt lat="59.9141422" lon="17.7023026">
        <ele>40.5128</ele>
        <time>2013-05-19T12:23:18Z</time>
      </trkpt>
      <trkpt lat="59.9141309" lon="17.7023362">
        <ele>40.9934</ele>
        <time>2013-05-19T12:23:19Z</time>
      </trkpt>
      <trkpt lat="59.9141201" lon="17.7023736">
        <ele>41.474</ele>
        <time>2013-05-19T12:23:20Z</time>
      </trkpt>
      <trkpt lat="59.9141086" lon="17.7024149">
        <ele>41.9547</ele>
        <time>2013-05-19T12:23:21Z</time>
      </trkpt>
      <trkpt lat="59.9140953" lon="17.7024503">
        <ele>41.9547</ele>
        <time>2013-05-19T12:23:22Z</time>
      </trkpt>
      <trkpt lat="59.9140786" lon="17.7024759">
        <ele>42.4354</ele>
        <time>2013-05-19T12:23:23Z</time>
      </trkpt>
      <trkpt lat="59.9140554" lon="17.7024979">
        <ele>42.4354</ele>
        <time>2013-05-19T12:23:24Z</time>
      </trkpt>
      <trkpt lat="59.91403" lon="17.7025273">
        <ele>42.4354</ele>
        <time>2013-05-19T12:23:25Z</time>
      </trkpt>
      <trkpt lat="59.9140043" lon="17.702558">
        <ele>42.4354</ele>
        <time>2013-05-19T12:23:26Z</time>
      </trkpt>
      <trkpt lat="59.9139813" lon="17.7025906">
        <ele>42.4354</ele>
        <time>2013-05-19T12:23:27Z</time>
      </trkpt>
      <trkpt lat="59.9139616" lon="17.7026267">
        <ele>42.4354</ele>
        <time>2013-05-19T12:23:28Z</time>
      </trkpt>
      <trkpt lat="59.9139444" lon="17.7026601">
        <ele>42.916</ele>
        <time>2013-05-19T12:23:29Z</time>
      </trkpt>
      <trkpt lat="59.913932" lon="17.7026901">
        <ele>42.916</ele>
        <time>2013-05-19T12:23:30Z</time>
      </trkpt>
      <trkpt lat="59.9139243" lon="17.7027253">
        <ele>43.3966</ele>
        <time>2013-05-19T12:23:31Z</time>
      </trkpt>
      <trkpt lat="59.9139113" lon="17.7027636">
        <ele>43.8773</ele>
        <time>2013-05-19T12:23:32Z</time>
      </trkpt>
      <trkpt lat="59.9138945" lon="17.702802">
        <ele>44.358</ele>
        <time>2013-05-19T12:23:33Z</time>
      </trkpt>
      <trkpt lat="59.9138806" lon="17.7028408">
        <ele>44.358</ele>
        <time>2013-05-19T12:23:34Z</time>
      </trkpt>
      <trkpt lat="59.9138664" lon="17.7028853">
        <ele>44.8386</ele>
        <time>2013-05-19T12:23:35Z</time>
      </trkpt>
      <trkpt lat="59.9138534" lon="17.7029305">
        <ele>45.3192</ele>
        <time>2013-05-19T12:23:36Z</time>
      </trkpt>
      <trkpt lat="59.9138408" lon="17.702973">
        <ele>45.3192</ele>
        <time>2013-05-19T12:23:37Z</time>
      </trkpt>
      <trkpt lat="59.913826" lon="17.7030163">
        <ele>45.3192</ele>
        <time>2013-05-19T12:23:38Z</time>
      </trkpt>
      <trkpt lat="59.9138106" lon="17.7030563">
        <ele>45.7999</ele>
        <time>2013-05-19T12:23:39Z</time>
      </trkpt>
      <trkpt lat="59.9137921" lon="17.7030927">
        <ele>45.3192</ele>
        <time>2013-05-19T12:23:40Z</time>
      </trkpt>
      <trkpt lat="59.9137764" lon="17.7031286">
        <ele>45.7999</ele>
        <time>2013-05-19T12:23:41Z</time>
      </trkpt>
      <trkpt lat="59.9137601" lon="17.7031678">
        <ele>45.3192</ele>
        <time>2013-05-19T12:23:42Z</time>
      </trkpt>
      <trkpt lat="59.9137424" lon="17.7032107">
        <ele>44.8386</ele>
        <time>2013-05-19T12:23:43Z</time>
      </trkpt>
      <trkpt lat="59.9137265" lon="17.7032519">
        <ele>45.3192</ele>
        <time>2013-05-19T12:23:44Z</time>
      </trkpt>
      <trkpt lat="59.9137101" lon="17.7032885">
        <ele>45.3192</ele>
        <time>2013-05-19T12:23:45Z</time>
      </trkpt>
      <trkpt lat="59.9136957" lon="17.7033251">
        <ele>44.8386</ele>
        <time>2013-05-19T12:23:46Z</time>
      </trkpt>
      <trkpt lat="59.9136808" lon="17.7033656">
        <ele>44.8386</ele>
        <time>2013-05-19T12:23:47Z</time>
      </trkpt>
      <trkpt lat="59.9136652" lon="17.7034169">
        <ele>44.8386</ele>
        <time>2013-05-19T12:23:48Z</time>
      </trkpt>
      <trkpt lat="59.9136538" lon="17.7034672">
        <ele>44.8386</ele>
        <time>2013-05-19T12:23:49Z</time>
      </trkpt>
      <trkpt lat="59.9136488" lon="17.7035158">
        <ele>44.8386</ele>
        <time>2013-05-19T12:23:50Z</time>
      </trkpt>
      <trkpt lat="59.9136465" lon="17.703564">
        <ele>44.8386</ele>
        <time>2013-05-19T12:23:51Z</time>
      </trkpt>
      <trkpt lat="59.9136423" lon="17.7036207">
        <ele>44.8386</ele>
        <time>2013-05-19T12:23:52Z</time>
      </trkpt>
      <trkpt lat="59.9136414" lon="17.7036747">
        <ele>44.8386</ele>
        <time>2013-05-19T12:23:53Z</time>
      </trkpt>
      <trkpt lat="59.9136485" lon="17.703724">
        <ele>45.3192</ele>
        <time>2013-05-19T12:23:54Z</time>
      </trkpt>
      <trkpt lat="59.9136535" lon="17.7037789">
        <ele>45.3192</ele>
        <time>2013-05-19T12:23:55Z</time>
      </trkpt>
      <trkpt lat="59.9136563" lon="17.7038313">
        <ele>45.3192</ele>
        <time>2013-05-19T12:23:56Z</time>
      </trkpt>
      <trkpt lat="59.9136595" lon="17.7038775">
        <ele>45.7999</ele>
        <time>2013-05-19T12:23:57Z</time>
      </trkpt>
      <trkpt lat="59.9136621" lon="17.7039267">
        <ele>45.7999</ele>
        <time>2013-05-19T12:23:58Z</time>
      </trkpt>
      <trkpt lat="59.9136679" lon="17.7039752">
        <ele>45.7999</ele>
        <time>2013-05-19T12:23:59Z</time>
      </trkpt>
      <trkpt lat="59.9136742" lon="17.704028">
        <ele>45.3192</ele>
        <time>2013-05-19T12:24:00Z</time>
      </trkpt>
      <trkpt lat="59.9136772" lon="17.7040841">
        <ele>45.3192</ele>
        <time>2013-05-19T12:24:01Z</time>
      </trkpt>
      <trkpt lat="59.9136797" lon="17.7041281">
        <ele>44.8386</ele>
        <time>2013-05-19T12:24:02Z</time>
      </trkpt>
      <trkpt lat="59.9136904" lon="17.7041747">
        <ele>45.3192</ele>
        <time>2013-05-19T12:24:03Z</time>
      </trkpt>
      <trkpt lat="59.9136978" lon="17.7042326">
        <ele>45.3192</ele>
        <time>2013-05-19T12:24:04Z</time>
      </trkpt>
      <trkpt lat="59.9137037" lon="17.7042753">
        <ele>45.7999</ele>
        <time>2013-05-19T12:24:05Z</time>
      </trkpt>
      <trkpt lat="59.9137072" lon="17.7043095">
        <ele>45.7999</ele>
        <time>2013-05-19T12:24:06Z</time>
      </trkpt>
      <trkpt lat="59.9137108" lon="17.7043585">
        <ele>45.7999</ele>
        <time>2013-05-19T12:24:07Z</time>
      </trkpt>
      <trkpt lat="59.9137159" lon="17.7044077">
        <ele>46.2806</ele>
        <time>2013-05-19T12:24:08Z</time>
      </trkpt>
      <trkpt lat="59.91372" lon="17.7044555">
        <ele>45.7999</ele>
        <time>2013-05-19T12:24:09Z</time>
      </trkpt>
      <trkpt lat="59.9137258" lon="17.7045055">
        <ele>46.2806</ele>
        <time>2013-05-19T12:24:10Z</time>
      </trkpt>
      <trkpt lat="59.91373" lon="17.7045554">
        <ele>46.2806</ele>
        <time>2013-05-19T12:24:11Z</time>
      </trkpt>
      <trkpt lat="59.9137274" lon="17.7046021">
        <ele>45.7999</ele>
        <time>2013-05-19T12:24:12Z</time>
      </trkpt>
      <trkpt lat="59.9137233" lon="17.7046529">
        <ele>45.7999</ele>
        <time>2013-05-19T12:24:13Z</time>
      </trkpt>
      <trkpt lat="59.9137189" lon="17.7047044">
        <ele>45.7999</ele>
        <time>2013-05-19T12:24:14Z</time>
      </trkpt>
      <trkpt lat="59.9137096" lon="17.7047527">
        <ele>45.3192</ele>
        <time>2013-05-19T12:24:15Z</time>
      </trkpt>
      <trkpt lat="59.913699" lon="17.7047911">
        <ele>44.8386</ele>
        <time>2013-05-19T12:24:16Z</time>
      </trkpt>
      <trkpt lat="59.9136873" lon="17.7048218">
        <ele>44.358</ele>
        <time>2013-05-19T12:24:17Z</time>
      </trkpt>
      <trkpt lat="59.9136776" lon="17.7048513">
        <ele>44.358</ele>
        <time>2013-05-19T12:24:18Z</time>
      </trkpt>
      <trkpt lat="59.9136594" lon="17.7048786">
        <ele>43.8773</ele>
        <time>2013-05-19T12:24:19Z</time>
      </trkpt>
      <trkpt lat="59.9136353" lon="17.7049047">
        <ele>43.3966</ele>
        <time>2013-05-19T12:24:20Z</time>
      </trkpt>
      <trkpt lat="59.9136167" lon="17.7049315">
        <ele>41.9547</ele>
        <time>2013-05-19T12:24:21Z</time>
      </trkpt>
      <trkpt lat="59.9136" lon="17.7049562">
        <ele>41.474</ele>
        <time>2013-05-19T12:24:22Z</time>
      </trkpt>
      <trkpt lat="59.9135791" lon="17.7049749">
        <ele>40.5128</ele>
        <time>2013-05-19T12:24:23Z</time>
      </trkpt>
      <trkpt lat="59.9135609" lon="17.7049961">
        <ele>40.5128</ele>
        <time>2013-05-19T12:24:24Z</time>
      </trkpt>
      <trkpt lat="59.9135397" lon="17.7050235">
        <ele>40.0321</ele>
        <time>2013-05-19T12:24:25Z</time>
      </trkpt>
      <trkpt lat="59.9135222" lon="17.7050464">
        <ele>39.0707</ele>
        <time>2013-05-19T12:24:26Z</time>
      </trkpt>
      <trkpt lat="59.9135107" lon="17.7050761">
        <ele>39.0707</ele>
        <time>2013-05-19T12:24:27Z</time>
      </trkpt>
      <trkpt lat="59.9135026" lon="17.705107">
        <ele>39.0707</ele>
        <time>2013-05-19T12:24:28Z</time>
      </trkpt>
      <trkpt lat="59.9134924" lon="17.7051382">
        <ele>39.5513</ele>
        <time>2013-05-19T12:24:29Z</time>
      </trkpt>
      <trkpt lat="59.9134781" lon="17.7051725">
        <ele>39.0707</ele>
        <time>2013-05-19T12:24:30Z</time>
      </trkpt>
      <trkpt lat="59.9134663" lon="17.7052163">
        <ele>39.5513</ele>
        <time>2013-05-19T12:24:31Z</time>
      </trkpt>
      <trkpt lat="59.9134535" lon="17.7052587">
        <ele>39.0707</ele>
        <time>2013-05-19T12:24:32Z</time>
      </trkpt>
      <trkpt lat="59.9134423" lon="17.7052979">
        <ele>39.0707</ele>
        <time>2013-05-19T12:24:33Z</time>
      </trkpt>
      <trkpt lat="59.91343" lon="17.7053361">
        <ele>38.5901</ele>
        <time>2013-05-19T12:24:34Z</time>
      </trkpt>
      <trkpt lat="59.9134145" lon="17.7053952">
        <ele>39.0707</ele>
        <time>2013-05-19T12:24:35Z</time>
      </trkpt>
      <trkpt lat="59.9134078" lon="17.7054391">
        <ele>39.0707</ele>
        <time>2013-05-19T12:24:36Z</time>
      </trkpt>
      <trkpt lat="59.9134035" lon="17.705477">
        <ele>38.5901</ele>
        <time>2013-05-19T12:24:37Z</time>
      </trkpt>
      <trkpt lat="59.9133954" lon="17.7055106">
        <ele>38.5901</ele>
        <time>2013-05-19T12:24:38Z</time>
      </trkpt>
      <trkpt lat="59.9133881" lon="17.7055459">
        <ele>38.1094</ele>
        <time>2013-05-19T12:24:39Z</time>
      </trkpt>
      <trkpt lat="59.9133762" lon="17.7055857">
        <ele>37.6287</ele>
        <time>2013-05-19T12:24:40Z</time>
      </trkpt>
      <trkpt lat="59.9133643" lon="17.7056251">
        <ele>37.6287</ele>
        <time>2013-05-19T12:24:41Z</time>
      </trkpt>
      <trkpt lat="59.913357" lon="17.7056615">
        <ele>37.6287</ele>
        <time>2013-05-19T12:24:42Z</time>
      </trkpt>
      <trkpt lat="59.9133493" lon="17.7057002">
        <ele>37.6287</ele>
        <time>2013-05-19T12:24:43Z</time>
      </trkpt>
      <trkpt lat="59.9133394" lon="17.7057332">
        <ele>37.1481</ele>
        <time>2013-05-19T12:24:44Z</time>
      </trkpt>
      <trkpt lat="59.9133259" lon="17.7057821">
        <ele>37.6287</ele>
        <time>2013-05-19T12:24:45Z</time>
      </trkpt>
      <trkpt lat="59.9133146" lon="17.7058101">
        <ele>37.6287</ele>
        <time>2013-05-19T12:24:46Z</time>
      </trkpt>
      <trkpt lat="59.9133012" lon="17.705834">
        <ele>37.6287</ele>
        <time>2013-05-19T12:24:47Z</time>
      </trkpt>
      <trkpt lat="59.9132934" lon="17.7058684">
        <ele>37.6287</ele>
        <time>2013-05-19T12:24:48Z</time>
      </trkpt>
      <trkpt lat="59.9132862" lon="17.7059106">
        <ele>38.1094</ele>
        <time>2013-05-19T12:24:49Z</time>
      </trkpt>
      <trkpt lat="59.9132758" lon="17.7059592">
        <ele>38.5901</ele>
        <time>2013-05-19T12:24:50Z</time>
      </trkpt>
      <trkpt lat="59.913269" lon="17.7060078">
        <ele>39.0707</ele>
        <time>2013-05-19T12:24:51Z</time>
      </trkpt>
      <trkpt lat="59.9132603" lon="17.7060509">
        <ele>39.5513</ele>
        <time>2013-05-19T12:24:52Z</time>
      </trkpt>
      <trkpt lat="59.9132494" lon="17.7060976">
        <ele>39.5513</ele>
        <time>2013-05-19T12:24:53Z</time>
      </trkpt>
      <trkpt lat="59.9132436" lon="17.7061359">
        <ele>40.0321</ele>
        <time>2013-05-19T12:24:54Z</time>
      </trkpt>
      <trkpt lat="59.9132375" lon="17.7061736">
        <ele>40.0321</ele>
        <time>2013-05-19T12:24:55Z</time>
      </trkpt>
      <trkpt lat="59.91323" lon="17.7062199">
        <ele>40.0321</ele>
        <time>2013-05-19T12:24:56Z</time>
      </trkpt>
      <trkpt lat="59.9132166" lon="17.7062654">
        <ele>40.0321</ele>
        <time>2013-05-19T12:24:57Z</time>
      </trkpt>
      <trkpt lat="59.9132011" lon="17.7063048">
        <ele>40.5128</ele>
        <time>2013-05-19T12:24:58Z</time>
      </trkpt>
      <trkpt lat="59.9131849" lon="17.7063332">
        <ele>40.0321</ele>
        <time>2013-05-19T12:24:59Z</time>
      </trkpt>
      <trkpt lat="59.9131657" lon="17.7063577">
        <ele>40.0321</ele>
        <time>2013-05-19T12:25:00Z</time>
      </trkpt>
      <trkpt lat="59.9131473" lon="17.7063815">
        <ele>39.5513</ele>
        <time>2013-05-19T12:25:01Z</time>
      </trkpt>
      <trkpt lat="59.9131296" lon="17.7063975">
        <ele>39.0707</ele>
        <time>2013-05-19T12:25:02Z</time>
      </trkpt>
      <trkpt lat="59.9131079" lon="17.7064155">
        <ele>38.5901</ele>
        <time>2013-05-19T12:25:03Z</time>
      </trkpt>
      <trkpt lat="59.9130891" lon="17.7064375">
        <ele>38.5901</ele>
        <time>2013-05-19T12:25:04Z</time>
      </trkpt>
      <trkpt lat="59.9130738" lon="17.7064602">
        <ele>38.1094</ele>
        <time>2013-05-19T12:25:05Z</time>
      </trkpt>
      <trkpt lat="59.9130576" lon="17.7064855">
        <ele>37.6287</ele>
        <time>2013-05-19T12:25:06Z</time>
      </trkpt>
      <trkpt lat="59.9130352" lon="17.7065105">
        <ele>37.1481</ele>
        <time>2013-05-19T12:25:07Z</time>
      </trkpt>
      <trkpt lat="59.9130187" lon="17.7065288">
        <ele>37.1481</ele>
        <time>2013-05-19T12:25:08Z</time>
      </trkpt>
      <trkpt lat="59.9130004" lon="17.7065398">
        <ele>37.1481</ele>
        <time>2013-05-19T12:25:09Z</time>
      </trkpt>
      <trkpt lat="59.912982" lon="17.7065519">
        <ele>36.6675</ele>
        <time>2013-05-19T12:25:10Z</time>
      </trkpt>
      <trkpt lat="59.9129633" lon="17.7065577">
        <ele>36.1868</ele>
        <time>2013-05-19T12:25:11Z</time>
      </trkpt>
      <trkpt lat="59.9129411" lon="17.7065637">
        <ele>36.1868</ele>
        <time>2013-05-19T12:25:12Z</time>
      </trkpt>
      <trkpt lat="59.9129177" lon="17.7065724">
        <ele>35.7061</ele>
        <time>2013-05-19T12:25:13Z</time>
      </trkpt>
      <trkpt lat="59.9128971" lon="17.7065779">
        <ele>35.2255</ele>
        <time>2013-05-19T12:25:14Z</time>
      </trkpt>
      <trkpt lat="59.9128763" lon="17.7065721">
        <ele>34.2642</ele>
        <time>2013-05-19T12:25:15Z</time>
      </trkpt>
      <trkpt lat="59.9128577" lon="17.706562">
        <ele>33.7834</ele>
        <time>2013-05-19T12:25:16Z</time>
      </trkpt>
      <trkpt lat="59.9128417" lon="17.706562">
        <ele>33.7834</ele>
        <time>2013-05-19T12:25:17Z</time>
      </trkpt>
      <trkpt lat="59.9128226" lon="17.7065623">
        <ele>34.2642</ele>
        <time>2013-05-19T12:25:18Z</time>
      </trkpt>
      <trkpt lat="59.9128023" lon="17.7065565">
        <ele>33.7834</ele>
        <time>2013-05-19T12:25:19Z</time>
      </trkpt>
      <trkpt lat="59.9127821" lon="17.706557">
        <ele>33.3029</ele>
        <time>2013-05-19T12:25:20Z</time>
      </trkpt>
      <trkpt lat="59.9127653" lon="17.7065544">
        <ele>33.3029</ele>
        <time>2013-05-19T12:25:21Z</time>
      </trkpt>
      <trkpt lat="59.9127482" lon="17.7065533">
        <ele>33.7834</ele>
        <time>2013-05-19T12:25:22Z</time>
      </trkpt>
      <trkpt lat="59.9127267" lon="17.7065565">
        <ele>33.3029</ele>
        <time>2013-05-19T12:25:23Z</time>
      </trkpt>
      <trkpt lat="59.912706" lon="17.706563">
        <ele>32.8223</ele>
        <time>2013-05-19T12:25:24Z</time>
      </trkpt>
      <trkpt lat="59.9126879" lon="17.7065665">
        <ele>32.8223</ele>
        <time>2013-05-19T12:25:25Z</time>
      </trkpt>
      <trkpt lat="59.9126695" lon="17.7065698">
        <ele>32.8223</ele>
        <time>2013-05-19T12:25:26Z</time>
      </trkpt>
      <trkpt lat="59.9126511" lon="17.7065853">
        <ele>32.8223</ele>
        <time>2013-05-19T12:25:27Z</time>
      </trkpt>
      <trkpt lat="59.9126337" lon="17.7065897">
        <ele>32.8223</ele>
        <time>2013-05-19T12:25:28Z</time>
      </trkpt>
      <trkpt lat="59.9126153" lon="17.7065968">
        <ele>31.8607</ele>
        <time>2013-05-19T12:25:29Z</time>
      </trkpt>
      <trkpt lat="59.9126002" lon="17.7066056">
        <ele>31.3801</ele>
        <time>2013-05-19T12:25:30Z</time>
      </trkpt>
      <trkpt lat="59.9125809" lon="17.706616">
        <ele>30.4188</ele>
        <time>2013-05-19T12:25:31Z</time>
      </trkpt>
      <trkpt lat="59.9125572" lon="17.7066314">
        <ele>29.4575</ele>
        <time>2013-05-19T12:25:32Z</time>
      </trkpt>
      <trkpt lat="59.9125371" lon="17.7066481">
        <ele>28.9769</ele>
        <time>2013-05-19T12:25:33Z</time>
      </trkpt>
      <trkpt lat="59.9125163" lon="17.7066679">
        <ele>28.9769</ele>
        <time>2013-05-19T12:25:34Z</time>
      </trkpt>
      <trkpt lat="59.9124961" lon="17.7066995">
        <ele>29.4575</ele>
        <time>2013-05-19T12:25:35Z</time>
      </trkpt>
      <trkpt lat="59.9124791" lon="17.7067399">
        <ele>29.4575</ele>
        <time>2013-05-19T12:25:36Z</time>
      </trkpt>
      <trkpt lat="59.9124661" lon="17.7067718">
        <ele>28.9769</ele>
        <time>2013-05-19T12:25:37Z</time>
      </trkpt>
      <trkpt lat="59.9124534" lon="17.7068053">
        <ele>28.4962</ele>
        <time>2013-05-19T12:25:38Z</time>
      </trkpt>
      <trkpt lat="59.9124433" lon="17.7068414">
        <ele>28.0155</ele>
        <time>2013-05-19T12:25:39Z</time>
      </trkpt>
      <trkpt lat="59.9124394" lon="17.7068755">
        <ele>28.0155</ele>
        <time>2013-05-19T12:25:40Z</time>
      </trkpt>
      <trkpt lat="59.9124367" lon="17.706915">
        <ele>28.0155</ele>
        <time>2013-05-19T12:25:41Z</time>
      </trkpt>
      <trkpt lat="59.9124381" lon="17.7069543">
        <ele>28.0155</ele>
        <time>2013-05-19T12:25:42Z</time>
      </trkpt>
      <trkpt lat="59.9124396" lon="17.7069997">
        <ele>28.0155</ele>
        <time>2013-05-19T12:25:43Z</time>
      </trkpt>
      <trkpt lat="59.9124402" lon="17.7070365">
        <ele>28.0155</ele>
        <time>2013-05-19T12:25:44Z</time>
      </trkpt>
      <trkpt lat="59.9124418" lon="17.7070755">
        <ele>28.0155</ele>
        <time>2013-05-19T12:25:45Z</time>
      </trkpt>
      <trkpt lat="59.9124452" lon="17.7071259">
        <ele>28.0155</ele>
        <time>2013-05-19T12:25:46Z</time>
      </trkpt>
      <trkpt lat="59.912441" lon="17.7071971">
        <ele>28.9769</ele>
        <time>2013-05-19T12:25:47Z</time>
      </trkpt>
      <trkpt lat="59.9124416" lon="17.7072399">
        <ele>28.9769</ele>
        <time>2013-05-19T12:25:48Z</time>
      </trkpt>
      <trkpt lat="59.9124407" lon="17.7072951">
        <ele>29.9381</ele>
        <time>2013-05-19T12:25:49Z</time>
      </trkpt>
      <trkpt lat="59.912439" lon="17.7073398">
        <ele>28.9769</ele>
        <time>2013-05-19T12:25:50Z</time>
      </trkpt>
      <trkpt lat="59.9124335" lon="17.7073899">
        <ele>28.4962</ele>
        <time>2013-05-19T12:25:51Z</time>
      </trkpt>
      <trkpt lat="59.9124234" lon="17.7074376">
        <ele>27.5349</ele>
        <time>2013-05-19T12:25:52Z</time>
      </trkpt>
      <trkpt lat="59.9124149" lon="17.7074796">
        <ele>27.5349</ele>
        <time>2013-05-19T12:25:53Z</time>
      </trkpt>
      <trkpt lat="59.9124003" lon="17.7075164">
        <ele>27.0543</ele>
        <time>2013-05-19T12:25:54Z</time>
      </trkpt>
      <trkpt lat="59.9123878" lon="17.7075511">
        <ele>27.0543</ele>
        <time>2013-05-19T12:25:55Z</time>
      </trkpt>
      <trkpt lat="59.9123701" lon="17.7075889">
        <ele>26.5736</ele>
        <time>2013-05-19T12:25:56Z</time>
      </trkpt>
      <trkpt lat="59.912354" lon="17.7076247">
        <ele>26.5736</ele>
        <time>2013-05-19T12:25:57Z</time>
      </trkpt>
      <trkpt lat="59.9123387" lon="17.7076594">
        <ele>27.0543</ele>
        <time>2013-05-19T12:25:58Z</time>
      </trkpt>
      <trkpt lat="59.9123221" lon="17.7077039">
        <ele>26.0929</ele>
        <time>2013-05-19T12:25:59Z</time>
      </trkpt>
      <trkpt lat="59.912303" lon="17.7077578">
        <ele>25.6123</ele>
        <time>2013-05-19T12:26:00Z</time>
      </trkpt>
      <trkpt lat="59.9122828" lon="17.7078063">
        <ele>24.651</ele>
        <time>2013-05-19T12:26:01Z</time>
      </trkpt>
      <trkpt lat="59.9122698" lon="17.7078542">
        <ele>24.651</ele>
        <time>2013-05-19T12:26:02Z</time>
      </trkpt>
      <trkpt lat="59.9122574" lon="17.7079005">
        <ele>24.651</ele>
        <time>2013-05-19T12:26:03Z</time>
      </trkpt>
      <trkpt lat="59.91225" lon="17.7079418">
        <ele>24.651</ele>
        <time>2013-05-19T12:26:04Z</time>
      </trkpt>
      <trkpt lat="59.9122488" lon="17.7079768">
        <ele>24.1703</ele>
        <time>2013-05-19T12:26:05Z</time>
      </trkpt>
      <trkpt lat="59.9122486" lon="17.7080146">
        <ele>24.1703</ele>
        <time>2013-05-19T12:26:06Z</time>
      </trkpt>
      <trkpt lat="59.9122462" lon="17.7080521">
        <ele>23.6896</ele>
        <time>2013-05-19T12:26:07Z</time>
      </trkpt>
      <trkpt lat="59.9122428" lon="17.7080929">
        <ele>24.1703</ele>
        <time>2013-05-19T12:26:08Z</time>
      </trkpt>
      <trkpt lat="59.9122354" lon="17.7081339">
        <ele>23.6896</ele>
        <time>2013-05-19T12:26:09Z</time>
      </trkpt>
      <trkpt lat="59.9122273" lon="17.7081766">
        <ele>23.209</ele>
        <time>2013-05-19T12:26:10Z</time>
      </trkpt>
      <trkpt lat="59.9122255" lon="17.7082162">
        <ele>23.209</ele>
        <time>2013-05-19T12:26:11Z</time>
      </trkpt>
      <trkpt lat="59.9122206" lon="17.7082571">
        <ele>23.209</ele>
        <time>2013-05-19T12:26:12Z</time>
      </trkpt>
      <trkpt lat="59.9122134" lon="17.7083227">
        <ele>25.1317</ele>
        <time>2013-05-19T12:26:13Z</time>
      </trkpt>
      <trkpt lat="59.912208" lon="17.7083629">
        <ele>25.6123</ele>
        <time>2013-05-19T12:26:14Z</time>
      </trkpt>
      <trkpt lat="59.9122003" lon="17.7084215">
        <ele>27.5349</ele>
        <time>2013-05-19T12:26:15Z</time>
      </trkpt>
      <trkpt lat="59.9121915" lon="17.7084795">
        <ele>29.4575</ele>
        <time>2013-05-19T12:26:16Z</time>
      </trkpt>
      <trkpt lat="59.9121862" lon="17.7085312">
        <ele>30.8995</ele>
        <time>2013-05-19T12:26:17Z</time>
      </trkpt>
      <trkpt lat="59.9121763" lon="17.7085763">
        <ele>31.3801</ele>
        <time>2013-05-19T12:26:18Z</time>
      </trkpt>
      <trkpt lat="59.9121668" lon="17.7086242">
        <ele>32.3416</ele>
        <time>2013-05-19T12:26:19Z</time>
      </trkpt>
      <trkpt lat="59.9121572" lon="17.7086684">
        <ele>33.3029</ele>
        <time>2013-05-19T12:26:20Z</time>
      </trkpt>
      <trkpt lat="59.9121465" lon="17.7086976">
        <ele>33.7834</ele>
        <time>2013-05-19T12:26:21Z</time>
      </trkpt>
      <trkpt lat="59.912131" lon="17.7087286">
        <ele>33.7834</ele>
        <time>2013-05-19T12:26:22Z</time>
      </trkpt>
      <trkpt lat="59.9121144" lon="17.7087564">
        <ele>33.7834</ele>
        <time>2013-05-19T12:26:23Z</time>
      </trkpt>
      <trkpt lat="59.9120957" lon="17.7087886">
        <ele>33.7834</ele>
        <time>2013-05-19T12:26:24Z</time>
      </trkpt>
      <trkpt lat="59.912079" lon="17.7088207">
        <ele>34.2642</ele>
        <time>2013-05-19T12:26:25Z</time>
      </trkpt>
      <trkpt lat="59.9120625" lon="17.7088518">
        <ele>33.7834</ele>
        <time>2013-05-19T12:26:26Z</time>
      </trkpt>
      <trkpt lat="59.9120418" lon="17.7088849">
        <ele>33.7834</ele>
        <time>2013-05-19T12:26:27Z</time>
      </trkpt>
      <trkpt lat="59.9120232" lon="17.7089236">
        <ele>34.2642</ele>
        <time>2013-05-19T12:26:28Z</time>
      </trkpt>
      <trkpt lat="59.91201" lon="17.7089583">
        <ele>34.7449</ele>
        <time>2013-05-19T12:26:29Z</time>
      </trkpt>
      <trkpt lat="59.9119968" lon="17.7090006">
        <ele>34.2642</ele>
        <time>2013-05-19T12:26:30Z</time>
      </trkpt>
      <trkpt lat="59.9119838" lon="17.7090488">
        <ele>34.2642</ele>
        <time>2013-05-19T12:26:31Z</time>
      </trkpt>
      <trkpt lat="59.9119761" lon="17.7091004">
        <ele>33.7834</ele>
        <time>2013-05-19T12:26:32Z</time>
      </trkpt>
      <trkpt lat="59.9119701" lon="17.7091455">
        <ele>33.7834</ele>
        <time>2013-05-19T12:26:33Z</time>
      </trkpt>
      <trkpt lat="59.9119698" lon="17.7091807">
        <ele>34.2642</ele>
        <time>2013-05-19T12:26:34Z</time>
      </trkpt>
      <trkpt lat="59.9119676" lon="17.7092313">
        <ele>34.2642</ele>
        <time>2013-05-19T12:26:35Z</time>
      </trkpt>
      <trkpt lat="59.9119626" lon="17.7092841">
        <ele>34.2642</ele>
        <time>2013-05-19T12:26:36Z</time>
      </trkpt>
      <trkpt lat="59.9119594" lon="17.7093366">
        <ele>33.3029</ele>
        <time>2013-05-19T12:26:37Z</time>
      </trkpt>
      <trkpt lat="59.9119646" lon="17.7093934">
        <ele>34.7449</ele>
        <time>2013-05-19T12:26:38Z</time>
      </trkpt>
      <trkpt lat="59.9119646" lon="17.7094418">
        <ele>35.2255</ele>
        <time>2013-05-19T12:26:39Z</time>
      </trkpt>
      <trkpt lat="59.911961" lon="17.7095065">
        <ele>35.2255</ele>
        <time>2013-05-19T12:26:40Z</time>
      </trkpt>
      <trkpt lat="59.9119599" lon="17.7095682">
        <ele>36.1868</ele>
        <time>2013-05-19T12:26:41Z</time>
      </trkpt>
      <trkpt lat="59.9119558" lon="17.7095937">
        <ele>37.6287</ele>
        <time>2013-05-19T12:26:42Z</time>
      </trkpt>
      <trkpt lat="59.9119474" lon="17.7096281">
        <ele>37.6287</ele>
        <time>2013-05-19T12:26:43Z</time>
      </trkpt>
      <trkpt lat="59.9119473" lon="17.709678">
        <ele>38.1094</ele>
        <time>2013-05-19T12:26:44Z</time>
      </trkpt>
      <trkpt lat="59.9119434" lon="17.7097054">
        <ele>37.6287</ele>
        <time>2013-05-19T12:26:45Z</time>
      </trkpt>
      <trkpt lat="59.9119345" lon="17.7097319">
        <ele>37.1481</ele>
        <time>2013-05-19T12:26:46Z</time>
      </trkpt>
      <trkpt lat="59.9119219" lon="17.7097671">
        <ele>38.5901</ele>
        <time>2013-05-19T12:26:47Z</time>
      </trkpt>
      <trkpt lat="59.9119148" lon="17.7098013">
        <ele>39.5513</ele>
        <time>2013-05-19T12:26:48Z</time>
      </trkpt>
      <trkpt lat="59.9119112" lon="17.7098459">
        <ele>40.5128</ele>
        <time>2013-05-19T12:26:49Z</time>
      </trkpt>
      <trkpt lat="59.911902" lon="17.7098863">
        <ele>41.474</ele>
        <time>2013-05-19T12:26:50Z</time>
      </trkpt>
      <trkpt lat="59.9118911" lon="17.7099226">
        <ele>41.9547</ele>
        <time>2013-05-19T12:26:51Z</time>
      </trkpt>
      <trkpt lat="59.9118753" lon="17.7099485">
        <ele>41.9547</ele>
        <time>2013-05-19T12:26:52Z</time>
      </trkpt>
      <trkpt lat="59.9118595" lon="17.7099719">
        <ele>41.9547</ele>
        <time>2013-05-19T12:26:53Z</time>
      </trkpt>
      <trkpt lat="59.9118411" lon="17.7099904">
        <ele>41.9547</ele>
        <time>2013-05-19T12:26:54Z</time>
      </trkpt>
      <trkpt lat="59.9118192" lon="17.709997">
        <ele>40.9934</ele>
        <time>2013-05-19T12:26:55Z</time>
      </trkpt>
      <trkpt lat="59.9118009" lon="17.7100045">
        <ele>40.5128</ele>
        <time>2013-05-19T12:26:56Z</time>
      </trkpt>
      <trkpt lat="59.9117801" lon="17.71002">
        <ele>40.0321</ele>
        <time>2013-05-19T12:26:57Z</time>
      </trkpt>
      <trkpt lat="59.9117568" lon="17.710043">
        <ele>40.0321</ele>
        <time>2013-05-19T12:26:58Z</time>
      </trkpt>
      <trkpt lat="59.91173" lon="17.7100553">
        <ele>39.5513</ele>
        <time>2013-05-19T12:26:59Z</time>
      </trkpt>
      <trkpt lat="59.9117031" lon="17.7100541">
        <ele>39.5513</ele>
        <time>2013-05-19T12:27:00Z</time>
      </trkpt>
      <trkpt lat="59.9116777" lon="17.7100522">
        <ele>39.5513</ele>
        <time>2013-05-19T12:27:01Z</time>
      </trkpt>
      <trkpt lat="59.9116518" lon="17.7100545">
        <ele>38.5901</ele>
        <time>2013-05-19T12:27:02Z</time>
      </trkpt>
      <trkpt lat="59.911629" lon="17.7100619">
        <ele>37.1481</ele>
        <time>2013-05-19T12:27:03Z</time>
      </trkpt>
      <trkpt lat="59.9116111" lon="17.7100582">
        <ele>36.6675</ele>
        <time>2013-05-19T12:27:04Z</time>
      </trkpt>
      <trkpt lat="59.9115937" lon="17.7100469">
        <ele>36.6675</ele>
        <time>2013-05-19T12:27:05Z</time>
      </trkpt>
      <trkpt lat="59.9115782" lon="17.710024">
        <ele>36.6675</ele>
        <time>2013-05-19T12:27:06Z</time>
      </trkpt>
      <trkpt lat="59.9115621" lon="17.7099977">
        <ele>37.1481</ele>
        <time>2013-05-19T12:27:07Z</time>
      </trkpt>
      <trkpt lat="59.9115373" lon="17.7099837">
        <ele>38.1094</ele>
        <time>2013-05-19T12:27:08Z</time>
      </trkpt>
      <trkpt lat="59.9115189" lon="17.7099527">
        <ele>38.1094</ele>
        <time>2013-05-19T12:27:09Z</time>
      </trkpt>
      <trkpt lat="59.9115041" lon="17.7099211">
        <ele>37.6287</ele>
        <time>2013-05-19T12:27:10Z</time>
      </trkpt>
      <trkpt lat="59.9114873" lon="17.7098947">
        <ele>37.6287</ele>
        <time>2013-05-19T12:27:11Z</time>
      </trkpt>
      <trkpt lat="59.9114766" lon="17.7098578">
        <ele>37.6287</ele>
        <time>2013-05-19T12:27:12Z</time>
      </trkpt>
      <trkpt lat="59.9114682" lon="17.709818">
        <ele>37.1481</ele>
        <time>2013-05-19T12:27:13Z</time>
      </trkpt>
      <trkpt lat="59.9114596" lon="17.7097854">
        <ele>37.1481</ele>
        <time>2013-05-19T12:27:14Z</time>
      </trkpt>
      <trkpt lat="59.9114539" lon="17.7097552">
        <ele>36.6675</ele>
        <time>2013-05-19T12:27:15Z</time>
      </trkpt>
      <trkpt lat="59.9114529" lon="17.7097205">
        <ele>36.6675</ele>
        <time>2013-05-19T12:27:16Z</time>
      </trkpt>
      <trkpt lat="59.9114523" lon="17.7096843">
        <ele>36.6675</ele>
        <time>2013-05-19T12:27:17Z</time>
      </trkpt>
      <trkpt lat="59.9114462" lon="17.7096501">
        <ele>36.1868</ele>
        <time>2013-05-19T12:27:18Z</time>
      </trkpt>
      <trkpt lat="59.9114363" lon="17.7096173">
        <ele>36.6675</ele>
        <time>2013-05-19T12:27:19Z</time>
      </trkpt>
      <trkpt lat="59.9114284" lon="17.7095791">
        <ele>36.1868</ele>
        <time>2013-05-19T12:27:20Z</time>
      </trkpt>
      <trkpt lat="59.9114218" lon="17.7095499">
        <ele>36.1868</ele>
        <time>2013-05-19T12:27:21Z</time>
      </trkpt>
      <trkpt lat="59.9114145" lon="17.7095261">
        <ele>35.7061</ele>
        <time>2013-05-19T12:27:22Z</time>
      </trkpt>
      <trkpt lat="59.9114015" lon="17.7095117">
        <ele>35.7061</ele>
        <time>2013-05-19T12:27:23Z</time>
      </trkpt>
      <trkpt lat="59.9113851" lon="17.7094948">
        <ele>35.7061</ele>
        <time>2013-05-19T12:27:24Z</time>
      </trkpt>
      <trkpt lat="59.9113727" lon="17.7094627">
        <ele>35.2255</ele>
        <time>2013-05-19T12:27:25Z</time>
      </trkpt>
      <trkpt lat="59.911358" lon="17.7094298">
        <ele>35.2255</ele>
        <time>2013-05-19T12:27:26Z</time>
      </trkpt>
      <trkpt lat="59.9113434" lon="17.7094075">
        <ele>34.7449</ele>
        <time>2013-05-19T12:27:27Z</time>
      </trkpt>
      <trkpt lat="59.9113315" lon="17.7093935">
        <ele>34.7449</ele>
        <time>2013-05-19T12:27:28Z</time>
      </trkpt>
      <trkpt lat="59.9113193" lon="17.7093791">
        <ele>35.7061</ele>
        <time>2013-05-19T12:27:29Z</time>
      </trkpt>
      <trkpt lat="59.9113052" lon="17.7093665">
        <ele>35.7061</ele>
        <time>2013-05-19T12:27:30Z</time>
      </trkpt>
      <trkpt lat="59.9112875" lon="17.7093577">
        <ele>35.2255</ele>
        <time>2013-05-19T12:27:31Z</time>
      </trkpt>
      <trkpt lat="59.9112638" lon="17.7093373">
        <ele>37.6287</ele>
        <time>2013-05-19T12:27:32Z</time>
      </trkpt>
      <trkpt lat="59.9112503" lon="17.7093112">
        <ele>38.5901</ele>
        <time>2013-05-19T12:27:33Z</time>
      </trkpt>
      <trkpt lat="59.9112348" lon="17.7092718">
        <ele>40.0321</ele>
        <time>2013-05-19T12:27:34Z</time>
      </trkpt>
      <trkpt lat="59.9112114" lon="17.709256">
        <ele>40.9934</ele>
        <time>2013-05-19T12:27:35Z</time>
      </trkpt>
      <trkpt lat="59.9111969" lon="17.7092295">
        <ele>41.474</ele>
        <time>2013-05-19T12:27:36Z</time>
      </trkpt>
      <trkpt lat="59.911183" lon="17.7092082">
        <ele>40.9934</ele>
        <time>2013-05-19T12:27:37Z</time>
      </trkpt>
      <trkpt lat="59.911171" lon="17.7091911">
        <ele>41.474</ele>
        <time>2013-05-19T12:27:38Z</time>
      </trkpt>
      <trkpt lat="59.9111571" lon="17.7091854">
        <ele>41.474</ele>
        <time>2013-05-19T12:27:39Z</time>
      </trkpt>
      <trkpt lat="59.9111389" lon="17.7091937">
        <ele>41.474</ele>
        <time>2013-05-19T12:27:40Z</time>
      </trkpt>
      <trkpt lat="59.911118" lon="17.7092087">
        <ele>41.9547</ele>
        <time>2013-05-19T12:27:41Z</time>
      </trkpt>
      <trkpt lat="59.911098" lon="17.7092231">
        <ele>41.9547</ele>
        <time>2013-05-19T12:27:42Z</time>
      </trkpt>
      <trkpt lat="59.9110798" lon="17.7092335">
        <ele>40.9934</ele>
        <time>2013-05-19T12:27:43Z</time>
      </trkpt>
      <trkpt lat="59.9110572" lon="17.7092479">
        <ele>41.9547</ele>
        <time>2013-05-19T12:27:44Z</time>
      </trkpt>
      <trkpt lat="59.9110395" lon="17.7092555">
        <ele>41.9547</ele>
        <time>2013-05-19T12:27:45Z</time>
      </trkpt>
      <trkpt lat="59.9110245" lon="17.7092569">
        <ele>42.4354</ele>
        <time>2013-05-19T12:27:46Z</time>
      </trkpt>
      <trkpt lat="59.9110101" lon="17.7092528">
        <ele>41.9547</ele>
        <time>2013-05-19T12:27:47Z</time>
      </trkpt>
      <trkpt lat="59.910994" lon="17.7092434">
        <ele>40.9934</ele>
        <time>2013-05-19T12:27:48Z</time>
      </trkpt>
      <trkpt lat="59.9109787" lon="17.7092327">
        <ele>41.474</ele>
        <time>2013-05-19T12:27:49Z</time>
      </trkpt>
      <trkpt lat="59.9109647" lon="17.7092165">
        <ele>41.474</ele>
        <time>2013-05-19T12:27:50Z</time>
      </trkpt>
      <trkpt lat="59.9109445" lon="17.7092041">
        <ele>41.474</ele>
        <time>2013-05-19T12:27:51Z</time>
      </trkpt>
      <trkpt lat="59.9109126" lon="17.7091863">
        <ele>42.916</ele>
        <time>2013-05-19T12:27:52Z</time>
      </trkpt>
      <trkpt lat="59.9108857" lon="17.7091793">
        <ele>43.3966</ele>
        <time>2013-05-19T12:27:53Z</time>
      </trkpt>
      <trkpt lat="59.9108635" lon="17.7091745">
        <ele>43.8773</ele>
        <time>2013-05-19T12:27:54Z</time>
      </trkpt>
      <trkpt lat="59.910843" lon="17.7091648">
        <ele>44.358</ele>
        <time>2013-05-19T12:27:55Z</time>
      </trkpt>
      <trkpt lat="59.9108266" lon="17.7091516">
        <ele>43.8773</ele>
        <time>2013-05-19T12:27:56Z</time>
      </trkpt>
      <trkpt lat="59.9108084" lon="17.709134">
        <ele>44.8386</ele>
        <time>2013-05-19T12:27:57Z</time>
      </trkpt>
      <trkpt lat="59.9107903" lon="17.7091169">
        <ele>44.8386</ele>
        <time>2013-05-19T12:27:58Z</time>
      </trkpt>
      <trkpt lat="59.9107727" lon="17.7090982">
        <ele>44.358</ele>
        <time>2013-05-19T12:27:59Z</time>
      </trkpt>
      <trkpt lat="59.9107547" lon="17.7090896">
        <ele>44.358</ele>
        <time>2013-05-19T12:28:00Z</time>
      </trkpt>
      <trkpt lat="59.9107323" lon="17.7090904">
        <ele>44.358</ele>
        <time>2013-05-19T12:28:01Z</time>
      </trkpt>
      <trkpt lat="59.9107136" lon="17.709086">
        <ele>44.358</ele>
        <time>2013-05-19T12:28:02Z</time>
      </trkpt>
      <trkpt lat="59.9107038" lon="17.7090766">
        <ele>43.8773</ele>
        <time>2013-05-19T12:28:03Z</time>
      </trkpt>
      <trkpt lat="59.9106933" lon="17.7090761">
        <ele>43.8773</ele>
        <time>2013-05-19T12:28:04Z</time>
      </trkpt>
      <trkpt lat="59.9106814" lon="17.7090834">
        <ele>43.3966</ele>
        <time>2013-05-19T12:28:05Z</time>
      </trkpt>
      <trkpt lat="59.9106628" lon="17.7090932">
        <ele>43.3966</ele>
        <time>2013-05-19T12:28:06Z</time>
      </trkpt>
      <trkpt lat="59.9106488" lon="17.7090984">
        <ele>42.916</ele>
        <time>2013-05-19T12:28:07Z</time>
      </trkpt>
      <trkpt lat="59.9106376" lon="17.7091026">
        <ele>42.4354</ele>
        <time>2013-05-19T12:28:08Z</time>
      </trkpt>
      <trkpt lat="59.9106225" lon="17.7091161">
        <ele>42.4354</ele>
        <time>2013-05-19T12:28:09Z</time>
      </trkpt>
      <trkpt lat="59.9106018" lon="17.7091287">
        <ele>41.474</ele>
        <time>2013-05-19T12:28:10Z</time>
      </trkpt>
      <trkpt lat="59.9105768" lon="17.7091298">
        <ele>41.9547</ele>
        <time>2013-05-19T12:28:11Z</time>
      </trkpt>
      <trkpt lat="59.910555" lon="17.7091375">
        <ele>41.9547</ele>
        <time>2013-05-19T12:28:12Z</time>
      </trkpt>
      <trkpt lat="59.910535" lon="17.7091365">
        <ele>40.9934</ele>
        <time>2013-05-19T12:28:13Z</time>
      </trkpt>
      <trkpt lat="59.9105137" lon="17.7091184">
        <ele>40.5128</ele>
        <time>2013-05-19T12:28:14Z</time>
      </trkpt>
      <trkpt lat="59.9104924" lon="17.7090937">
        <ele>40.5128</ele>
        <time>2013-05-19T12:28:15Z</time>
      </trkpt>
      <trkpt lat="59.9104615" lon="17.7090838">
        <ele>40.9934</ele>
        <time>2013-05-19T12:28:16Z</time>
      </trkpt>
      <trkpt lat="59.9104347" lon="17.7090657">
        <ele>40.9934</ele>
        <time>2013-05-19T12:28:17Z</time>
      </trkpt>
      <trkpt lat="59.9104122" lon="17.7090501">
        <ele>40.9934</ele>
        <time>2013-05-19T12:28:18Z</time>
      </trkpt>
      <trkpt lat="59.9103904" lon="17.7090408">
        <ele>41.474</ele>
        <time>2013-05-19T12:28:19Z</time>
      </trkpt>
      <trkpt lat="59.9103723" lon="17.7090234">
        <ele>41.9547</ele>
        <time>2013-05-19T12:28:20Z</time>
      </trkpt>
      <trkpt lat="59.9103526" lon="17.7090062">
        <ele>41.9547</ele>
        <time>2013-05-19T12:28:21Z</time>
      </trkpt>
      <trkpt lat="59.9103343" lon="17.7089786">
        <ele>41.474</ele>
        <time>2013-05-19T12:28:22Z</time>
      </trkpt>
      <trkpt lat="59.9103163" lon="17.7089575">
        <ele>40.9934</ele>
        <time>2013-05-19T12:28:23Z</time>
      </trkpt>
      <trkpt lat="59.9102999" lon="17.7089502">
        <ele>40.9934</ele>
        <time>2013-05-19T12:28:24Z</time>
      </trkpt>
      <trkpt lat="59.910283" lon="17.7089461">
        <ele>40.0321</ele>
        <time>2013-05-19T12:28:25Z</time>
      </trkpt>
      <trkpt lat="59.910263" lon="17.7089435">
        <ele>39.5513</ele>
        <time>2013-05-19T12:28:26Z</time>
      </trkpt>
      <trkpt lat="59.9102398" lon="17.7089518">
        <ele>39.0707</ele>
        <time>2013-05-19T12:28:27Z</time>
      </trkpt>
      <trkpt lat="59.9102138" lon="17.7089642">
        <ele>39.0707</ele>
        <time>2013-05-19T12:28:28Z</time>
      </trkpt>
      <trkpt lat="59.910188" lon="17.7089678">
        <ele>38.5901</ele>
        <time>2013-05-19T12:28:29Z</time>
      </trkpt>
      <trkpt lat="59.9101661" lon="17.7089668">
        <ele>38.5901</ele>
        <time>2013-05-19T12:28:30Z</time>
      </trkpt>
      <trkpt lat="59.9101447" lon="17.7089659">
        <ele>38.1094</ele>
        <time>2013-05-19T12:28:31Z</time>
      </trkpt>
      <trkpt lat="59.9101205" lon="17.7089642">
        <ele>37.6287</ele>
        <time>2013-05-19T12:28:32Z</time>
      </trkpt>
      <trkpt lat="59.9100961" lon="17.7089754">
        <ele>37.6287</ele>
        <time>2013-05-19T12:28:33Z</time>
      </trkpt>
      <trkpt lat="59.9100724" lon="17.7089855">
        <ele>37.1481</ele>
        <time>2013-05-19T12:28:34Z</time>
      </trkpt>
      <trkpt lat="59.9100497" lon="17.7089842">
        <ele>36.6675</ele>
        <time>2013-05-19T12:28:35Z</time>
      </trkpt>
      <trkpt lat="59.9100286" lon="17.7089843">
        <ele>36.1868</ele>
        <time>2013-05-19T12:28:36Z</time>
      </trkpt>
      <trkpt lat="59.9100039" lon="17.7089954">
        <ele>35.7061</ele>
        <time>2013-05-19T12:28:37Z</time>
      </trkpt>
      <trkpt lat="59.9099769" lon="17.709015">
        <ele>35.2255</ele>
        <time>2013-05-19T12:28:38Z</time>
      </trkpt>
      <trkpt lat="59.9099502" lon="17.7090274">
        <ele>34.7449</ele>
        <time>2013-05-19T12:28:39Z</time>
      </trkpt>
      <trkpt lat="59.9099273" lon="17.709036">
        <ele>33.7834</ele>
        <time>2013-05-19T12:28:40Z</time>
      </trkpt>
      <trkpt lat="59.9099057" lon="17.7090417">
        <ele>32.8223</ele>
        <time>2013-05-19T12:28:41Z</time>
      </trkpt>
      <trkpt lat="59.9098853" lon="17.7090485">
        <ele>32.3416</ele>
        <time>2013-05-19T12:28:42Z</time>
      </trkpt>
      <trkpt lat="59.909864" lon="17.7090554">
        <ele>31.3801</ele>
        <time>2013-05-19T12:28:43Z</time>
      </trkpt>
      <trkpt lat="59.9098434" lon="17.7090581">
        <ele>30.8995</ele>
        <time>2013-05-19T12:28:44Z</time>
      </trkpt>
      <trkpt lat="59.9098237" lon="17.7090575">
        <ele>30.4188</ele>
        <time>2013-05-19T12:28:45Z</time>
      </trkpt>
      <trkpt lat="59.9098095" lon="17.7090588">
        <ele>30.4188</ele>
        <time>2013-05-19T12:28:46Z</time>
      </trkpt>
      <trkpt lat="59.9097947" lon="17.7090673">
        <ele>29.9381</ele>
        <time>2013-05-19T12:28:47Z</time>
      </trkpt>
      <trkpt lat="59.9097735" lon="17.7090896">
        <ele>29.4575</ele>
        <time>2013-05-19T12:28:48Z</time>
      </trkpt>
      <trkpt lat="59.9097497" lon="17.7091134">
        <ele>29.4575</ele>
        <time>2013-05-19T12:28:49Z</time>
      </trkpt>
      <trkpt lat="59.9097278" lon="17.7091397">
        <ele>28.4962</ele>
        <time>2013-05-19T12:28:50Z</time>
      </trkpt>
      <trkpt lat="59.9097051" lon="17.7091688">
        <ele>28.4962</ele>
        <time>2013-05-19T12:28:51Z</time>
      </trkpt>
      <trkpt lat="59.9096807" lon="17.7091988">
        <ele>28.0155</ele>
        <time>2013-05-19T12:28:52Z</time>
      </trkpt>
      <trkpt lat="59.9096538" lon="17.7092336">
        <ele>28.4962</ele>
        <time>2013-05-19T12:28:53Z</time>
      </trkpt>
      <trkpt lat="59.9096346" lon="17.7092699">
        <ele>28.4962</ele>
        <time>2013-05-19T12:28:54Z</time>
      </trkpt>
      <trkpt lat="59.9096171" lon="17.7093112">
        <ele>29.4575</ele>
        <time>2013-05-19T12:28:55Z</time>
      </trkpt>
      <trkpt lat="59.9095972" lon="17.7093482">
        <ele>29.4575</ele>
        <time>2013-05-19T12:28:56Z</time>
      </trkpt>
      <trkpt lat="59.9095793" lon="17.7093796">
        <ele>30.4188</ele>
        <time>2013-05-19T12:28:57Z</time>
      </trkpt>
      <trkpt lat="59.9095616" lon="17.7094102">
        <ele>29.9381</ele>
        <time>2013-05-19T12:28:58Z</time>
      </trkpt>
      <trkpt lat="59.9095441" lon="17.7094395">
        <ele>29.9381</ele>
        <time>2013-05-19T12:28:59Z</time>
      </trkpt>
      <trkpt lat="59.9095239" lon="17.7094791">
        <ele>28.9769</ele>
        <time>2013-05-19T12:29:00Z</time>
      </trkpt>
      <trkpt lat="59.9095042" lon="17.7095108">
        <ele>28.9769</ele>
        <time>2013-05-19T12:29:01Z</time>
      </trkpt>
      <trkpt lat="59.9094878" lon="17.7095343">
        <ele>28.9769</ele>
        <time>2013-05-19T12:29:02Z</time>
      </trkpt>
      <trkpt lat="59.9094687" lon="17.7095568">
        <ele>28.4962</ele>
        <time>2013-05-19T12:29:03Z</time>
      </trkpt>
      <trkpt lat="59.9094502" lon="17.7095725">
        <ele>28.0155</ele>
        <time>2013-05-19T12:29:04Z</time>
      </trkpt>
      <trkpt lat="59.9094337" lon="17.7095926">
        <ele>28.0155</ele>
        <time>2013-05-19T12:29:05Z</time>
      </trkpt>
      <trkpt lat="59.9094134" lon="17.709612">
        <ele>28.0155</ele>
        <time>2013-05-19T12:29:06Z</time>
      </trkpt>
      <trkpt lat="59.9093938" lon="17.7096387">
        <ele>28.4962</ele>
        <time>2013-05-19T12:29:07Z</time>
      </trkpt>
      <trkpt lat="59.9093764" lon="17.7096693">
        <ele>28.0155</ele>
        <time>2013-05-19T12:29:08Z</time>
      </trkpt>
      <trkpt lat="59.909361" lon="17.7096993">
        <ele>27.5349</ele>
        <time>2013-05-19T12:29:09Z</time>
      </trkpt>
      <trkpt lat="59.909343" lon="17.7097252">
        <ele>27.5349</ele>
        <time>2013-05-19T12:29:10Z</time>
      </trkpt>
      <trkpt lat="59.9093223" lon="17.7097526">
        <ele>27.0543</ele>
        <time>2013-05-19T12:29:11Z</time>
      </trkpt>
      <trkpt lat="59.909299" lon="17.7097832">
        <ele>26.5736</ele>
        <time>2013-05-19T12:29:12Z</time>
      </trkpt>
      <trkpt lat="59.9092789" lon="17.7098132">
        <ele>26.5736</ele>
        <time>2013-05-19T12:29:13Z</time>
      </trkpt>
      <trkpt lat="59.909263" lon="17.7098462">
        <ele>27.0543</ele>
        <time>2013-05-19T12:29:14Z</time>
      </trkpt>
      <trkpt lat="59.9092414" lon="17.7098785">
        <ele>26.5736</ele>
        <time>2013-05-19T12:29:15Z</time>
      </trkpt>
      <trkpt lat="59.9092206" lon="17.7099086">
        <ele>27.0543</ele>
        <time>2013-05-19T12:29:16Z</time>
      </trkpt>
      <trkpt lat="59.9092005" lon="17.709939">
        <ele>27.5349</ele>
        <time>2013-05-19T12:29:17Z</time>
      </trkpt>
      <trkpt lat="59.9091803" lon="17.7099767">
        <ele>28.0155</ele>
        <time>2013-05-19T12:29:18Z</time>
      </trkpt>
      <trkpt lat="59.9091555" lon="17.7100153">
        <ele>28.4962</ele>
        <time>2013-05-19T12:29:19Z</time>
      </trkpt>
      <trkpt lat="59.9091317" lon="17.7100519">
        <ele>28.9769</ele>
        <time>2013-05-19T12:29:20Z</time>
      </trkpt>
      <trkpt lat="59.909112" lon="17.7100873">
        <ele>29.4575</ele>
        <time>2013-05-19T12:29:21Z</time>
      </trkpt>
      <trkpt lat="59.9090911" lon="17.7101219">
        <ele>29.4575</ele>
        <time>2013-05-19T12:29:22Z</time>
      </trkpt>
      <trkpt lat="59.9090625" lon="17.7101552">
        <ele>29.4575</ele>
        <time>2013-05-19T12:29:23Z</time>
      </trkpt>
      <trkpt lat="59.9090353" lon="17.7101809">
        <ele>29.4575</ele>
        <time>2013-05-19T12:29:24Z</time>
      </trkpt>
      <trkpt lat="59.9090165" lon="17.7102116">
        <ele>30.4188</ele>
        <time>2013-05-19T12:29:25Z</time>
      </trkpt>
      <trkpt lat="59.9089986" lon="17.7102435">
        <ele>30.4188</ele>
        <time>2013-05-19T12:29:26Z</time>
      </trkpt>
      <trkpt lat="59.9089782" lon="17.7102696">
        <ele>30.4188</ele>
        <time>2013-05-19T12:29:27Z</time>
      </trkpt>
      <trkpt lat="59.9089571" lon="17.7103021">
        <ele>30.8995</ele>
        <time>2013-05-19T12:29:28Z</time>
      </trkpt>
      <trkpt lat="59.908933" lon="17.7103438">
        <ele>31.8607</ele>
        <time>2013-05-19T12:29:29Z</time>
      </trkpt>
      <trkpt lat="59.9089069" lon="17.7103867">
        <ele>33.3029</ele>
        <time>2013-05-19T12:29:30Z</time>
      </trkpt>
      <trkpt lat="59.9088844" lon="17.7104222">
        <ele>34.2642</ele>
        <time>2013-05-19T12:29:31Z</time>
      </trkpt>
      <trkpt lat="59.9088632" lon="17.7104562">
        <ele>35.2255</ele>
        <time>2013-05-19T12:29:32Z</time>
      </trkpt>
      <trkpt lat="59.9088441" lon="17.7104871">
        <ele>35.7061</ele>
        <time>2013-05-19T12:29:33Z</time>
      </trkpt>
      <trkpt lat="59.9088248" lon="17.710514">
        <ele>36.1868</ele>
        <time>2013-05-19T12:29:34Z</time>
      </trkpt>
      <trkpt lat="59.9088036" lon="17.7105442">
        <ele>36.1868</ele>
        <time>2013-05-19T12:29:35Z</time>
      </trkpt>
      <trkpt lat="59.9087816" lon="17.7105693">
        <ele>36.6675</ele>
        <time>2013-05-19T12:29:36Z</time>
      </trkpt>
      <trkpt lat="59.9087618" lon="17.7105871">
        <ele>36.6675</ele>
        <time>2013-05-19T12:29:37Z</time>
      </trkpt>
      <trkpt lat="59.9087458" lon="17.7106075">
        <ele>37.1481</ele>
        <time>2013-05-19T12:29:38Z</time>
      </trkpt>
      <trkpt lat="59.9087264" lon="17.7106353">
        <ele>37.1481</ele>
        <time>2013-05-19T12:29:39Z</time>
      </trkpt>
      <trkpt lat="59.9087068" lon="17.7106669">
        <ele>36.6675</ele>
        <time>2013-05-19T12:29:40Z</time>
      </trkpt>
      <trkpt lat="59.9086901" lon="17.7106986">
        <ele>36.6675</ele>
        <time>2013-05-19T12:29:41Z</time>
      </trkpt>
      <trkpt lat="59.908674" lon="17.7107323">
        <ele>36.6675</ele>
        <time>2013-05-19T12:29:42Z</time>
      </trkpt>
      <trkpt lat="59.9086566" lon="17.7107615">
        <ele>36.6675</ele>
        <time>2013-05-19T12:29:43Z</time>
      </trkpt>
      <trkpt lat="59.9086431" lon="17.7107839">
        <ele>36.1868</ele>
        <time>2013-05-19T12:29:44Z</time>
      </trkpt>
      <trkpt lat="59.908629" lon="17.7108146">
        <ele>36.6675</ele>
        <time>2013-05-19T12:29:45Z</time>
      </trkpt>
      <trkpt lat="59.9086122" lon="17.7108429">
        <ele>36.6675</ele>
        <time>2013-05-19T12:29:46Z</time>
      </trkpt>
      <trkpt lat="59.9085919" lon="17.7108684">
        <ele>36.1868</ele>
        <time>2013-05-19T12:29:47Z</time>
      </trkpt>
      <trkpt lat="59.9085727" lon="17.7108967">
        <ele>36.1868</ele>
        <time>2013-05-19T12:29:48Z</time>
      </trkpt>
      <trkpt lat="59.9085538" lon="17.7109273">
        <ele>35.7061</ele>
        <time>2013-05-19T12:29:49Z</time>
      </trkpt>
      <trkpt lat="59.9085354" lon="17.7109565">
        <ele>35.2255</ele>
        <time>2013-05-19T12:29:50Z</time>
      </trkpt>
      <trkpt lat="59.9085178" lon="17.7109839">
        <ele>34.7449</ele>
        <time>2013-05-19T12:29:51Z</time>
      </trkpt>
      <trkpt lat="59.9085007" lon="17.7110145">
        <ele>34.2642</ele>
        <time>2013-05-19T12:29:52Z</time>
      </trkpt>
      <trkpt lat="59.9084872" lon="17.7110425">
        <ele>34.7449</ele>
        <time>2013-05-19T12:29:53Z</time>
      </trkpt>
      <trkpt lat="59.9084728" lon="17.7110736">
        <ele>34.7449</ele>
        <time>2013-05-19T12:29:54Z</time>
      </trkpt>
      <trkpt lat="59.9084598" lon="17.7111077">
        <ele>34.7449</ele>
        <time>2013-05-19T12:29:55Z</time>
      </trkpt>
      <trkpt lat="59.9084463" lon="17.7111433">
        <ele>35.2255</ele>
        <time>2013-05-19T12:29:56Z</time>
      </trkpt>
      <trkpt lat="59.9084363" lon="17.7111828">
        <ele>35.2255</ele>
        <time>2013-05-19T12:29:57Z</time>
      </trkpt>
      <trkpt lat="59.908425" lon="17.7112242">
        <ele>34.2642</ele>
        <time>2013-05-19T12:29:58Z</time>
      </trkpt>
      <trkpt lat="59.9084161" lon="17.7112594">
        <ele>34.7449</ele>
        <time>2013-05-19T12:29:59Z</time>
      </trkpt>
      <trkpt lat="59.9084079" lon="17.7112968">
        <ele>34.7449</ele>
        <time>2013-05-19T12:30:00Z</time>
      </trkpt>
      <trkpt lat="59.9083982" lon="17.711337">
        <ele>34.2642</ele>
        <time>2013-05-19T12:30:01Z</time>
      </trkpt>
      <trkpt lat="59.9083904" lon="17.7113821">
        <ele>34.2642</ele>
        <time>2013-05-19T12:30:02Z</time>
      </trkpt>
      <trkpt lat="59.9083871" lon="17.7114274">
        <ele>33.7834</ele>
        <time>2013-05-19T12:30:03Z</time>
      </trkpt>
      <trkpt lat="59.9083842" lon="17.7114753">
        <ele>33.7834</ele>
        <time>2013-05-19T12:30:04Z</time>
      </trkpt>
      <trkpt lat="59.9083822" lon="17.7115246">
        <ele>33.3029</ele>
        <time>2013-05-19T12:30:05Z</time>
      </trkpt>
      <trkpt lat="59.9083805" lon="17.7115647">
        <ele>32.8223</ele>
        <time>2013-05-19T12:30:06Z</time>
      </trkpt>
      <trkpt lat="59.9083817" lon="17.7115999">
        <ele>32.3416</ele>
        <time>2013-05-19T12:30:07Z</time>
      </trkpt>
      <trkpt lat="59.9083841" lon="17.7116406">
        <ele>32.3416</ele>
        <time>2013-05-19T12:30:08Z</time>
      </trkpt>
      <trkpt lat="59.9083826" lon="17.7117049">
        <ele>32.3416</ele>
        <time>2013-05-19T12:30:09Z</time>
      </trkpt>
      <trkpt lat="59.9083814" lon="17.7117593">
        <ele>32.3416</ele>
        <time>2013-05-19T12:30:10Z</time>
      </trkpt>
      <trkpt lat="59.9083808" lon="17.7118051">
        <ele>32.3416</ele>
        <time>2013-05-19T12:30:11Z</time>
      </trkpt>
      <trkpt lat="59.9083786" lon="17.711849">
        <ele>31.8607</ele>
        <time>2013-05-19T12:30:12Z</time>
      </trkpt>
      <trkpt lat="59.9083746" lon="17.7118937">
        <ele>31.3801</ele>
        <time>2013-05-19T12:30:13Z</time>
      </trkpt>
      <trkpt lat="59.9083716" lon="17.7119417">
        <ele>31.3801</ele>
        <time>2013-05-19T12:30:14Z</time>
      </trkpt>
      <trkpt lat="59.9083703" lon="17.7119954">
        <ele>30.8995</ele>
        <time>2013-05-19T12:30:15Z</time>
      </trkpt>
      <trkpt lat="59.9083748" lon="17.7120405">
        <ele>30.4188</ele>
        <time>2013-05-19T12:30:16Z</time>
      </trkpt>
      <trkpt lat="59.9083798" lon="17.7120754">
        <ele>30.8995</ele>
        <time>2013-05-19T12:30:17Z</time>
      </trkpt>
      <trkpt lat="59.9083829" lon="17.7121153">
        <ele>29.4575</ele>
        <time>2013-05-19T12:30:18Z</time>
      </trkpt>
      <trkpt lat="59.908392" lon="17.7121758">
        <ele>28.4962</ele>
        <time>2013-05-19T12:30:19Z</time>
      </trkpt>
      <trkpt lat="59.908406" lon="17.7122401">
        <ele>29.4575</ele>
        <time>2013-05-19T12:30:20Z</time>
      </trkpt>
      <trkpt lat="59.9084168" lon="17.7122892">
        <ele>29.9381</ele>
        <time>2013-05-19T12:30:21Z</time>
      </trkpt>
      <trkpt lat="59.9084256" lon="17.7123379">
        <ele>29.4575</ele>
        <time>2013-05-19T12:30:22Z</time>
      </trkpt>
      <trkpt lat="59.9084381" lon="17.7123811">
        <ele>29.9381</ele>
        <time>2013-05-19T12:30:23Z</time>
      </trkpt>
      <trkpt lat="59.9084525" lon="17.7124162">
        <ele>30.4188</ele>
        <time>2013-05-19T12:30:24Z</time>
      </trkpt>
      <trkpt lat="59.9084675" lon="17.7124596">
        <ele>30.4188</ele>
        <time>2013-05-19T12:30:25Z</time>
      </trkpt>
      <trkpt lat="59.9084841" lon="17.7125113">
        <ele>30.8995</ele>
        <time>2013-05-19T12:30:26Z</time>
      </trkpt>
      <trkpt lat="59.9085033" lon="17.7125654">
        <ele>31.3801</ele>
        <time>2013-05-19T12:30:27Z</time>
      </trkpt>
      <trkpt lat="59.9085246" lon="17.7126105">
        <ele>31.8607</ele>
        <time>2013-05-19T12:30:28Z</time>
      </trkpt>
      <trkpt lat="59.9085411" lon="17.7126536">
        <ele>31.3801</ele>
        <time>2013-05-19T12:30:29Z</time>
      </trkpt>
      <trkpt lat="59.9085608" lon="17.7126913">
        <ele>31.3801</ele>
        <time>2013-05-19T12:30:30Z</time>
      </trkpt>
      <trkpt lat="59.9085832" lon="17.7127276">
        <ele>32.3416</ele>
        <time>2013-05-19T12:30:31Z</time>
      </trkpt>
      <trkpt lat="59.9085971" lon="17.712768">
        <ele>31.8607</ele>
        <time>2013-05-19T12:30:32Z</time>
      </trkpt>
      <trkpt lat="59.908615" lon="17.7128001">
        <ele>31.8607</ele>
        <time>2013-05-19T12:30:33Z</time>
      </trkpt>
      <trkpt lat="59.908636" lon="17.7128378">
        <ele>32.3416</ele>
        <time>2013-05-19T12:30:34Z</time>
      </trkpt>
      <trkpt lat="59.9086486" lon="17.712883">
        <ele>32.3416</ele>
        <time>2013-05-19T12:30:35Z</time>
      </trkpt>
      <trkpt lat="59.9086663" lon="17.7129185">
        <ele>32.8223</ele>
        <time>2013-05-19T12:30:36Z</time>
      </trkpt>
      <trkpt lat="59.9086815" lon="17.7129565">
        <ele>32.8223</ele>
        <time>2013-05-19T12:30:37Z</time>
      </trkpt>
      <trkpt lat="59.9086985" lon="17.7129934">
        <ele>32.8223</ele>
        <time>2013-05-19T12:30:38Z</time>
      </trkpt>
      <trkpt lat="59.9087137" lon="17.713028">
        <ele>32.3416</ele>
        <time>2013-05-19T12:30:39Z</time>
      </trkpt>
    </trkseg>
  </trk>
</gpx>